<?xml version="1.0" encoding="UTF-8" standalone="no" ?>
<gpx xmlns="http://www.topografix.com/GPX/1/1" xmlns:xsi="http://www.w3.org/2001/XMLSchema-instance" xsi:schemaLocation="http://www.topografix.com/GPX/1/1 http://www.topografix.com/GPX/1/1/gpx.xsd" version="1.1" creator="VisuGPX - https://www.visugpx.com">
  <metadata>
    <name>boucle Méthamis Vallat Puits neuf - Chapelle sainte foi </name>
  </metadata>
  <trk>
    <name><![CDATA[2021-05-30 16:22:51]]></name>
    <trkseg>
      <trkpt lat="44.01329" lon="5.22506">
        <ele>347.17</ele>
        <time>2021-05-30T07:51:51Z</time>
      </trkpt>
      <trkpt lat="44.01329" lon="5.22506">
        <ele>347.17</ele>
        <time>2021-05-30T07:51:52Z</time>
      </trkpt>
      <trkpt lat="44.01328" lon="5.22506">
        <ele>315.93</ele>
        <time>2021-05-30T07:51:55Z</time>
      </trkpt>
      <trkpt lat="44.01328" lon="5.22505">
        <ele>315.93</ele>
        <time>2021-05-30T07:51:56Z</time>
      </trkpt>
      <trkpt lat="44.01328" lon="5.22506">
        <ele>317.85</ele>
        <time>2021-05-30T07:52:01Z</time>
      </trkpt>
      <trkpt lat="44.01328" lon="5.22505">
        <ele>313.53</ele>
        <time>2021-05-30T07:52:02Z</time>
      </trkpt>
      <trkpt lat="44.01328" lon="5.22505">
        <ele>316.41</ele>
        <time>2021-05-30T07:52:03Z</time>
      </trkpt>
      <trkpt lat="44.01328" lon="5.22505">
        <ele>309.68</ele>
        <time>2021-05-30T07:52:06Z</time>
      </trkpt>
      <trkpt lat="44.01328" lon="5.22505">
        <ele>309.68</ele>
        <time>2021-05-30T07:52:07Z</time>
      </trkpt>
      <trkpt lat="44.01328" lon="5.22505">
        <ele>319.78</ele>
        <time>2021-05-30T07:52:08Z</time>
      </trkpt>
      <trkpt lat="44.01327" lon="5.22505">
        <ele>317.37</ele>
        <time>2021-05-30T07:52:09Z</time>
      </trkpt>
      <trkpt lat="44.01327" lon="5.22509">
        <ele>315.45</ele>
        <time>2021-05-30T07:52:30Z</time>
      </trkpt>
      <trkpt lat="44.01327" lon="5.22512">
        <ele>315.45</ele>
        <time>2021-05-30T07:53:02Z</time>
      </trkpt>
      <trkpt lat="44.01324" lon="5.22513">
        <ele>315.45</ele>
        <time>2021-05-30T07:53:44Z</time>
      </trkpt>
      <trkpt lat="44.01327" lon="5.22513">
        <ele>315.45</ele>
        <time>2021-05-30T07:54:23Z</time>
      </trkpt>
      <trkpt lat="44.01325" lon="5.22509">
        <ele>315.45</ele>
        <time>2021-05-30T07:55:11Z</time>
      </trkpt>
      <trkpt lat="44.01323" lon="5.22511">
        <ele>315.45</ele>
        <time>2021-05-30T07:55:53Z</time>
      </trkpt>
      <trkpt lat="44.01324" lon="5.22507">
        <ele>315.45</ele>
        <time>2021-05-30T07:56:23Z</time>
      </trkpt>
      <trkpt lat="44.01324" lon="5.22508">
        <ele>315.45</ele>
        <time>2021-05-30T07:57:02Z</time>
      </trkpt>
      <trkpt lat="44.01325" lon="5.22507">
        <ele>315.45</ele>
        <time>2021-05-30T07:57:35Z</time>
      </trkpt>
      <trkpt lat="44.01324" lon="5.22508">
        <ele>315.45</ele>
        <time>2021-05-30T07:58:04Z</time>
      </trkpt>
      <trkpt lat="44.01325" lon="5.22507">
        <ele>315.45</ele>
        <time>2021-05-30T07:58:42Z</time>
      </trkpt>
      <trkpt lat="44.01325" lon="5.22509">
        <ele>315.45</ele>
        <time>2021-05-30T07:59:18Z</time>
      </trkpt>
      <trkpt lat="44.01326" lon="5.22507">
        <ele>315.45</ele>
        <time>2021-05-30T08:00:01Z</time>
      </trkpt>
      <trkpt lat="44.01325" lon="5.22504">
        <ele>315.45</ele>
        <time>2021-05-30T08:00:35Z</time>
      </trkpt>
      <trkpt lat="44.01329" lon="5.22506">
        <ele>315.45</ele>
        <time>2021-05-30T08:01:08Z</time>
      </trkpt>
      <trkpt lat="44.01329" lon="5.22505">
        <ele>315.45</ele>
        <time>2021-05-30T08:01:42Z</time>
      </trkpt>
      <trkpt lat="44.01329" lon="5.22507">
        <ele>315.45</ele>
        <time>2021-05-30T08:02:10Z</time>
      </trkpt>
      <trkpt lat="44.01329" lon="5.22508">
        <ele>318.81</ele>
        <time>2021-05-30T08:02:26Z</time>
      </trkpt>
      <trkpt lat="44.01329" lon="5.22508">
        <ele>317.37</ele>
        <time>2021-05-30T08:02:27Z</time>
      </trkpt>
      <trkpt lat="44.0133" lon="5.22508">
        <ele>316.41</ele>
        <time>2021-05-30T08:02:29Z</time>
      </trkpt>
      <trkpt lat="44.01328" lon="5.22506">
        <ele>317.85</ele>
        <time>2021-05-30T08:02:42Z</time>
      </trkpt>
      <trkpt lat="44.01329" lon="5.22504">
        <ele>317.85</ele>
        <time>2021-05-30T08:02:53Z</time>
      </trkpt>
      <trkpt lat="44.01329" lon="5.22503">
        <ele>317.85</ele>
        <time>2021-05-30T08:03:12Z</time>
      </trkpt>
      <trkpt lat="44.01328" lon="5.22502">
        <ele>317.85</ele>
        <time>2021-05-30T08:03:28Z</time>
      </trkpt>
      <trkpt lat="44.01328" lon="5.22501">
        <ele>317.85</ele>
        <time>2021-05-30T08:03:43Z</time>
      </trkpt>
      <trkpt lat="44.01329" lon="5.22499">
        <ele>317.85</ele>
        <time>2021-05-30T08:03:53Z</time>
      </trkpt>
      <trkpt lat="44.01335" lon="5.22492">
        <ele>317.85</ele>
        <time>2021-05-30T08:04:05Z</time>
      </trkpt>
      <trkpt lat="44.01345" lon="5.22491">
        <ele>317.85</ele>
        <time>2021-05-30T08:04:19Z</time>
      </trkpt>
      <trkpt lat="44.01347" lon="5.22494">
        <ele>317.85</ele>
        <time>2021-05-30T08:04:29Z</time>
      </trkpt>
      <trkpt lat="44.01349" lon="5.22497">
        <ele>317.85</ele>
        <time>2021-05-30T08:04:32Z</time>
      </trkpt>
      <trkpt lat="44.01349" lon="5.225">
        <ele>316.41</ele>
        <time>2021-05-30T08:04:34Z</time>
      </trkpt>
      <trkpt lat="44.01354" lon="5.22504">
        <ele>316.41</ele>
        <time>2021-05-30T08:04:46Z</time>
      </trkpt>
      <trkpt lat="44.01362" lon="5.22497">
        <ele>316.89</ele>
        <time>2021-05-30T08:04:57Z</time>
      </trkpt>
      <trkpt lat="44.01365" lon="5.22493">
        <ele>316.89</ele>
        <time>2021-05-30T08:05:01Z</time>
      </trkpt>
      <trkpt lat="44.01375" lon="5.22479">
        <ele>316.41</ele>
        <time>2021-05-30T08:05:16Z</time>
      </trkpt>
      <trkpt lat="44.01382" lon="5.22465">
        <ele>315.93</ele>
        <time>2021-05-30T08:05:27Z</time>
      </trkpt>
      <trkpt lat="44.01392" lon="5.22449">
        <ele>315.45</ele>
        <time>2021-05-30T08:05:43Z</time>
      </trkpt>
      <trkpt lat="44.01394" lon="5.22448">
        <ele>315.45</ele>
        <time>2021-05-30T08:05:46Z</time>
      </trkpt>
      <trkpt lat="44.01406" lon="5.22445">
        <ele>315.93</ele>
        <time>2021-05-30T08:05:57Z</time>
      </trkpt>
      <trkpt lat="44.0141" lon="5.22448">
        <ele>315.93</ele>
        <time>2021-05-30T08:06:02Z</time>
      </trkpt>
      <trkpt lat="44.01416" lon="5.22466">
        <ele>314.97</ele>
        <time>2021-05-30T08:06:16Z</time>
      </trkpt>
      <trkpt lat="44.01416" lon="5.2247">
        <ele>314.97</ele>
        <time>2021-05-30T08:06:33Z</time>
      </trkpt>
      <trkpt lat="44.01416" lon="5.22471">
        <ele>314.97</ele>
        <time>2021-05-30T08:06:34Z</time>
      </trkpt>
      <trkpt lat="44.01418" lon="5.22479">
        <ele>314.97</ele>
        <time>2021-05-30T08:06:42Z</time>
      </trkpt>
      <trkpt lat="44.01418" lon="5.22483">
        <ele>314.97</ele>
        <time>2021-05-30T08:06:44Z</time>
      </trkpt>
      <trkpt lat="44.01417" lon="5.22485">
        <ele>314.97</ele>
        <time>2021-05-30T08:06:46Z</time>
      </trkpt>
      <trkpt lat="44.01417" lon="5.22501">
        <ele>314.01</ele>
        <time>2021-05-30T08:06:57Z</time>
      </trkpt>
      <trkpt lat="44.01419" lon="5.22524">
        <ele>313.05</ele>
        <time>2021-05-30T08:07:13Z</time>
      </trkpt>
      <trkpt lat="44.01419" lon="5.2253">
        <ele>313.05</ele>
        <time>2021-05-30T08:07:17Z</time>
      </trkpt>
      <trkpt lat="44.01421" lon="5.22544">
        <ele>312.09</ele>
        <time>2021-05-30T08:07:29Z</time>
      </trkpt>
      <trkpt lat="44.01421" lon="5.22549">
        <ele>312.09</ele>
        <time>2021-05-30T08:07:32Z</time>
      </trkpt>
      <trkpt lat="44.01423" lon="5.22568">
        <ele>310.64</ele>
        <time>2021-05-30T08:07:46Z</time>
      </trkpt>
      <trkpt lat="44.01424" lon="5.22571">
        <ele>310.64</ele>
        <time>2021-05-30T08:07:48Z</time>
      </trkpt>
      <trkpt lat="44.01427" lon="5.22589">
        <ele>309.68</ele>
        <time>2021-05-30T08:08:02Z</time>
      </trkpt>
      <trkpt lat="44.0143" lon="5.2261">
        <ele>309.2</ele>
        <time>2021-05-30T08:08:18Z</time>
      </trkpt>
      <trkpt lat="44.01435" lon="5.22628">
        <ele>307.76</ele>
        <time>2021-05-30T08:08:30Z</time>
      </trkpt>
      <trkpt lat="44.01442" lon="5.22656">
        <ele>306.32</ele>
        <time>2021-05-30T08:08:47Z</time>
      </trkpt>
      <trkpt lat="44.01449" lon="5.22684">
        <ele>304.39</ele>
        <time>2021-05-30T08:09:06Z</time>
      </trkpt>
      <trkpt lat="44.01451" lon="5.2269">
        <ele>303.91</ele>
        <time>2021-05-30T08:09:10Z</time>
      </trkpt>
      <trkpt lat="44.01453" lon="5.22695">
        <ele>303.91</ele>
        <time>2021-05-30T08:09:14Z</time>
      </trkpt>
      <trkpt lat="44.01461" lon="5.22716">
        <ele>302.95</ele>
        <time>2021-05-30T08:09:29Z</time>
      </trkpt>
      <trkpt lat="44.01467" lon="5.22724">
        <ele>301.99</ele>
        <time>2021-05-30T08:09:42Z</time>
      </trkpt>
      <trkpt lat="44.01468" lon="5.22727">
        <ele>301.99</ele>
        <time>2021-05-30T08:09:56Z</time>
      </trkpt>
      <trkpt lat="44.01477" lon="5.22738">
        <ele>301.03</ele>
        <time>2021-05-30T08:10:08Z</time>
      </trkpt>
      <trkpt lat="44.01479" lon="5.22742">
        <ele>301.03</ele>
        <time>2021-05-30T08:10:11Z</time>
      </trkpt>
      <trkpt lat="44.01495" lon="5.22765">
        <ele>300.07</ele>
        <time>2021-05-30T08:10:31Z</time>
      </trkpt>
      <trkpt lat="44.0151" lon="5.22787">
        <ele>298.63</ele>
        <time>2021-05-30T08:10:48Z</time>
      </trkpt>
      <trkpt lat="44.01527" lon="5.22807">
        <ele>296.7</ele>
        <time>2021-05-30T08:11:05Z</time>
      </trkpt>
      <trkpt lat="44.01542" lon="5.2283">
        <ele>295.74</ele>
        <time>2021-05-30T08:11:23Z</time>
      </trkpt>
      <trkpt lat="44.01559" lon="5.22851">
        <ele>293.34</ele>
        <time>2021-05-30T08:11:41Z</time>
      </trkpt>
      <trkpt lat="44.0158" lon="5.22874">
        <ele>291.9</ele>
        <time>2021-05-30T08:12:02Z</time>
      </trkpt>
      <trkpt lat="44.016" lon="5.22895">
        <ele>290.94</ele>
        <time>2021-05-30T08:12:21Z</time>
      </trkpt>
      <trkpt lat="44.01618" lon="5.22918">
        <ele>289.97</ele>
        <time>2021-05-30T08:12:40Z</time>
      </trkpt>
      <trkpt lat="44.01624" lon="5.22924">
        <ele>289.49</ele>
        <time>2021-05-30T08:12:48Z</time>
      </trkpt>
      <trkpt lat="44.01635" lon="5.22938">
        <ele>289.01</ele>
        <time>2021-05-30T08:13:03Z</time>
      </trkpt>
      <trkpt lat="44.01637" lon="5.22941">
        <ele>289.01</ele>
        <time>2021-05-30T08:13:05Z</time>
      </trkpt>
      <trkpt lat="44.01654" lon="5.22961">
        <ele>287.57</ele>
        <time>2021-05-30T08:13:23Z</time>
      </trkpt>
      <trkpt lat="44.01662" lon="5.2297">
        <ele>287.57</ele>
        <time>2021-05-30T08:13:36Z</time>
      </trkpt>
      <trkpt lat="44.01667" lon="5.22975">
        <ele>287.09</ele>
        <time>2021-05-30T08:13:45Z</time>
      </trkpt>
      <trkpt lat="44.01678" lon="5.22985">
        <ele>286.13</ele>
        <time>2021-05-30T08:14:01Z</time>
      </trkpt>
      <trkpt lat="44.01696" lon="5.23004">
        <ele>284.69</ele>
        <time>2021-05-30T08:14:19Z</time>
      </trkpt>
      <trkpt lat="44.01709" lon="5.23017">
        <ele>284.21</ele>
        <time>2021-05-30T08:14:33Z</time>
      </trkpt>
      <trkpt lat="44.01718" lon="5.23032">
        <ele>284.21</ele>
        <time>2021-05-30T08:14:50Z</time>
      </trkpt>
      <trkpt lat="44.01724" lon="5.23034">
        <ele>284.21</ele>
        <time>2021-05-30T08:15:01Z</time>
      </trkpt>
      <trkpt lat="44.01727" lon="5.23036">
        <ele>284.21</ele>
        <time>2021-05-30T08:15:04Z</time>
      </trkpt>
      <trkpt lat="44.01738" lon="5.23049">
        <ele>283.73</ele>
        <time>2021-05-30T08:15:17Z</time>
      </trkpt>
      <trkpt lat="44.01747" lon="5.23056">
        <ele>283.25</ele>
        <time>2021-05-30T08:15:26Z</time>
      </trkpt>
      <trkpt lat="44.01767" lon="5.23058">
        <ele>282.28</ele>
        <time>2021-05-30T08:15:43Z</time>
      </trkpt>
      <trkpt lat="44.01785" lon="5.23065">
        <ele>281.32</ele>
        <time>2021-05-30T08:15:58Z</time>
      </trkpt>
      <trkpt lat="44.01788" lon="5.23071">
        <ele>280.84</ele>
        <time>2021-05-30T08:16:03Z</time>
      </trkpt>
      <trkpt lat="44.01791" lon="5.23074">
        <ele>280.84</ele>
        <time>2021-05-30T08:16:07Z</time>
      </trkpt>
      <trkpt lat="44.01793" lon="5.23076">
        <ele>280.36</ele>
        <time>2021-05-30T08:16:09Z</time>
      </trkpt>
      <trkpt lat="44.01795" lon="5.2308">
        <ele>280.36</ele>
        <time>2021-05-30T08:16:12Z</time>
      </trkpt>
      <trkpt lat="44.01802" lon="5.23088">
        <ele>279.88</ele>
        <time>2021-05-30T08:16:21Z</time>
      </trkpt>
      <trkpt lat="44.01806" lon="5.23096">
        <ele>279.88</ele>
        <time>2021-05-30T08:16:33Z</time>
      </trkpt>
      <trkpt lat="44.01811" lon="5.23098">
        <ele>279.88</ele>
        <time>2021-05-30T08:16:46Z</time>
      </trkpt>
      <trkpt lat="44.01817" lon="5.23105">
        <ele>279.88</ele>
        <time>2021-05-30T08:16:55Z</time>
      </trkpt>
      <trkpt lat="44.01826" lon="5.23117">
        <ele>279.88</ele>
        <time>2021-05-30T08:17:08Z</time>
      </trkpt>
      <trkpt lat="44.01829" lon="5.2312">
        <ele>279.88</ele>
        <time>2021-05-30T08:17:24Z</time>
      </trkpt>
      <trkpt lat="44.01829" lon="5.23122">
        <ele>280.84</ele>
        <time>2021-05-30T08:17:51Z</time>
      </trkpt>
      <trkpt lat="44.0183" lon="5.23122">
        <ele>280.84</ele>
        <time>2021-05-30T08:18:20Z</time>
      </trkpt>
      <trkpt lat="44.0183" lon="5.23122">
        <ele>280.84</ele>
        <time>2021-05-30T08:18:38Z</time>
      </trkpt>
      <trkpt lat="44.01836" lon="5.23134">
        <ele>280.84</ele>
        <time>2021-05-30T08:18:51Z</time>
      </trkpt>
      <trkpt lat="44.01844" lon="5.23144">
        <ele>280.84</ele>
        <time>2021-05-30T08:19:01Z</time>
      </trkpt>
      <trkpt lat="44.01849" lon="5.23151">
        <ele>280.84</ele>
        <time>2021-05-30T08:19:08Z</time>
      </trkpt>
      <trkpt lat="44.01862" lon="5.23161">
        <ele>280.84</ele>
        <time>2021-05-30T08:19:23Z</time>
      </trkpt>
      <trkpt lat="44.01873" lon="5.2317">
        <ele>280.84</ele>
        <time>2021-05-30T08:19:34Z</time>
      </trkpt>
      <trkpt lat="44.01875" lon="5.23171">
        <ele>280.84</ele>
        <time>2021-05-30T08:19:36Z</time>
      </trkpt>
      <trkpt lat="44.01878" lon="5.23173">
        <ele>280.84</ele>
        <time>2021-05-30T08:19:39Z</time>
      </trkpt>
      <trkpt lat="44.0189" lon="5.2318">
        <ele>281.32</ele>
        <time>2021-05-30T08:19:51Z</time>
      </trkpt>
      <trkpt lat="44.01894" lon="5.23182">
        <ele>281.32</ele>
        <time>2021-05-30T08:19:55Z</time>
      </trkpt>
      <trkpt lat="44.01897" lon="5.23181">
        <ele>281.32</ele>
        <time>2021-05-30T08:19:58Z</time>
      </trkpt>
      <trkpt lat="44.019" lon="5.23182">
        <ele>281.32</ele>
        <time>2021-05-30T08:20:00Z</time>
      </trkpt>
      <trkpt lat="44.01914" lon="5.23186">
        <ele>281.8</ele>
        <time>2021-05-30T08:20:15Z</time>
      </trkpt>
      <trkpt lat="44.01925" lon="5.23185">
        <ele>281.8</ele>
        <time>2021-05-30T08:20:26Z</time>
      </trkpt>
      <trkpt lat="44.01929" lon="5.23185">
        <ele>282.28</ele>
        <time>2021-05-30T08:20:29Z</time>
      </trkpt>
      <trkpt lat="44.01937" lon="5.23186">
        <ele>282.77</ele>
        <time>2021-05-30T08:20:43Z</time>
      </trkpt>
      <trkpt lat="44.01937" lon="5.23191">
        <ele>283.25</ele>
        <time>2021-05-30T08:21:00Z</time>
      </trkpt>
      <trkpt lat="44.01939" lon="5.23191">
        <ele>283.25</ele>
        <time>2021-05-30T08:21:02Z</time>
      </trkpt>
      <trkpt lat="44.01944" lon="5.2319">
        <ele>283.25</ele>
        <time>2021-05-30T08:21:08Z</time>
      </trkpt>
      <trkpt lat="44.01946" lon="5.23191">
        <ele>283.25</ele>
        <time>2021-05-30T08:21:10Z</time>
      </trkpt>
      <trkpt lat="44.01953" lon="5.23196">
        <ele>283.25</ele>
        <time>2021-05-30T08:21:17Z</time>
      </trkpt>
      <trkpt lat="44.01956" lon="5.23209">
        <ele>283.73</ele>
        <time>2021-05-30T08:21:33Z</time>
      </trkpt>
      <trkpt lat="44.01951" lon="5.23213">
        <ele>284.21</ele>
        <time>2021-05-30T08:21:55Z</time>
      </trkpt>
      <trkpt lat="44.01956" lon="5.23212">
        <ele>284.69</ele>
        <time>2021-05-30T08:22:05Z</time>
      </trkpt>
      <trkpt lat="44.01958" lon="5.23213">
        <ele>284.69</ele>
        <time>2021-05-30T08:22:07Z</time>
      </trkpt>
      <trkpt lat="44.01969" lon="5.23214">
        <ele>285.65</ele>
        <time>2021-05-30T08:22:20Z</time>
      </trkpt>
      <trkpt lat="44.01972" lon="5.23215">
        <ele>285.65</ele>
        <time>2021-05-30T08:22:23Z</time>
      </trkpt>
      <trkpt lat="44.01977" lon="5.2322">
        <ele>285.65</ele>
        <time>2021-05-30T08:22:30Z</time>
      </trkpt>
      <trkpt lat="44.01979" lon="5.23222">
        <ele>285.65</ele>
        <time>2021-05-30T08:22:32Z</time>
      </trkpt>
      <trkpt lat="44.01986" lon="5.23229">
        <ele>286.13</ele>
        <time>2021-05-30T08:22:40Z</time>
      </trkpt>
      <trkpt lat="44.01997" lon="5.23219">
        <ele>286.13</ele>
        <time>2021-05-30T08:22:48Z</time>
      </trkpt>
      <trkpt lat="44.02008" lon="5.23219">
        <ele>287.09</ele>
        <time>2021-05-30T08:22:58Z</time>
      </trkpt>
      <trkpt lat="44.02019" lon="5.23229">
        <ele>287.57</ele>
        <time>2021-05-30T08:23:12Z</time>
      </trkpt>
      <trkpt lat="44.02023" lon="5.23242">
        <ele>288.05</ele>
        <time>2021-05-30T08:23:23Z</time>
      </trkpt>
      <trkpt lat="44.02022" lon="5.23248">
        <ele>288.05</ele>
        <time>2021-05-30T08:23:27Z</time>
      </trkpt>
      <trkpt lat="44.02014" lon="5.23264">
        <ele>288.05</ele>
        <time>2021-05-30T08:23:41Z</time>
      </trkpt>
      <trkpt lat="44.02014" lon="5.23266">
        <ele>288.05</ele>
        <time>2021-05-30T08:23:43Z</time>
      </trkpt>
      <trkpt lat="44.02004" lon="5.23283">
        <ele>288.05</ele>
        <time>2021-05-30T08:23:58Z</time>
      </trkpt>
      <trkpt lat="44.02" lon="5.23285">
        <ele>288.53</ele>
        <time>2021-05-30T08:24:02Z</time>
      </trkpt>
      <trkpt lat="44.01992" lon="5.23297">
        <ele>288.53</ele>
        <time>2021-05-30T08:24:15Z</time>
      </trkpt>
      <trkpt lat="44.01984" lon="5.23313">
        <ele>289.01</ele>
        <time>2021-05-30T08:24:30Z</time>
      </trkpt>
      <trkpt lat="44.01973" lon="5.23327">
        <ele>289.01</ele>
        <time>2021-05-30T08:24:44Z</time>
      </trkpt>
      <trkpt lat="44.01966" lon="5.23336">
        <ele>289.97</ele>
        <time>2021-05-30T08:24:54Z</time>
      </trkpt>
      <trkpt lat="44.0196" lon="5.23354">
        <ele>289.97</ele>
        <time>2021-05-30T08:25:08Z</time>
      </trkpt>
      <trkpt lat="44.01959" lon="5.23356">
        <ele>289.97</ele>
        <time>2021-05-30T08:25:10Z</time>
      </trkpt>
      <trkpt lat="44.0196" lon="5.23376">
        <ele>290.46</ele>
        <time>2021-05-30T08:25:25Z</time>
      </trkpt>
      <trkpt lat="44.0196" lon="5.23379">
        <ele>290.46</ele>
        <time>2021-05-30T08:25:27Z</time>
      </trkpt>
      <trkpt lat="44.01965" lon="5.23394">
        <ele>290.94</ele>
        <time>2021-05-30T08:25:42Z</time>
      </trkpt>
      <trkpt lat="44.0197" lon="5.23408">
        <ele>291.42</ele>
        <time>2021-05-30T08:25:57Z</time>
      </trkpt>
      <trkpt lat="44.01962" lon="5.23449">
        <ele>291.9</ele>
        <time>2021-05-30T08:26:10Z</time>
      </trkpt>
      <trkpt lat="44.0196" lon="5.23455">
        <ele>291.9</ele>
        <time>2021-05-30T08:26:15Z</time>
      </trkpt>
      <trkpt lat="44.01961" lon="5.23463">
        <ele>291.9</ele>
        <time>2021-05-30T08:26:27Z</time>
      </trkpt>
      <trkpt lat="44.01964" lon="5.23463">
        <ele>292.38</ele>
        <time>2021-05-30T08:26:32Z</time>
      </trkpt>
      <trkpt lat="44.01969" lon="5.23463">
        <ele>292.38</ele>
        <time>2021-05-30T08:26:39Z</time>
      </trkpt>
      <trkpt lat="44.01976" lon="5.23466">
        <ele>292.38</ele>
        <time>2021-05-30T08:26:50Z</time>
      </trkpt>
      <trkpt lat="44.01983" lon="5.23471">
        <ele>292.86</ele>
        <time>2021-05-30T08:27:00Z</time>
      </trkpt>
      <trkpt lat="44.01988" lon="5.23474">
        <ele>293.34</ele>
        <time>2021-05-30T08:27:09Z</time>
      </trkpt>
      <trkpt lat="44.0199" lon="5.23476">
        <ele>293.34</ele>
        <time>2021-05-30T08:27:11Z</time>
      </trkpt>
      <trkpt lat="44.01995" lon="5.2348">
        <ele>293.34</ele>
        <time>2021-05-30T08:27:17Z</time>
      </trkpt>
      <trkpt lat="44.02005" lon="5.23487">
        <ele>293.82</ele>
        <time>2021-05-30T08:27:29Z</time>
      </trkpt>
      <trkpt lat="44.02006" lon="5.23487">
        <ele>293.82</ele>
        <time>2021-05-30T08:27:30Z</time>
      </trkpt>
      <trkpt lat="44.02009" lon="5.2349">
        <ele>293.82</ele>
        <time>2021-05-30T08:27:34Z</time>
      </trkpt>
      <trkpt lat="44.02018" lon="5.23493">
        <ele>294.3</ele>
        <time>2021-05-30T08:27:47Z</time>
      </trkpt>
      <trkpt lat="44.02029" lon="5.23504">
        <ele>294.78</ele>
        <time>2021-05-30T08:27:57Z</time>
      </trkpt>
      <trkpt lat="44.02036" lon="5.2353">
        <ele>294.78</ele>
        <time>2021-05-30T08:28:09Z</time>
      </trkpt>
      <trkpt lat="44.02042" lon="5.23553">
        <ele>295.26</ele>
        <time>2021-05-30T08:28:22Z</time>
      </trkpt>
      <trkpt lat="44.02049" lon="5.23568">
        <ele>296.22</ele>
        <time>2021-05-30T08:28:35Z</time>
      </trkpt>
      <trkpt lat="44.02058" lon="5.23573">
        <ele>296.22</ele>
        <time>2021-05-30T08:28:45Z</time>
      </trkpt>
      <trkpt lat="44.02072" lon="5.2358">
        <ele>296.22</ele>
        <time>2021-05-30T08:28:59Z</time>
      </trkpt>
      <trkpt lat="44.02076" lon="5.23581">
        <ele>296.7</ele>
        <time>2021-05-30T08:29:02Z</time>
      </trkpt>
      <trkpt lat="44.02093" lon="5.23581">
        <ele>297.18</ele>
        <time>2021-05-30T08:29:15Z</time>
      </trkpt>
      <trkpt lat="44.02098" lon="5.23591">
        <ele>297.18</ele>
        <time>2021-05-30T08:29:26Z</time>
      </trkpt>
      <trkpt lat="44.02102" lon="5.23595">
        <ele>297.18</ele>
        <time>2021-05-30T08:29:31Z</time>
      </trkpt>
      <trkpt lat="44.02105" lon="5.23596">
        <ele>297.18</ele>
        <time>2021-05-30T08:29:34Z</time>
      </trkpt>
      <trkpt lat="44.02111" lon="5.23605">
        <ele>297.67</ele>
        <time>2021-05-30T08:29:44Z</time>
      </trkpt>
      <trkpt lat="44.02116" lon="5.23626">
        <ele>298.15</ele>
        <time>2021-05-30T08:29:58Z</time>
      </trkpt>
      <trkpt lat="44.02116" lon="5.23637">
        <ele>298.15</ele>
        <time>2021-05-30T08:30:03Z</time>
      </trkpt>
      <trkpt lat="44.02111" lon="5.2367">
        <ele>298.63</ele>
        <time>2021-05-30T08:30:19Z</time>
      </trkpt>
      <trkpt lat="44.02106" lon="5.23693">
        <ele>298.63</ele>
        <time>2021-05-30T08:30:25Z</time>
      </trkpt>
      <trkpt lat="44.02103" lon="5.23708">
        <ele>299.11</ele>
        <time>2021-05-30T08:30:30Z</time>
      </trkpt>
      <trkpt lat="44.02087" lon="5.23753">
        <ele>299.59</ele>
        <time>2021-05-30T08:30:43Z</time>
      </trkpt>
      <trkpt lat="44.02084" lon="5.23754">
        <ele>300.07</ele>
        <time>2021-05-30T08:30:58Z</time>
      </trkpt>
      <trkpt lat="44.0208" lon="5.2375">
        <ele>301.03</ele>
        <time>2021-05-30T08:31:13Z</time>
      </trkpt>
      <trkpt lat="44.0207" lon="5.23742">
        <ele>301.51</ele>
        <time>2021-05-30T08:31:27Z</time>
      </trkpt>
      <trkpt lat="44.02067" lon="5.23739">
        <ele>301.51</ele>
        <time>2021-05-30T08:31:42Z</time>
      </trkpt>
      <trkpt lat="44.02063" lon="5.23738">
        <ele>301.99</ele>
        <time>2021-05-30T08:31:48Z</time>
      </trkpt>
      <trkpt lat="44.02061" lon="5.23736">
        <ele>302.47</ele>
        <time>2021-05-30T08:31:50Z</time>
      </trkpt>
      <trkpt lat="44.02055" lon="5.23736">
        <ele>302.95</ele>
        <time>2021-05-30T08:31:56Z</time>
      </trkpt>
      <trkpt lat="44.02048" lon="5.23725">
        <ele>303.43</ele>
        <time>2021-05-30T08:32:05Z</time>
      </trkpt>
      <trkpt lat="44.0204" lon="5.2371">
        <ele>303.91</ele>
        <time>2021-05-30T08:32:17Z</time>
      </trkpt>
      <trkpt lat="44.02035" lon="5.23706">
        <ele>304.39</ele>
        <time>2021-05-30T08:32:24Z</time>
      </trkpt>
      <trkpt lat="44.02021" lon="5.23698">
        <ele>304.88</ele>
        <time>2021-05-30T08:32:37Z</time>
      </trkpt>
      <trkpt lat="44.02007" lon="5.23687">
        <ele>305.84</ele>
        <time>2021-05-30T08:32:53Z</time>
      </trkpt>
      <trkpt lat="44.02001" lon="5.23686">
        <ele>306.32</ele>
        <time>2021-05-30T08:33:04Z</time>
      </trkpt>
      <trkpt lat="44.01995" lon="5.23687">
        <ele>306.8</ele>
        <time>2021-05-30T08:33:11Z</time>
      </trkpt>
      <trkpt lat="44.01993" lon="5.23689">
        <ele>306.8</ele>
        <time>2021-05-30T08:33:14Z</time>
      </trkpt>
      <trkpt lat="44.01994" lon="5.23684">
        <ele>307.28</ele>
        <time>2021-05-30T08:33:21Z</time>
      </trkpt>
      <trkpt lat="44.01995" lon="5.23702">
        <ele>307.76</ele>
        <time>2021-05-30T08:33:38Z</time>
      </trkpt>
      <trkpt lat="44.01994" lon="5.23704">
        <ele>308.72</ele>
        <time>2021-05-30T08:33:42Z</time>
      </trkpt>
      <trkpt lat="44.01995" lon="5.23711">
        <ele>308.72</ele>
        <time>2021-05-30T08:33:47Z</time>
      </trkpt>
      <trkpt lat="44.01991" lon="5.2373">
        <ele>309.68</ele>
        <time>2021-05-30T08:34:01Z</time>
      </trkpt>
      <trkpt lat="44.0199" lon="5.23739">
        <ele>309.68</ele>
        <time>2021-05-30T08:34:06Z</time>
      </trkpt>
      <trkpt lat="44.01989" lon="5.23744">
        <ele>310.16</ele>
        <time>2021-05-30T08:34:10Z</time>
      </trkpt>
      <trkpt lat="44.01988" lon="5.23748">
        <ele>310.16</ele>
        <time>2021-05-30T08:34:13Z</time>
      </trkpt>
      <trkpt lat="44.01987" lon="5.23752">
        <ele>310.16</ele>
        <time>2021-05-30T08:34:15Z</time>
      </trkpt>
      <trkpt lat="44.01979" lon="5.23767">
        <ele>311.6</ele>
        <time>2021-05-30T08:34:30Z</time>
      </trkpt>
      <trkpt lat="44.01969" lon="5.23783">
        <ele>314.01</ele>
        <time>2021-05-30T08:34:46Z</time>
      </trkpt>
      <trkpt lat="44.01967" lon="5.23786">
        <ele>314.49</ele>
        <time>2021-05-30T08:34:49Z</time>
      </trkpt>
      <trkpt lat="44.01964" lon="5.23789">
        <ele>314.01</ele>
        <time>2021-05-30T08:34:53Z</time>
      </trkpt>
      <trkpt lat="44.01952" lon="5.238">
        <ele>314.97</ele>
        <time>2021-05-30T08:35:07Z</time>
      </trkpt>
      <trkpt lat="44.01936" lon="5.23807">
        <ele>315.45</ele>
        <time>2021-05-30T08:35:20Z</time>
      </trkpt>
      <trkpt lat="44.01932" lon="5.2381">
        <ele>315.45</ele>
        <time>2021-05-30T08:35:24Z</time>
      </trkpt>
      <trkpt lat="44.01926" lon="5.23816">
        <ele>315.93</ele>
        <time>2021-05-30T08:35:31Z</time>
      </trkpt>
      <trkpt lat="44.01918" lon="5.2383">
        <ele>316.89</ele>
        <time>2021-05-30T08:35:44Z</time>
      </trkpt>
      <trkpt lat="44.01911" lon="5.23846">
        <ele>317.37</ele>
        <time>2021-05-30T08:35:58Z</time>
      </trkpt>
      <trkpt lat="44.01904" lon="5.23866">
        <ele>317.85</ele>
        <time>2021-05-30T08:36:14Z</time>
      </trkpt>
      <trkpt lat="44.01903" lon="5.23871">
        <ele>317.85</ele>
        <time>2021-05-30T08:36:32Z</time>
      </trkpt>
      <trkpt lat="44.019" lon="5.23879">
        <ele>318.33</ele>
        <time>2021-05-30T08:36:39Z</time>
      </trkpt>
      <trkpt lat="44.01891" lon="5.23893">
        <ele>319.3</ele>
        <time>2021-05-30T08:36:52Z</time>
      </trkpt>
      <trkpt lat="44.01878" lon="5.23898">
        <ele>320.26</ele>
        <time>2021-05-30T08:37:05Z</time>
      </trkpt>
      <trkpt lat="44.01875" lon="5.23903">
        <ele>320.74</ele>
        <time>2021-05-30T08:37:10Z</time>
      </trkpt>
      <trkpt lat="44.01867" lon="5.23918">
        <ele>321.7</ele>
        <time>2021-05-30T08:37:23Z</time>
      </trkpt>
      <trkpt lat="44.01861" lon="5.23923">
        <ele>322.18</ele>
        <time>2021-05-30T08:37:30Z</time>
      </trkpt>
      <trkpt lat="44.01859" lon="5.23926">
        <ele>322.18</ele>
        <time>2021-05-30T08:37:32Z</time>
      </trkpt>
      <trkpt lat="44.01857" lon="5.23929">
        <ele>322.66</ele>
        <time>2021-05-30T08:37:35Z</time>
      </trkpt>
      <trkpt lat="44.01849" lon="5.23944">
        <ele>323.14</ele>
        <time>2021-05-30T08:37:47Z</time>
      </trkpt>
      <trkpt lat="44.01847" lon="5.23948">
        <ele>323.14</ele>
        <time>2021-05-30T08:37:52Z</time>
      </trkpt>
      <trkpt lat="44.01846" lon="5.23951">
        <ele>323.62</ele>
        <time>2021-05-30T08:37:57Z</time>
      </trkpt>
      <trkpt lat="44.01839" lon="5.23962">
        <ele>324.1</ele>
        <time>2021-05-30T08:38:11Z</time>
      </trkpt>
      <trkpt lat="44.01836" lon="5.23963">
        <ele>324.1</ele>
        <time>2021-05-30T08:38:22Z</time>
      </trkpt>
      <trkpt lat="44.01827" lon="5.23979">
        <ele>324.58</ele>
        <time>2021-05-30T08:38:36Z</time>
      </trkpt>
      <trkpt lat="44.01815" lon="5.23989">
        <ele>325.54</ele>
        <time>2021-05-30T08:38:52Z</time>
      </trkpt>
      <trkpt lat="44.01809" lon="5.23994">
        <ele>325.54</ele>
        <time>2021-05-30T08:38:58Z</time>
      </trkpt>
      <trkpt lat="44.01788" lon="5.23994">
        <ele>326.5</ele>
        <time>2021-05-30T08:39:12Z</time>
      </trkpt>
      <trkpt lat="44.01779" lon="5.24">
        <ele>326.99</ele>
        <time>2021-05-30T08:39:21Z</time>
      </trkpt>
      <trkpt lat="44.01771" lon="5.24016">
        <ele>327.95</ele>
        <time>2021-05-30T08:39:36Z</time>
      </trkpt>
      <trkpt lat="44.01769" lon="5.2402">
        <ele>327.95</ele>
        <time>2021-05-30T08:39:40Z</time>
      </trkpt>
      <trkpt lat="44.01767" lon="5.24022">
        <ele>327.95</ele>
        <time>2021-05-30T08:39:42Z</time>
      </trkpt>
      <trkpt lat="44.01759" lon="5.24033">
        <ele>328.43</ele>
        <time>2021-05-30T08:39:53Z</time>
      </trkpt>
      <trkpt lat="44.01756" lon="5.2404">
        <ele>328.91</ele>
        <time>2021-05-30T08:39:59Z</time>
      </trkpt>
      <trkpt lat="44.01746" lon="5.24058">
        <ele>328.91</ele>
        <time>2021-05-30T08:40:14Z</time>
      </trkpt>
      <trkpt lat="44.01739" lon="5.24071">
        <ele>329.39</ele>
        <time>2021-05-30T08:40:24Z</time>
      </trkpt>
      <trkpt lat="44.01738" lon="5.24073">
        <ele>329.39</ele>
        <time>2021-05-30T08:40:26Z</time>
      </trkpt>
      <trkpt lat="44.01737" lon="5.24076">
        <ele>329.87</ele>
        <time>2021-05-30T08:40:28Z</time>
      </trkpt>
      <trkpt lat="44.01736" lon="5.2408">
        <ele>329.87</ele>
        <time>2021-05-30T08:40:31Z</time>
      </trkpt>
      <trkpt lat="44.01728" lon="5.24102">
        <ele>330.83</ele>
        <time>2021-05-30T08:40:46Z</time>
      </trkpt>
      <trkpt lat="44.01725" lon="5.2411">
        <ele>330.83</ele>
        <time>2021-05-30T08:40:52Z</time>
      </trkpt>
      <trkpt lat="44.01717" lon="5.24131">
        <ele>331.31</ele>
        <time>2021-05-30T08:41:06Z</time>
      </trkpt>
      <trkpt lat="44.0171" lon="5.24159">
        <ele>331.31</ele>
        <time>2021-05-30T08:41:25Z</time>
      </trkpt>
      <trkpt lat="44.01703" lon="5.24178">
        <ele>332.27</ele>
        <time>2021-05-30T08:41:39Z</time>
      </trkpt>
      <trkpt lat="44.01695" lon="5.24196">
        <ele>332.75</ele>
        <time>2021-05-30T08:41:54Z</time>
      </trkpt>
      <trkpt lat="44.01695" lon="5.242">
        <ele>332.75</ele>
        <time>2021-05-30T08:41:57Z</time>
      </trkpt>
      <trkpt lat="44.01704" lon="5.24223">
        <ele>333.23</ele>
        <time>2021-05-30T08:42:10Z</time>
      </trkpt>
      <trkpt lat="44.01702" lon="5.24237">
        <ele>333.71</ele>
        <time>2021-05-30T08:42:23Z</time>
      </trkpt>
      <trkpt lat="44.01702" lon="5.24239">
        <ele>334.2</ele>
        <time>2021-05-30T08:42:25Z</time>
      </trkpt>
      <trkpt lat="44.01711" lon="5.24256">
        <ele>334.68</ele>
        <time>2021-05-30T08:42:40Z</time>
      </trkpt>
      <trkpt lat="44.01716" lon="5.24265">
        <ele>335.64</ele>
        <time>2021-05-30T08:42:52Z</time>
      </trkpt>
      <trkpt lat="44.01721" lon="5.24275">
        <ele>336.12</ele>
        <time>2021-05-30T08:43:06Z</time>
      </trkpt>
      <trkpt lat="44.01722" lon="5.2428">
        <ele>336.12</ele>
        <time>2021-05-30T08:43:12Z</time>
      </trkpt>
      <trkpt lat="44.01718" lon="5.24304">
        <ele>337.08</ele>
        <time>2021-05-30T08:43:25Z</time>
      </trkpt>
      <trkpt lat="44.01714" lon="5.24322">
        <ele>337.08</ele>
        <time>2021-05-30T08:43:39Z</time>
      </trkpt>
      <trkpt lat="44.01707" lon="5.24343">
        <ele>337.56</ele>
        <time>2021-05-30T08:43:54Z</time>
      </trkpt>
      <trkpt lat="44.01706" lon="5.24351">
        <ele>338.04</ele>
        <time>2021-05-30T08:44:00Z</time>
      </trkpt>
      <trkpt lat="44.01705" lon="5.24368">
        <ele>338.52</ele>
        <time>2021-05-30T08:44:13Z</time>
      </trkpt>
      <trkpt lat="44.01704" lon="5.24378">
        <ele>339</ele>
        <time>2021-05-30T08:44:18Z</time>
      </trkpt>
      <trkpt lat="44.01703" lon="5.24403">
        <ele>339.96</ele>
        <time>2021-05-30T08:44:32Z</time>
      </trkpt>
      <trkpt lat="44.01701" lon="5.24418">
        <ele>340.92</ele>
        <time>2021-05-30T08:44:43Z</time>
      </trkpt>
      <trkpt lat="44.01704" lon="5.24434">
        <ele>340.92</ele>
        <time>2021-05-30T08:44:56Z</time>
      </trkpt>
      <trkpt lat="44.0171" lon="5.2444">
        <ele>341.89</ele>
        <time>2021-05-30T08:45:10Z</time>
      </trkpt>
      <trkpt lat="44.01711" lon="5.24447">
        <ele>341.89</ele>
        <time>2021-05-30T08:45:27Z</time>
      </trkpt>
      <trkpt lat="44.01711" lon="5.24447">
        <ele>339.48</ele>
        <time>2021-05-30T08:45:30Z</time>
      </trkpt>
      <trkpt lat="44.01712" lon="5.24448">
        <ele>340.44</ele>
        <time>2021-05-30T08:45:35Z</time>
      </trkpt>
      <trkpt lat="44.01711" lon="5.24451">
        <ele>341.89</ele>
        <time>2021-05-30T08:45:43Z</time>
      </trkpt>
      <trkpt lat="44.01711" lon="5.24453">
        <ele>337.08</ele>
        <time>2021-05-30T08:45:54Z</time>
      </trkpt>
      <trkpt lat="44.01711" lon="5.24453">
        <ele>340.44</ele>
        <time>2021-05-30T08:45:55Z</time>
      </trkpt>
      <trkpt lat="44.01708" lon="5.24449">
        <ele>340.92</ele>
        <time>2021-05-30T08:46:17Z</time>
      </trkpt>
      <trkpt lat="44.0171" lon="5.2445">
        <ele>340.44</ele>
        <time>2021-05-30T08:46:52Z</time>
      </trkpt>
      <trkpt lat="44.0171" lon="5.2445">
        <ele>338.52</ele>
        <time>2021-05-30T08:47:20Z</time>
      </trkpt>
      <trkpt lat="44.01711" lon="5.2445">
        <ele>339</ele>
        <time>2021-05-30T08:47:29Z</time>
      </trkpt>
      <trkpt lat="44.01711" lon="5.2445">
        <ele>340.44</ele>
        <time>2021-05-30T08:47:31Z</time>
      </trkpt>
      <trkpt lat="44.01711" lon="5.24455">
        <ele>341.89</ele>
        <time>2021-05-30T08:48:01Z</time>
      </trkpt>
      <trkpt lat="44.01709" lon="5.24457">
        <ele>343.33</ele>
        <time>2021-05-30T08:48:08Z</time>
      </trkpt>
      <trkpt lat="44.01709" lon="5.24457">
        <ele>341.89</ele>
        <time>2021-05-30T08:48:10Z</time>
      </trkpt>
      <trkpt lat="44.01708" lon="5.2446">
        <ele>342.85</ele>
        <time>2021-05-30T08:48:29Z</time>
      </trkpt>
      <trkpt lat="44.01708" lon="5.24459">
        <ele>341.41</ele>
        <time>2021-05-30T08:48:33Z</time>
      </trkpt>
      <trkpt lat="44.01708" lon="5.24452">
        <ele>341.41</ele>
        <time>2021-05-30T08:48:51Z</time>
      </trkpt>
      <trkpt lat="44.01707" lon="5.24442">
        <ele>340.92</ele>
        <time>2021-05-30T08:49:22Z</time>
      </trkpt>
      <trkpt lat="44.0171" lon="5.24443">
        <ele>340.92</ele>
        <time>2021-05-30T08:49:51Z</time>
      </trkpt>
      <trkpt lat="44.0171" lon="5.24447">
        <ele>340.92</ele>
        <time>2021-05-30T08:50:25Z</time>
      </trkpt>
      <trkpt lat="44.0171" lon="5.24452">
        <ele>342.37</ele>
        <time>2021-05-30T08:50:39Z</time>
      </trkpt>
      <trkpt lat="44.01714" lon="5.24462">
        <ele>341.89</ele>
        <time>2021-05-30T08:50:49Z</time>
      </trkpt>
      <trkpt lat="44.01726" lon="5.24474">
        <ele>341.89</ele>
        <time>2021-05-30T08:51:03Z</time>
      </trkpt>
      <trkpt lat="44.01729" lon="5.24478">
        <ele>341.89</ele>
        <time>2021-05-30T08:51:07Z</time>
      </trkpt>
      <trkpt lat="44.01731" lon="5.2448">
        <ele>341.89</ele>
        <time>2021-05-30T08:51:09Z</time>
      </trkpt>
      <trkpt lat="44.01741" lon="5.24497">
        <ele>342.85</ele>
        <time>2021-05-30T08:51:23Z</time>
      </trkpt>
      <trkpt lat="44.01745" lon="5.24517">
        <ele>343.81</ele>
        <time>2021-05-30T08:51:39Z</time>
      </trkpt>
      <trkpt lat="44.01744" lon="5.24526">
        <ele>343.81</ele>
        <time>2021-05-30T08:51:46Z</time>
      </trkpt>
      <trkpt lat="44.01745" lon="5.24549">
        <ele>344.29</ele>
        <time>2021-05-30T08:52:01Z</time>
      </trkpt>
      <trkpt lat="44.01744" lon="5.24569">
        <ele>344.77</ele>
        <time>2021-05-30T08:52:15Z</time>
      </trkpt>
      <trkpt lat="44.01744" lon="5.24586">
        <ele>345.73</ele>
        <time>2021-05-30T08:52:25Z</time>
      </trkpt>
      <trkpt lat="44.01741" lon="5.24603">
        <ele>346.69</ele>
        <time>2021-05-30T08:52:39Z</time>
      </trkpt>
      <trkpt lat="44.01736" lon="5.24618">
        <ele>347.17</ele>
        <time>2021-05-30T08:52:52Z</time>
      </trkpt>
      <trkpt lat="44.01733" lon="5.24641">
        <ele>348.13</ele>
        <time>2021-05-30T08:53:08Z</time>
      </trkpt>
      <trkpt lat="44.01731" lon="5.24662">
        <ele>349.58</ele>
        <time>2021-05-30T08:53:22Z</time>
      </trkpt>
      <trkpt lat="44.01728" lon="5.24677">
        <ele>350.54</ele>
        <time>2021-05-30T08:53:33Z</time>
      </trkpt>
      <trkpt lat="44.0172" lon="5.24686">
        <ele>351.5</ele>
        <time>2021-05-30T08:53:45Z</time>
      </trkpt>
      <trkpt lat="44.01716" lon="5.24694">
        <ele>351.5</ele>
        <time>2021-05-30T08:53:51Z</time>
      </trkpt>
      <trkpt lat="44.01709" lon="5.24706">
        <ele>351.98</ele>
        <time>2021-05-30T08:54:02Z</time>
      </trkpt>
      <trkpt lat="44.01699" lon="5.24729">
        <ele>353.42</ele>
        <time>2021-05-30T08:54:18Z</time>
      </trkpt>
      <trkpt lat="44.01698" lon="5.2473">
        <ele>353.42</ele>
        <time>2021-05-30T08:54:19Z</time>
      </trkpt>
      <trkpt lat="44.0169" lon="5.24746">
        <ele>354.38</ele>
        <time>2021-05-30T08:54:33Z</time>
      </trkpt>
      <trkpt lat="44.01682" lon="5.24768">
        <ele>355.34</ele>
        <time>2021-05-30T08:54:47Z</time>
      </trkpt>
      <trkpt lat="44.0168" lon="5.24774">
        <ele>355.34</ele>
        <time>2021-05-30T08:54:51Z</time>
      </trkpt>
      <trkpt lat="44.0167" lon="5.24791">
        <ele>355.83</ele>
        <time>2021-05-30T08:55:06Z</time>
      </trkpt>
      <trkpt lat="44.01655" lon="5.24799">
        <ele>356.79</ele>
        <time>2021-05-30T08:55:19Z</time>
      </trkpt>
      <trkpt lat="44.01649" lon="5.24806">
        <ele>356.79</ele>
        <time>2021-05-30T08:55:26Z</time>
      </trkpt>
      <trkpt lat="44.01638" lon="5.2482">
        <ele>357.75</ele>
        <time>2021-05-30T08:55:40Z</time>
      </trkpt>
      <trkpt lat="44.0164" lon="5.24833">
        <ele>358.23</ele>
        <time>2021-05-30T08:55:56Z</time>
      </trkpt>
      <trkpt lat="44.0164" lon="5.24838">
        <ele>358.71</ele>
        <time>2021-05-30T08:56:13Z</time>
      </trkpt>
      <trkpt lat="44.01628" lon="5.24838">
        <ele>359.19</ele>
        <time>2021-05-30T08:56:25Z</time>
      </trkpt>
      <trkpt lat="44.01619" lon="5.24838">
        <ele>359.67</ele>
        <time>2021-05-30T08:56:38Z</time>
      </trkpt>
      <trkpt lat="44.01609" lon="5.24838">
        <ele>359.67</ele>
        <time>2021-05-30T08:57:06Z</time>
      </trkpt>
      <trkpt lat="44.01626" lon="5.2485">
        <ele>360.15</ele>
        <time>2021-05-30T08:57:32Z</time>
      </trkpt>
      <trkpt lat="44.01605" lon="5.2484">
        <ele>360.15</ele>
        <time>2021-05-30T08:57:53Z</time>
      </trkpt>
      <trkpt lat="44.01593" lon="5.24835">
        <ele>360.63</ele>
        <time>2021-05-30T08:58:07Z</time>
      </trkpt>
      <trkpt lat="44.0158" lon="5.24832">
        <ele>361.11</ele>
        <time>2021-05-30T08:58:20Z</time>
      </trkpt>
      <trkpt lat="44.01562" lon="5.24825">
        <ele>361.59</ele>
        <time>2021-05-30T08:58:36Z</time>
      </trkpt>
      <trkpt lat="44.01552" lon="5.24821">
        <ele>362.55</ele>
        <time>2021-05-30T08:58:49Z</time>
      </trkpt>
      <trkpt lat="44.01543" lon="5.24821">
        <ele>363.04</ele>
        <time>2021-05-30T08:59:03Z</time>
      </trkpt>
      <trkpt lat="44.01528" lon="5.24823">
        <ele>363.04</ele>
        <time>2021-05-30T08:59:17Z</time>
      </trkpt>
      <trkpt lat="44.01516" lon="5.2483">
        <ele>364</ele>
        <time>2021-05-30T08:59:32Z</time>
      </trkpt>
      <trkpt lat="44.01512" lon="5.24848">
        <ele>364.96</ele>
        <time>2021-05-30T08:59:48Z</time>
      </trkpt>
      <trkpt lat="44.01508" lon="5.24868">
        <ele>365.44</ele>
        <time>2021-05-30T09:00:01Z</time>
      </trkpt>
      <trkpt lat="44.01506" lon="5.24884">
        <ele>366.88</ele>
        <time>2021-05-30T09:00:16Z</time>
      </trkpt>
      <trkpt lat="44.01499" lon="5.24887">
        <ele>367.36</ele>
        <time>2021-05-30T09:00:32Z</time>
      </trkpt>
      <trkpt lat="44.01491" lon="5.24898">
        <ele>367.36</ele>
        <time>2021-05-30T09:00:41Z</time>
      </trkpt>
      <trkpt lat="44.01484" lon="5.24914">
        <ele>367.36</ele>
        <time>2021-05-30T09:00:54Z</time>
      </trkpt>
      <trkpt lat="44.01479" lon="5.24928">
        <ele>368.8</ele>
        <time>2021-05-30T09:01:08Z</time>
      </trkpt>
      <trkpt lat="44.01472" lon="5.2494">
        <ele>369.76</ele>
        <time>2021-05-30T09:01:21Z</time>
      </trkpt>
      <trkpt lat="44.01469" lon="5.24955">
        <ele>370.24</ele>
        <time>2021-05-30T09:01:36Z</time>
      </trkpt>
      <trkpt lat="44.01463" lon="5.2497">
        <ele>370.73</ele>
        <time>2021-05-30T09:01:50Z</time>
      </trkpt>
      <trkpt lat="44.01456" lon="5.24988">
        <ele>372.17</ele>
        <time>2021-05-30T09:02:06Z</time>
      </trkpt>
      <trkpt lat="44.01448" lon="5.25006">
        <ele>373.13</ele>
        <time>2021-05-30T09:02:21Z</time>
      </trkpt>
      <trkpt lat="44.01444" lon="5.25023">
        <ele>374.09</ele>
        <time>2021-05-30T09:02:36Z</time>
      </trkpt>
      <trkpt lat="44.01444" lon="5.25031">
        <ele>374.57</ele>
        <time>2021-05-30T09:02:42Z</time>
      </trkpt>
      <trkpt lat="44.01439" lon="5.25048">
        <ele>375.53</ele>
        <time>2021-05-30T09:02:58Z</time>
      </trkpt>
      <trkpt lat="44.01432" lon="5.25063">
        <ele>376.01</ele>
        <time>2021-05-30T09:03:12Z</time>
      </trkpt>
      <trkpt lat="44.01424" lon="5.25082">
        <ele>376.97</ele>
        <time>2021-05-30T09:03:27Z</time>
      </trkpt>
      <trkpt lat="44.01413" lon="5.251">
        <ele>377.94</ele>
        <time>2021-05-30T09:03:44Z</time>
      </trkpt>
      <trkpt lat="44.01407" lon="5.2511">
        <ele>377.94</ele>
        <time>2021-05-30T09:03:56Z</time>
      </trkpt>
      <trkpt lat="44.01401" lon="5.25119">
        <ele>378.9</ele>
        <time>2021-05-30T09:04:05Z</time>
      </trkpt>
      <trkpt lat="44.01396" lon="5.25137">
        <ele>379.86</ele>
        <time>2021-05-30T09:04:19Z</time>
      </trkpt>
      <trkpt lat="44.0139" lon="5.25152">
        <ele>381.3</ele>
        <time>2021-05-30T09:04:35Z</time>
      </trkpt>
      <trkpt lat="44.01377" lon="5.25162">
        <ele>381.78</ele>
        <time>2021-05-30T09:04:51Z</time>
      </trkpt>
      <trkpt lat="44.01368" lon="5.25172">
        <ele>382.74</ele>
        <time>2021-05-30T09:05:05Z</time>
      </trkpt>
      <trkpt lat="44.01359" lon="5.25178">
        <ele>383.7</ele>
        <time>2021-05-30T09:05:20Z</time>
      </trkpt>
      <trkpt lat="44.01346" lon="5.25183">
        <ele>384.18</ele>
        <time>2021-05-30T09:05:33Z</time>
      </trkpt>
      <trkpt lat="44.01337" lon="5.25194">
        <ele>385.15</ele>
        <time>2021-05-30T09:05:47Z</time>
      </trkpt>
      <trkpt lat="44.01332" lon="5.25211">
        <ele>385.63</ele>
        <time>2021-05-30T09:06:01Z</time>
      </trkpt>
      <trkpt lat="44.01323" lon="5.25222">
        <ele>386.59</ele>
        <time>2021-05-30T09:06:15Z</time>
      </trkpt>
      <trkpt lat="44.01317" lon="5.25237">
        <ele>387.07</ele>
        <time>2021-05-30T09:06:29Z</time>
      </trkpt>
      <trkpt lat="44.01314" lon="5.25257">
        <ele>387.55</ele>
        <time>2021-05-30T09:06:44Z</time>
      </trkpt>
      <trkpt lat="44.01309" lon="5.25271">
        <ele>388.03</ele>
        <time>2021-05-30T09:06:56Z</time>
      </trkpt>
      <trkpt lat="44.01305" lon="5.25283">
        <ele>388.99</ele>
        <time>2021-05-30T09:07:12Z</time>
      </trkpt>
      <trkpt lat="44.01305" lon="5.25286">
        <ele>389.95</ele>
        <time>2021-05-30T09:07:14Z</time>
      </trkpt>
      <trkpt lat="44.01301" lon="5.25298">
        <ele>390.43</ele>
        <time>2021-05-30T09:07:27Z</time>
      </trkpt>
      <trkpt lat="44.01294" lon="5.25317">
        <ele>390.43</ele>
        <time>2021-05-30T09:07:45Z</time>
      </trkpt>
      <trkpt lat="44.01288" lon="5.25325">
        <ele>390.43</ele>
        <time>2021-05-30T09:07:57Z</time>
      </trkpt>
      <trkpt lat="44.01277" lon="5.25339">
        <ele>391.87</ele>
        <time>2021-05-30T09:08:13Z</time>
      </trkpt>
      <trkpt lat="44.01272" lon="5.25349">
        <ele>392.84</ele>
        <time>2021-05-30T09:08:24Z</time>
      </trkpt>
      <trkpt lat="44.01269" lon="5.25361">
        <ele>393.8</ele>
        <time>2021-05-30T09:08:36Z</time>
      </trkpt>
      <trkpt lat="44.01263" lon="5.25379">
        <ele>396.2</ele>
        <time>2021-05-30T09:08:51Z</time>
      </trkpt>
      <trkpt lat="44.01259" lon="5.25389">
        <ele>396.68</ele>
        <time>2021-05-30T09:09:01Z</time>
      </trkpt>
      <trkpt lat="44.01255" lon="5.254">
        <ele>397.16</ele>
        <time>2021-05-30T09:09:13Z</time>
      </trkpt>
      <trkpt lat="44.01258" lon="5.25411">
        <ele>397.64</ele>
        <time>2021-05-30T09:09:27Z</time>
      </trkpt>
      <trkpt lat="44.01251" lon="5.25424">
        <ele>397.64</ele>
        <time>2021-05-30T09:09:40Z</time>
      </trkpt>
      <trkpt lat="44.01247" lon="5.25438">
        <ele>398.6</ele>
        <time>2021-05-30T09:09:53Z</time>
      </trkpt>
      <trkpt lat="44.01248" lon="5.25452">
        <ele>399.57</ele>
        <time>2021-05-30T09:10:05Z</time>
      </trkpt>
      <trkpt lat="44.01247" lon="5.25463">
        <ele>400.53</ele>
        <time>2021-05-30T09:10:17Z</time>
      </trkpt>
      <trkpt lat="44.01239" lon="5.25465">
        <ele>402.45</ele>
        <time>2021-05-30T09:10:31Z</time>
      </trkpt>
      <trkpt lat="44.01233" lon="5.25461">
        <ele>403.41</ele>
        <time>2021-05-30T09:10:46Z</time>
      </trkpt>
      <trkpt lat="44.01224" lon="5.25452">
        <ele>403.89</ele>
        <time>2021-05-30T09:11:01Z</time>
      </trkpt>
      <trkpt lat="44.01208" lon="5.25446">
        <ele>404.85</ele>
        <time>2021-05-30T09:11:14Z</time>
      </trkpt>
      <trkpt lat="44.01191" lon="5.25444">
        <ele>406.29</ele>
        <time>2021-05-30T09:11:29Z</time>
      </trkpt>
      <trkpt lat="44.01177" lon="5.25444">
        <ele>406.29</ele>
        <time>2021-05-30T09:11:44Z</time>
      </trkpt>
      <trkpt lat="44.01171" lon="5.25444">
        <ele>407.26</ele>
        <time>2021-05-30T09:11:59Z</time>
      </trkpt>
      <trkpt lat="44.01171" lon="5.25443">
        <ele>407.26</ele>
        <time>2021-05-30T09:12:01Z</time>
      </trkpt>
      <trkpt lat="44.01165" lon="5.25444">
        <ele>409.18</ele>
        <time>2021-05-30T09:12:15Z</time>
      </trkpt>
      <trkpt lat="44.01157" lon="5.25437">
        <ele>409.66</ele>
        <time>2021-05-30T09:12:27Z</time>
      </trkpt>
      <trkpt lat="44.01148" lon="5.25428">
        <ele>410.14</ele>
        <time>2021-05-30T09:12:39Z</time>
      </trkpt>
      <trkpt lat="44.01138" lon="5.25417">
        <ele>411.1</ele>
        <time>2021-05-30T09:12:53Z</time>
      </trkpt>
      <trkpt lat="44.01134" lon="5.25413">
        <ele>411.1</ele>
        <time>2021-05-30T09:12:59Z</time>
      </trkpt>
      <trkpt lat="44.01131" lon="5.25412">
        <ele>411.58</ele>
        <time>2021-05-30T09:13:02Z</time>
      </trkpt>
      <trkpt lat="44.01118" lon="5.25404">
        <ele>412.06</ele>
        <time>2021-05-30T09:13:15Z</time>
      </trkpt>
      <trkpt lat="44.01112" lon="5.25391">
        <ele>412.54</ele>
        <time>2021-05-30T09:13:28Z</time>
      </trkpt>
      <trkpt lat="44.0111" lon="5.25384">
        <ele>413.02</ele>
        <time>2021-05-30T09:13:35Z</time>
      </trkpt>
      <trkpt lat="44.01101" lon="5.25371">
        <ele>413.5</ele>
        <time>2021-05-30T09:13:50Z</time>
      </trkpt>
      <trkpt lat="44.01094" lon="5.25357">
        <ele>413.98</ele>
        <time>2021-05-30T09:14:06Z</time>
      </trkpt>
      <trkpt lat="44.01091" lon="5.25343">
        <ele>414.47</ele>
        <time>2021-05-30T09:14:23Z</time>
      </trkpt>
      <trkpt lat="44.01075" lon="5.25334">
        <ele>414.47</ele>
        <time>2021-05-30T09:14:38Z</time>
      </trkpt>
      <trkpt lat="44.01065" lon="5.25327">
        <ele>415.91</ele>
        <time>2021-05-30T09:14:49Z</time>
      </trkpt>
      <trkpt lat="44.0105" lon="5.25324">
        <ele>416.87</ele>
        <time>2021-05-30T09:15:04Z</time>
      </trkpt>
      <trkpt lat="44.01035" lon="5.25324">
        <ele>417.35</ele>
        <time>2021-05-30T09:15:19Z</time>
      </trkpt>
      <trkpt lat="44.01023" lon="5.25326">
        <ele>418.31</ele>
        <time>2021-05-30T09:15:36Z</time>
      </trkpt>
      <trkpt lat="44.01012" lon="5.25326">
        <ele>418.79</ele>
        <time>2021-05-30T09:15:49Z</time>
      </trkpt>
      <trkpt lat="44.00999" lon="5.25326">
        <ele>419.75</ele>
        <time>2021-05-30T09:16:05Z</time>
      </trkpt>
      <trkpt lat="44.00998" lon="5.25334">
        <ele>420.71</ele>
        <time>2021-05-30T09:16:15Z</time>
      </trkpt>
      <trkpt lat="44.00992" lon="5.25353">
        <ele>422.16</ele>
        <time>2021-05-30T09:16:31Z</time>
      </trkpt>
      <trkpt lat="44.00979" lon="5.25364">
        <ele>423.12</ele>
        <time>2021-05-30T09:16:46Z</time>
      </trkpt>
      <trkpt lat="44.00966" lon="5.25372">
        <ele>424.08</ele>
        <time>2021-05-30T09:16:59Z</time>
      </trkpt>
      <trkpt lat="44.0096" lon="5.25381">
        <ele>424.56</ele>
        <time>2021-05-30T09:17:14Z</time>
      </trkpt>
      <trkpt lat="44.00957" lon="5.25383">
        <ele>425.04</ele>
        <time>2021-05-30T09:17:28Z</time>
      </trkpt>
      <trkpt lat="44.00953" lon="5.25379">
        <ele>425.04</ele>
        <time>2021-05-30T09:17:34Z</time>
      </trkpt>
      <trkpt lat="44.00937" lon="5.25372">
        <ele>425.52</ele>
        <time>2021-05-30T09:17:48Z</time>
      </trkpt>
      <trkpt lat="44.00921" lon="5.25366">
        <ele>427.44</ele>
        <time>2021-05-30T09:18:05Z</time>
      </trkpt>
      <trkpt lat="44.00909" lon="5.25365">
        <ele>428.89</ele>
        <time>2021-05-30T09:18:22Z</time>
      </trkpt>
      <trkpt lat="44.00911" lon="5.2539">
        <ele>429.37</ele>
        <time>2021-05-30T09:18:46Z</time>
      </trkpt>
      <trkpt lat="44.00909" lon="5.25391">
        <ele>429.37</ele>
        <time>2021-05-30T09:19:12Z</time>
      </trkpt>
      <trkpt lat="44.00908" lon="5.25402">
        <ele>429.85</ele>
        <time>2021-05-30T09:19:44Z</time>
      </trkpt>
      <trkpt lat="44.00905" lon="5.25403">
        <ele>429.85</ele>
        <time>2021-05-30T09:20:19Z</time>
      </trkpt>
      <trkpt lat="44.0089" lon="5.25393">
        <ele>429.85</ele>
        <time>2021-05-30T09:20:52Z</time>
      </trkpt>
      <trkpt lat="44.00889" lon="5.25386">
        <ele>431.29</ele>
        <time>2021-05-30T09:21:02Z</time>
      </trkpt>
      <trkpt lat="44.00895" lon="5.25385">
        <ele>432.25</ele>
        <time>2021-05-30T09:21:22Z</time>
      </trkpt>
      <trkpt lat="44.0089" lon="5.25385">
        <ele>432.25</ele>
        <time>2021-05-30T09:22:32Z</time>
      </trkpt>
      <trkpt lat="44.00898" lon="5.25372">
        <ele>430.81</ele>
        <time>2021-05-30T09:22:57Z</time>
      </trkpt>
      <trkpt lat="44.00892" lon="5.25374">
        <ele>430.33</ele>
        <time>2021-05-30T09:23:18Z</time>
      </trkpt>
      <trkpt lat="44.00897" lon="5.25369">
        <ele>430.33</ele>
        <time>2021-05-30T09:23:41Z</time>
      </trkpt>
      <trkpt lat="44.00901" lon="5.25355">
        <ele>430.33</ele>
        <time>2021-05-30T09:24:04Z</time>
      </trkpt>
      <trkpt lat="44.009" lon="5.25337">
        <ele>429.85</ele>
        <time>2021-05-30T09:24:29Z</time>
      </trkpt>
      <trkpt lat="44.00895" lon="5.25361">
        <ele>429.37</ele>
        <time>2021-05-30T09:24:43Z</time>
      </trkpt>
      <trkpt lat="44.00876" lon="5.25364">
        <ele>428.4</ele>
        <time>2021-05-30T09:25:09Z</time>
      </trkpt>
      <trkpt lat="44.00881" lon="5.25369">
        <ele>428.4</ele>
        <time>2021-05-30T09:25:30Z</time>
      </trkpt>
      <trkpt lat="44.00899" lon="5.25361">
        <ele>427.44</ele>
        <time>2021-05-30T09:25:37Z</time>
      </trkpt>
      <trkpt lat="44.00904" lon="5.25359">
        <ele>428.4</ele>
        <time>2021-05-30T09:25:40Z</time>
      </trkpt>
      <trkpt lat="44.00914" lon="5.25366">
        <ele>427.92</ele>
        <time>2021-05-30T09:26:02Z</time>
      </trkpt>
      <trkpt lat="44.00924" lon="5.25373">
        <ele>426.48</ele>
        <time>2021-05-30T09:26:14Z</time>
      </trkpt>
      <trkpt lat="44.00922" lon="5.25377">
        <ele>425.04</ele>
        <time>2021-05-30T09:26:34Z</time>
      </trkpt>
      <trkpt lat="44.00922" lon="5.25386">
        <ele>425.04</ele>
        <time>2021-05-30T09:26:43Z</time>
      </trkpt>
      <trkpt lat="44.00941" lon="5.25373">
        <ele>423.12</ele>
        <time>2021-05-30T09:26:57Z</time>
      </trkpt>
      <trkpt lat="44.00941" lon="5.25373">
        <ele>421.68</ele>
        <time>2021-05-30T09:27:09Z</time>
      </trkpt>
      <trkpt lat="44.00947" lon="5.25377">
        <ele>420.23</ele>
        <time>2021-05-30T09:27:24Z</time>
      </trkpt>
      <trkpt lat="44.00949" lon="5.2538">
        <ele>421.19</ele>
        <time>2021-05-30T09:27:30Z</time>
      </trkpt>
      <trkpt lat="44.00955" lon="5.25385">
        <ele>420.71</ele>
        <time>2021-05-30T09:27:41Z</time>
      </trkpt>
      <trkpt lat="44.00954" lon="5.2539">
        <ele>420.71</ele>
        <time>2021-05-30T09:27:54Z</time>
      </trkpt>
      <trkpt lat="44.00957" lon="5.25397">
        <ele>421.68</ele>
        <time>2021-05-30T09:28:04Z</time>
      </trkpt>
      <trkpt lat="44.00951" lon="5.25401">
        <ele>421.68</ele>
        <time>2021-05-30T09:28:16Z</time>
      </trkpt>
      <trkpt lat="44.00944" lon="5.25406">
        <ele>422.16</ele>
        <time>2021-05-30T09:28:29Z</time>
      </trkpt>
      <trkpt lat="44.00942" lon="5.25407">
        <ele>420.71</ele>
        <time>2021-05-30T09:28:33Z</time>
      </trkpt>
      <trkpt lat="44.00931" lon="5.25416">
        <ele>420.71</ele>
        <time>2021-05-30T09:28:48Z</time>
      </trkpt>
      <trkpt lat="44.0093" lon="5.25429">
        <ele>422.16</ele>
        <time>2021-05-30T09:29:04Z</time>
      </trkpt>
      <trkpt lat="44.0092" lon="5.25437">
        <ele>422.64</ele>
        <time>2021-05-30T09:29:20Z</time>
      </trkpt>
      <trkpt lat="44.00868" lon="5.25431">
        <ele>422.64</ele>
        <time>2021-05-30T09:29:45Z</time>
      </trkpt>
      <trkpt lat="44.00864" lon="5.25437">
        <ele>423.12</ele>
        <time>2021-05-30T09:29:59Z</time>
      </trkpt>
      <trkpt lat="44.00857" lon="5.25444">
        <ele>423.6</ele>
        <time>2021-05-30T09:30:11Z</time>
      </trkpt>
      <trkpt lat="44.00851" lon="5.25457">
        <ele>424.56</ele>
        <time>2021-05-30T09:30:24Z</time>
      </trkpt>
      <trkpt lat="44.00849" lon="5.25462">
        <ele>425.04</ele>
        <time>2021-05-30T09:30:28Z</time>
      </trkpt>
      <trkpt lat="44.00845" lon="5.25478">
        <ele>425.52</ele>
        <time>2021-05-30T09:30:38Z</time>
      </trkpt>
      <trkpt lat="44.00839" lon="5.25493">
        <ele>426</ele>
        <time>2021-05-30T09:30:51Z</time>
      </trkpt>
      <trkpt lat="44.00834" lon="5.25506">
        <ele>427.92</ele>
        <time>2021-05-30T09:31:04Z</time>
      </trkpt>
      <trkpt lat="44.00824" lon="5.25515">
        <ele>427.92</ele>
        <time>2021-05-30T09:31:15Z</time>
      </trkpt>
      <trkpt lat="44.00818" lon="5.2553">
        <ele>428.4</ele>
        <time>2021-05-30T09:31:28Z</time>
      </trkpt>
      <trkpt lat="44.00816" lon="5.25534">
        <ele>428.89</ele>
        <time>2021-05-30T09:31:44Z</time>
      </trkpt>
      <trkpt lat="44.00809" lon="5.25542">
        <ele>428.89</ele>
        <time>2021-05-30T09:31:55Z</time>
      </trkpt>
      <trkpt lat="44.00807" lon="5.25545">
        <ele>428.89</ele>
        <time>2021-05-30T09:31:57Z</time>
      </trkpt>
      <trkpt lat="44.00793" lon="5.25555">
        <ele>428.89</ele>
        <time>2021-05-30T09:32:11Z</time>
      </trkpt>
      <trkpt lat="44.00781" lon="5.25568">
        <ele>428.89</ele>
        <time>2021-05-30T09:32:24Z</time>
      </trkpt>
      <trkpt lat="44.00768" lon="5.25579">
        <ele>430.33</ele>
        <time>2021-05-30T09:32:38Z</time>
      </trkpt>
      <trkpt lat="44.00757" lon="5.2559">
        <ele>431.29</ele>
        <time>2021-05-30T09:32:51Z</time>
      </trkpt>
      <trkpt lat="44.00746" lon="5.25605">
        <ele>431.77</ele>
        <time>2021-05-30T09:33:04Z</time>
      </trkpt>
      <trkpt lat="44.00737" lon="5.25619">
        <ele>432.25</ele>
        <time>2021-05-30T09:33:18Z</time>
      </trkpt>
      <trkpt lat="44.00725" lon="5.25641">
        <ele>433.21</ele>
        <time>2021-05-30T09:33:34Z</time>
      </trkpt>
      <trkpt lat="44.00717" lon="5.25649">
        <ele>433.69</ele>
        <time>2021-05-30T09:33:58Z</time>
      </trkpt>
      <trkpt lat="44.00717" lon="5.25658">
        <ele>434.17</ele>
        <time>2021-05-30T09:34:11Z</time>
      </trkpt>
      <trkpt lat="44.00719" lon="5.25675">
        <ele>435.61</ele>
        <time>2021-05-30T09:34:26Z</time>
      </trkpt>
      <trkpt lat="44.00722" lon="5.25684">
        <ele>435.61</ele>
        <time>2021-05-30T09:34:32Z</time>
      </trkpt>
      <trkpt lat="44.00725" lon="5.25695">
        <ele>436.1</ele>
        <time>2021-05-30T09:34:39Z</time>
      </trkpt>
      <trkpt lat="44.00726" lon="5.25701">
        <ele>437.06</ele>
        <time>2021-05-30T09:34:42Z</time>
      </trkpt>
      <trkpt lat="44.00732" lon="5.2572">
        <ele>437.06</ele>
        <time>2021-05-30T09:34:55Z</time>
      </trkpt>
      <trkpt lat="44.00735" lon="5.25741">
        <ele>438.02</ele>
        <time>2021-05-30T09:35:10Z</time>
      </trkpt>
      <trkpt lat="44.00735" lon="5.25756">
        <ele>438.5</ele>
        <time>2021-05-30T09:35:24Z</time>
      </trkpt>
      <trkpt lat="44.00744" lon="5.25771">
        <ele>438.5</ele>
        <time>2021-05-30T09:35:36Z</time>
      </trkpt>
      <trkpt lat="44.00751" lon="5.25785">
        <ele>438.98</ele>
        <time>2021-05-30T09:35:49Z</time>
      </trkpt>
      <trkpt lat="44.00755" lon="5.25791">
        <ele>437.54</ele>
        <time>2021-05-30T09:35:59Z</time>
      </trkpt>
      <trkpt lat="44.00754" lon="5.25804">
        <ele>437.54</ele>
        <time>2021-05-30T09:36:11Z</time>
      </trkpt>
      <trkpt lat="44.00751" lon="5.25821">
        <ele>439.46</ele>
        <time>2021-05-30T09:36:25Z</time>
      </trkpt>
      <trkpt lat="44.00746" lon="5.25831">
        <ele>440.9</ele>
        <time>2021-05-30T09:36:33Z</time>
      </trkpt>
      <trkpt lat="44.00744" lon="5.25849">
        <ele>440.9</ele>
        <time>2021-05-30T09:36:43Z</time>
      </trkpt>
      <trkpt lat="44.00743" lon="5.25858">
        <ele>441.86</ele>
        <time>2021-05-30T09:36:52Z</time>
      </trkpt>
      <trkpt lat="44.0074" lon="5.25868">
        <ele>442.34</ele>
        <time>2021-05-30T09:37:04Z</time>
      </trkpt>
      <trkpt lat="44.00736" lon="5.25876">
        <ele>442.82</ele>
        <time>2021-05-30T09:37:25Z</time>
      </trkpt>
      <trkpt lat="44.0073" lon="5.25879">
        <ele>442.82</ele>
        <time>2021-05-30T09:37:48Z</time>
      </trkpt>
      <trkpt lat="44.00737" lon="5.25888">
        <ele>443.31</ele>
        <time>2021-05-30T09:37:58Z</time>
      </trkpt>
      <trkpt lat="44.00741" lon="5.25894">
        <ele>443.31</ele>
        <time>2021-05-30T09:38:05Z</time>
      </trkpt>
      <trkpt lat="44.00742" lon="5.25899">
        <ele>443.31</ele>
        <time>2021-05-30T09:38:08Z</time>
      </trkpt>
      <trkpt lat="44.0075" lon="5.25922">
        <ele>444.27</ele>
        <time>2021-05-30T09:38:24Z</time>
      </trkpt>
      <trkpt lat="44.00761" lon="5.25944">
        <ele>442.82</ele>
        <time>2021-05-30T09:38:40Z</time>
      </trkpt>
      <trkpt lat="44.00765" lon="5.25961">
        <ele>443.79</ele>
        <time>2021-05-30T09:38:53Z</time>
      </trkpt>
      <trkpt lat="44.00769" lon="5.25979">
        <ele>444.27</ele>
        <time>2021-05-30T09:39:06Z</time>
      </trkpt>
      <trkpt lat="44.00773" lon="5.25995">
        <ele>444.75</ele>
        <time>2021-05-30T09:39:19Z</time>
      </trkpt>
      <trkpt lat="44.00778" lon="5.26012">
        <ele>445.23</ele>
        <time>2021-05-30T09:39:34Z</time>
      </trkpt>
      <trkpt lat="44.00781" lon="5.26028">
        <ele>445.71</ele>
        <time>2021-05-30T09:39:51Z</time>
      </trkpt>
      <trkpt lat="44.00785" lon="5.26043">
        <ele>446.67</ele>
        <time>2021-05-30T09:40:05Z</time>
      </trkpt>
      <trkpt lat="44.00787" lon="5.26059">
        <ele>446.67</ele>
        <time>2021-05-30T09:40:19Z</time>
      </trkpt>
      <trkpt lat="44.0079" lon="5.26072">
        <ele>447.63</ele>
        <time>2021-05-30T09:40:32Z</time>
      </trkpt>
      <trkpt lat="44.00794" lon="5.26081">
        <ele>448.11</ele>
        <time>2021-05-30T09:40:43Z</time>
      </trkpt>
      <trkpt lat="44.00802" lon="5.26095">
        <ele>449.55</ele>
        <time>2021-05-30T09:40:59Z</time>
      </trkpt>
      <trkpt lat="44.00809" lon="5.26103">
        <ele>450.03</ele>
        <time>2021-05-30T09:41:07Z</time>
      </trkpt>
      <trkpt lat="44.00817" lon="5.2612">
        <ele>450.52</ele>
        <time>2021-05-30T09:41:22Z</time>
      </trkpt>
      <trkpt lat="44.00828" lon="5.26132">
        <ele>451.96</ele>
        <time>2021-05-30T09:41:39Z</time>
      </trkpt>
      <trkpt lat="44.00831" lon="5.26135">
        <ele>451.96</ele>
        <time>2021-05-30T09:41:43Z</time>
      </trkpt>
      <trkpt lat="44.00839" lon="5.26147">
        <ele>452.92</ele>
        <time>2021-05-30T09:41:59Z</time>
      </trkpt>
      <trkpt lat="44.00846" lon="5.26153">
        <ele>454.36</ele>
        <time>2021-05-30T09:42:12Z</time>
      </trkpt>
      <trkpt lat="44.00857" lon="5.26155">
        <ele>454.84</ele>
        <time>2021-05-30T09:42:27Z</time>
      </trkpt>
      <trkpt lat="44.00869" lon="5.26155">
        <ele>455.8</ele>
        <time>2021-05-30T09:42:42Z</time>
      </trkpt>
      <trkpt lat="44.00875" lon="5.26155">
        <ele>455.8</ele>
        <time>2021-05-30T09:42:49Z</time>
      </trkpt>
      <trkpt lat="44.00883" lon="5.26161">
        <ele>456.76</ele>
        <time>2021-05-30T09:43:02Z</time>
      </trkpt>
      <trkpt lat="44.00888" lon="5.26163">
        <ele>456.76</ele>
        <time>2021-05-30T09:43:09Z</time>
      </trkpt>
      <trkpt lat="44.009" lon="5.26164">
        <ele>458.69</ele>
        <time>2021-05-30T09:43:21Z</time>
      </trkpt>
      <trkpt lat="44.00906" lon="5.26173">
        <ele>459.65</ele>
        <time>2021-05-30T09:43:36Z</time>
      </trkpt>
      <trkpt lat="44.00918" lon="5.26179">
        <ele>460.61</ele>
        <time>2021-05-30T09:43:51Z</time>
      </trkpt>
      <trkpt lat="44.00932" lon="5.26169">
        <ele>461.09</ele>
        <time>2021-05-30T09:44:20Z</time>
      </trkpt>
      <trkpt lat="44.00935" lon="5.26187">
        <ele>461.09</ele>
        <time>2021-05-30T09:44:49Z</time>
      </trkpt>
      <trkpt lat="44.0094" lon="5.26195">
        <ele>461.57</ele>
        <time>2021-05-30T09:44:57Z</time>
      </trkpt>
      <trkpt lat="44.00946" lon="5.26203">
        <ele>462.05</ele>
        <time>2021-05-30T09:45:05Z</time>
      </trkpt>
      <trkpt lat="44.00956" lon="5.2621">
        <ele>463.01</ele>
        <time>2021-05-30T09:45:20Z</time>
      </trkpt>
      <trkpt lat="44.00958" lon="5.2621">
        <ele>463.01</ele>
        <time>2021-05-30T09:45:39Z</time>
      </trkpt>
      <trkpt lat="44.00956" lon="5.26216">
        <ele>462.53</ele>
        <time>2021-05-30T09:45:59Z</time>
      </trkpt>
      <trkpt lat="44.00962" lon="5.26227">
        <ele>463.49</ele>
        <time>2021-05-30T09:46:13Z</time>
      </trkpt>
      <trkpt lat="44.00974" lon="5.26232">
        <ele>463.49</ele>
        <time>2021-05-30T09:46:27Z</time>
      </trkpt>
      <trkpt lat="44.00983" lon="5.2624">
        <ele>463.49</ele>
        <time>2021-05-30T09:46:41Z</time>
      </trkpt>
      <trkpt lat="44.00991" lon="5.26245">
        <ele>463.97</ele>
        <time>2021-05-30T09:46:49Z</time>
      </trkpt>
      <trkpt lat="44.01003" lon="5.26254">
        <ele>464.45</ele>
        <time>2021-05-30T09:47:05Z</time>
      </trkpt>
      <trkpt lat="44.01014" lon="5.26256">
        <ele>464.93</ele>
        <time>2021-05-30T09:47:19Z</time>
      </trkpt>
      <trkpt lat="44.01024" lon="5.26262">
        <ele>465.42</ele>
        <time>2021-05-30T09:47:31Z</time>
      </trkpt>
      <trkpt lat="44.01036" lon="5.26269">
        <ele>466.86</ele>
        <time>2021-05-30T09:47:46Z</time>
      </trkpt>
      <trkpt lat="44.01044" lon="5.26274">
        <ele>467.34</ele>
        <time>2021-05-30T09:47:58Z</time>
      </trkpt>
      <trkpt lat="44.01056" lon="5.26275">
        <ele>468.3</ele>
        <time>2021-05-30T09:48:12Z</time>
      </trkpt>
      <trkpt lat="44.01062" lon="5.26281">
        <ele>468.3</ele>
        <time>2021-05-30T09:48:22Z</time>
      </trkpt>
      <trkpt lat="44.01073" lon="5.26296">
        <ele>468.78</ele>
        <time>2021-05-30T09:48:39Z</time>
      </trkpt>
      <trkpt lat="44.01085" lon="5.26305">
        <ele>469.74</ele>
        <time>2021-05-30T09:48:54Z</time>
      </trkpt>
      <trkpt lat="44.01097" lon="5.26314">
        <ele>470.7</ele>
        <time>2021-05-30T09:49:09Z</time>
      </trkpt>
      <trkpt lat="44.01108" lon="5.2632">
        <ele>471.18</ele>
        <time>2021-05-30T09:49:25Z</time>
      </trkpt>
      <trkpt lat="44.01117" lon="5.26325">
        <ele>472.14</ele>
        <time>2021-05-30T09:49:37Z</time>
      </trkpt>
      <trkpt lat="44.01122" lon="5.26336">
        <ele>472.63</ele>
        <time>2021-05-30T09:49:51Z</time>
      </trkpt>
      <trkpt lat="44.01129" lon="5.26351">
        <ele>474.07</ele>
        <time>2021-05-30T09:50:07Z</time>
      </trkpt>
      <trkpt lat="44.01133" lon="5.26355">
        <ele>475.03</ele>
        <time>2021-05-30T09:50:18Z</time>
      </trkpt>
      <trkpt lat="44.01135" lon="5.2636">
        <ele>475.03</ele>
        <time>2021-05-30T09:50:46Z</time>
      </trkpt>
      <trkpt lat="44.0114" lon="5.2636">
        <ele>475.51</ele>
        <time>2021-05-30T09:51:17Z</time>
      </trkpt>
      <trkpt lat="44.01138" lon="5.26362">
        <ele>475.51</ele>
        <time>2021-05-30T09:51:43Z</time>
      </trkpt>
      <trkpt lat="44.01132" lon="5.26367">
        <ele>476.47</ele>
        <time>2021-05-30T09:51:59Z</time>
      </trkpt>
      <trkpt lat="44.01126" lon="5.2638">
        <ele>476.95</ele>
        <time>2021-05-30T09:52:15Z</time>
      </trkpt>
      <trkpt lat="44.01124" lon="5.26401">
        <ele>477.43</ele>
        <time>2021-05-30T09:52:30Z</time>
      </trkpt>
      <trkpt lat="44.01124" lon="5.26418">
        <ele>478.39</ele>
        <time>2021-05-30T09:52:43Z</time>
      </trkpt>
      <trkpt lat="44.01128" lon="5.26434">
        <ele>478.87</ele>
        <time>2021-05-30T09:52:57Z</time>
      </trkpt>
      <trkpt lat="44.01131" lon="5.26449">
        <ele>479.35</ele>
        <time>2021-05-30T09:53:12Z</time>
      </trkpt>
      <trkpt lat="44.01132" lon="5.26463">
        <ele>480.32</ele>
        <time>2021-05-30T09:53:24Z</time>
      </trkpt>
      <trkpt lat="44.01134" lon="5.26482">
        <ele>480.32</ele>
        <time>2021-05-30T09:53:39Z</time>
      </trkpt>
      <trkpt lat="44.01141" lon="5.26498">
        <ele>480.8</ele>
        <time>2021-05-30T09:53:55Z</time>
      </trkpt>
      <trkpt lat="44.01142" lon="5.26513">
        <ele>480.8</ele>
        <time>2021-05-30T09:54:08Z</time>
      </trkpt>
      <trkpt lat="44.01147" lon="5.26529">
        <ele>481.28</ele>
        <time>2021-05-30T09:54:24Z</time>
      </trkpt>
      <trkpt lat="44.01149" lon="5.26545">
        <ele>481.76</ele>
        <time>2021-05-30T09:54:38Z</time>
      </trkpt>
      <trkpt lat="44.01156" lon="5.26563">
        <ele>482.24</ele>
        <time>2021-05-30T09:54:54Z</time>
      </trkpt>
      <trkpt lat="44.01161" lon="5.26575">
        <ele>483.2</ele>
        <time>2021-05-30T09:55:07Z</time>
      </trkpt>
      <trkpt lat="44.01165" lon="5.26587">
        <ele>483.68</ele>
        <time>2021-05-30T09:55:20Z</time>
      </trkpt>
      <trkpt lat="44.01171" lon="5.26589">
        <ele>483.68</ele>
        <time>2021-05-30T09:55:36Z</time>
      </trkpt>
      <trkpt lat="44.01172" lon="5.26591">
        <ele>483.2</ele>
        <time>2021-05-30T09:56:03Z</time>
      </trkpt>
      <trkpt lat="44.01172" lon="5.26608">
        <ele>483.68</ele>
        <time>2021-05-30T09:56:19Z</time>
      </trkpt>
      <trkpt lat="44.01175" lon="5.26627">
        <ele>484.16</ele>
        <time>2021-05-30T09:56:34Z</time>
      </trkpt>
      <trkpt lat="44.01182" lon="5.26641">
        <ele>485.12</ele>
        <time>2021-05-30T09:56:51Z</time>
      </trkpt>
      <trkpt lat="44.01179" lon="5.26648">
        <ele>485.12</ele>
        <time>2021-05-30T09:57:09Z</time>
      </trkpt>
      <trkpt lat="44.01178" lon="5.26657">
        <ele>485.12</ele>
        <time>2021-05-30T09:57:32Z</time>
      </trkpt>
      <trkpt lat="44.01177" lon="5.26659">
        <ele>483.68</ele>
        <time>2021-05-30T09:57:41Z</time>
      </trkpt>
      <trkpt lat="44.01177" lon="5.26665">
        <ele>484.64</ele>
        <time>2021-05-30T09:57:59Z</time>
      </trkpt>
      <trkpt lat="44.01173" lon="5.26676">
        <ele>485.6</ele>
        <time>2021-05-30T09:58:14Z</time>
      </trkpt>
      <trkpt lat="44.01165" lon="5.26686">
        <ele>486.56</ele>
        <time>2021-05-30T09:58:27Z</time>
      </trkpt>
      <trkpt lat="44.01158" lon="5.267">
        <ele>487.05</ele>
        <time>2021-05-30T09:58:41Z</time>
      </trkpt>
      <trkpt lat="44.01151" lon="5.2671">
        <ele>487.05</ele>
        <time>2021-05-30T09:58:53Z</time>
      </trkpt>
      <trkpt lat="44.01149" lon="5.26728">
        <ele>488.01</ele>
        <time>2021-05-30T09:59:08Z</time>
      </trkpt>
      <trkpt lat="44.01145" lon="5.2674">
        <ele>488.97</ele>
        <time>2021-05-30T09:59:23Z</time>
      </trkpt>
      <trkpt lat="44.0114" lon="5.26749">
        <ele>488.97</ele>
        <time>2021-05-30T09:59:37Z</time>
      </trkpt>
      <trkpt lat="44.01131" lon="5.26754">
        <ele>489.45</ele>
        <time>2021-05-30T09:59:50Z</time>
      </trkpt>
      <trkpt lat="44.01127" lon="5.26758">
        <ele>490.41</ele>
        <time>2021-05-30T10:00:05Z</time>
      </trkpt>
      <trkpt lat="44.01124" lon="5.26766">
        <ele>491.37</ele>
        <time>2021-05-30T10:00:18Z</time>
      </trkpt>
      <trkpt lat="44.01124" lon="5.26766">
        <ele>489.93</ele>
        <time>2021-05-30T10:00:21Z</time>
      </trkpt>
      <trkpt lat="44.01123" lon="5.26771">
        <ele>491.85</ele>
        <time>2021-05-30T10:00:30Z</time>
      </trkpt>
      <trkpt lat="44.01123" lon="5.26772">
        <ele>489.93</ele>
        <time>2021-05-30T10:00:32Z</time>
      </trkpt>
      <trkpt lat="44.0112" lon="5.26779">
        <ele>489.93</ele>
        <time>2021-05-30T10:00:53Z</time>
      </trkpt>
      <trkpt lat="44.01118" lon="5.26779">
        <ele>489.93</ele>
        <time>2021-05-30T10:01:09Z</time>
      </trkpt>
      <trkpt lat="44.01113" lon="5.26784">
        <ele>489.93</ele>
        <time>2021-05-30T10:01:23Z</time>
      </trkpt>
      <trkpt lat="44.01112" lon="5.2679">
        <ele>489.93</ele>
        <time>2021-05-30T10:01:40Z</time>
      </trkpt>
      <trkpt lat="44.01111" lon="5.26792">
        <ele>489.45</ele>
        <time>2021-05-30T10:02:06Z</time>
      </trkpt>
      <trkpt lat="44.011" lon="5.26796">
        <ele>490.89</ele>
        <time>2021-05-30T10:02:22Z</time>
      </trkpt>
      <trkpt lat="44.01093" lon="5.26807">
        <ele>491.85</ele>
        <time>2021-05-30T10:02:36Z</time>
      </trkpt>
      <trkpt lat="44.01089" lon="5.26817">
        <ele>491.85</ele>
        <time>2021-05-30T10:02:48Z</time>
      </trkpt>
      <trkpt lat="44.01091" lon="5.26835">
        <ele>492.33</ele>
        <time>2021-05-30T10:03:04Z</time>
      </trkpt>
      <trkpt lat="44.01091" lon="5.26842">
        <ele>492.33</ele>
        <time>2021-05-30T10:03:25Z</time>
      </trkpt>
      <trkpt lat="44.01093" lon="5.26861">
        <ele>493.29</ele>
        <time>2021-05-30T10:03:44Z</time>
      </trkpt>
      <trkpt lat="44.01099" lon="5.26876">
        <ele>493.77</ele>
        <time>2021-05-30T10:03:59Z</time>
      </trkpt>
      <trkpt lat="44.011" lon="5.26894">
        <ele>494.74</ele>
        <time>2021-05-30T10:04:19Z</time>
      </trkpt>
      <trkpt lat="44.01102" lon="5.26903">
        <ele>497.62</ele>
        <time>2021-05-30T10:04:38Z</time>
      </trkpt>
      <trkpt lat="44.01103" lon="5.26909">
        <ele>500.02</ele>
        <time>2021-05-30T10:04:55Z</time>
      </trkpt>
      <trkpt lat="44.01099" lon="5.26919">
        <ele>500.98</ele>
        <time>2021-05-30T10:05:13Z</time>
      </trkpt>
      <trkpt lat="44.01095" lon="5.26925">
        <ele>501.95</ele>
        <time>2021-05-30T10:05:36Z</time>
      </trkpt>
      <trkpt lat="44.0108" lon="5.26922">
        <ele>502.91</ele>
        <time>2021-05-30T10:05:54Z</time>
      </trkpt>
      <trkpt lat="44.01084" lon="5.2695">
        <ele>503.39</ele>
        <time>2021-05-30T10:06:14Z</time>
      </trkpt>
      <trkpt lat="44.01082" lon="5.26956">
        <ele>503.39</ele>
        <time>2021-05-30T10:06:30Z</time>
      </trkpt>
      <trkpt lat="44.0108" lon="5.26961">
        <ele>500.98</ele>
        <time>2021-05-30T10:06:42Z</time>
      </trkpt>
      <trkpt lat="44.01077" lon="5.26977">
        <ele>498.1</ele>
        <time>2021-05-30T10:06:58Z</time>
      </trkpt>
      <trkpt lat="44.01079" lon="5.26984">
        <ele>497.14</ele>
        <time>2021-05-30T10:07:05Z</time>
      </trkpt>
      <trkpt lat="44.01084" lon="5.26988">
        <ele>495.7</ele>
        <time>2021-05-30T10:07:23Z</time>
      </trkpt>
      <trkpt lat="44.01084" lon="5.26985">
        <ele>491.85</ele>
        <time>2021-05-30T10:07:47Z</time>
      </trkpt>
      <trkpt lat="44.01084" lon="5.26985">
        <ele>495.7</ele>
        <time>2021-05-30T10:07:48Z</time>
      </trkpt>
      <trkpt lat="44.01082" lon="5.26972">
        <ele>494.74</ele>
        <time>2021-05-30T10:08:14Z</time>
      </trkpt>
      <trkpt lat="44.01078" lon="5.26977">
        <ele>494.26</ele>
        <time>2021-05-30T10:08:50Z</time>
      </trkpt>
      <trkpt lat="44.01084" lon="5.26979">
        <ele>494.26</ele>
        <time>2021-05-30T10:09:24Z</time>
      </trkpt>
      <trkpt lat="44.01078" lon="5.26979">
        <ele>493.77</ele>
        <time>2021-05-30T10:09:55Z</time>
      </trkpt>
      <trkpt lat="44.01073" lon="5.26986">
        <ele>493.77</ele>
        <time>2021-05-30T10:10:30Z</time>
      </trkpt>
      <trkpt lat="44.01072" lon="5.26987">
        <ele>495.22</ele>
        <time>2021-05-30T10:10:45Z</time>
      </trkpt>
      <trkpt lat="44.01073" lon="5.26989">
        <ele>495.22</ele>
        <time>2021-05-30T10:10:55Z</time>
      </trkpt>
      <trkpt lat="44.01073" lon="5.27008">
        <ele>497.14</ele>
        <time>2021-05-30T10:11:10Z</time>
      </trkpt>
      <trkpt lat="44.01087" lon="5.27007">
        <ele>498.58</ele>
        <time>2021-05-30T10:11:24Z</time>
      </trkpt>
      <trkpt lat="44.01099" lon="5.27005">
        <ele>499.06</ele>
        <time>2021-05-30T10:11:45Z</time>
      </trkpt>
      <trkpt lat="44.01107" lon="5.27001">
        <ele>499.06</ele>
        <time>2021-05-30T10:12:06Z</time>
      </trkpt>
      <trkpt lat="44.01101" lon="5.27011">
        <ele>499.54</ele>
        <time>2021-05-30T10:12:27Z</time>
      </trkpt>
      <trkpt lat="44.01098" lon="5.2702">
        <ele>500.5</ele>
        <time>2021-05-30T10:12:47Z</time>
      </trkpt>
      <trkpt lat="44.01099" lon="5.27025">
        <ele>501.46</ele>
        <time>2021-05-30T10:13:02Z</time>
      </trkpt>
      <trkpt lat="44.011" lon="5.27035">
        <ele>501.95</ele>
        <time>2021-05-30T10:13:16Z</time>
      </trkpt>
      <trkpt lat="44.01104" lon="5.27036">
        <ele>502.43</ele>
        <time>2021-05-30T10:13:40Z</time>
      </trkpt>
      <trkpt lat="44.01105" lon="5.27036">
        <ele>500.98</ele>
        <time>2021-05-30T10:13:53Z</time>
      </trkpt>
      <trkpt lat="44.01105" lon="5.27036">
        <ele>502.91</ele>
        <time>2021-05-30T10:13:55Z</time>
      </trkpt>
      <trkpt lat="44.01103" lon="5.27038">
        <ele>500.98</ele>
        <time>2021-05-30T10:13:58Z</time>
      </trkpt>
      <trkpt lat="44.01102" lon="5.2704">
        <ele>502.43</ele>
        <time>2021-05-30T10:14:01Z</time>
      </trkpt>
      <trkpt lat="44.01104" lon="5.27041">
        <ele>502.43</ele>
        <time>2021-05-30T10:14:25Z</time>
      </trkpt>
      <trkpt lat="44.01107" lon="5.27045">
        <ele>500.98</ele>
        <time>2021-05-30T10:14:42Z</time>
      </trkpt>
      <trkpt lat="44.01107" lon="5.27045">
        <ele>502.43</ele>
        <time>2021-05-30T10:14:44Z</time>
      </trkpt>
      <trkpt lat="44.01104" lon="5.27051">
        <ele>504.35</ele>
        <time>2021-05-30T10:15:04Z</time>
      </trkpt>
      <trkpt lat="44.01102" lon="5.27045">
        <ele>504.83</ele>
        <time>2021-05-30T10:15:22Z</time>
      </trkpt>
      <trkpt lat="44.01104" lon="5.27046">
        <ele>503.87</ele>
        <time>2021-05-30T10:15:27Z</time>
      </trkpt>
      <trkpt lat="44.01104" lon="5.27046">
        <ele>504.83</ele>
        <time>2021-05-30T10:15:29Z</time>
      </trkpt>
      <trkpt lat="44.01101" lon="5.27046">
        <ele>504.83</ele>
        <time>2021-05-30T10:15:46Z</time>
      </trkpt>
      <trkpt lat="44.011" lon="5.27048">
        <ele>505.31</ele>
        <time>2021-05-30T10:16:05Z</time>
      </trkpt>
      <trkpt lat="44.01097" lon="5.27044">
        <ele>505.31</ele>
        <time>2021-05-30T10:16:23Z</time>
      </trkpt>
      <trkpt lat="44.01102" lon="5.27041">
        <ele>505.31</ele>
        <time>2021-05-30T10:16:50Z</time>
      </trkpt>
      <trkpt lat="44.01099" lon="5.27044">
        <ele>505.31</ele>
        <time>2021-05-30T10:17:09Z</time>
      </trkpt>
      <trkpt lat="44.01095" lon="5.27053">
        <ele>505.31</ele>
        <time>2021-05-30T10:17:19Z</time>
      </trkpt>
      <trkpt lat="44.01096" lon="5.27071">
        <ele>505.79</ele>
        <time>2021-05-30T10:17:32Z</time>
      </trkpt>
      <trkpt lat="44.01095" lon="5.27079">
        <ele>507.23</ele>
        <time>2021-05-30T10:17:44Z</time>
      </trkpt>
      <trkpt lat="44.01097" lon="5.27088">
        <ele>507.71</ele>
        <time>2021-05-30T10:18:04Z</time>
      </trkpt>
      <trkpt lat="44.01101" lon="5.27096">
        <ele>509.16</ele>
        <time>2021-05-30T10:18:20Z</time>
      </trkpt>
      <trkpt lat="44.01104" lon="5.27108">
        <ele>510.12</ele>
        <time>2021-05-30T10:18:33Z</time>
      </trkpt>
      <trkpt lat="44.01106" lon="5.2712">
        <ele>511.08</ele>
        <time>2021-05-30T10:18:47Z</time>
      </trkpt>
      <trkpt lat="44.01107" lon="5.2713">
        <ele>511.56</ele>
        <time>2021-05-30T10:18:58Z</time>
      </trkpt>
      <trkpt lat="44.01104" lon="5.27143">
        <ele>512.04</ele>
        <time>2021-05-30T10:19:11Z</time>
      </trkpt>
      <trkpt lat="44.01106" lon="5.27154">
        <ele>512.52</ele>
        <time>2021-05-30T10:19:24Z</time>
      </trkpt>
      <trkpt lat="44.01105" lon="5.27173">
        <ele>513.96</ele>
        <time>2021-05-30T10:19:38Z</time>
      </trkpt>
      <trkpt lat="44.01101" lon="5.27178">
        <ele>514.92</ele>
        <time>2021-05-30T10:19:54Z</time>
      </trkpt>
      <trkpt lat="44.01098" lon="5.27188">
        <ele>515.88</ele>
        <time>2021-05-30T10:20:10Z</time>
      </trkpt>
      <trkpt lat="44.01094" lon="5.27194">
        <ele>516.37</ele>
        <time>2021-05-30T10:20:24Z</time>
      </trkpt>
      <trkpt lat="44.01089" lon="5.27209">
        <ele>517.33</ele>
        <time>2021-05-30T10:20:44Z</time>
      </trkpt>
      <trkpt lat="44.01089" lon="5.2721">
        <ele>517.33</ele>
        <time>2021-05-30T10:21:05Z</time>
      </trkpt>
      <trkpt lat="44.01085" lon="5.27205">
        <ele>517.81</ele>
        <time>2021-05-30T10:21:32Z</time>
      </trkpt>
      <trkpt lat="44.01081" lon="5.2721">
        <ele>518.29</ele>
        <time>2021-05-30T10:21:57Z</time>
      </trkpt>
      <trkpt lat="44.01073" lon="5.27215">
        <ele>518.29</ele>
        <time>2021-05-30T10:22:23Z</time>
      </trkpt>
      <trkpt lat="44.01068" lon="5.27224">
        <ele>518.29</ele>
        <time>2021-05-30T10:22:45Z</time>
      </trkpt>
      <trkpt lat="44.01059" lon="5.27239">
        <ele>518.29</ele>
        <time>2021-05-30T10:23:12Z</time>
      </trkpt>
      <trkpt lat="44.01075" lon="5.27225">
        <ele>518.77</ele>
        <time>2021-05-30T10:23:32Z</time>
      </trkpt>
      <trkpt lat="44.01081" lon="5.27217">
        <ele>517.33</ele>
        <time>2021-05-30T10:23:53Z</time>
      </trkpt>
      <trkpt lat="44.01081" lon="5.27219">
        <ele>517.33</ele>
        <time>2021-05-30T10:23:55Z</time>
      </trkpt>
      <trkpt lat="44.01079" lon="5.27221">
        <ele>519.25</ele>
        <time>2021-05-30T10:23:57Z</time>
      </trkpt>
      <trkpt lat="44.01075" lon="5.27231">
        <ele>519.73</ele>
        <time>2021-05-30T10:24:05Z</time>
      </trkpt>
      <trkpt lat="44.01081" lon="5.27224">
        <ele>519.73</ele>
        <time>2021-05-30T10:24:30Z</time>
      </trkpt>
      <trkpt lat="44.01086" lon="5.27208">
        <ele>519.73</ele>
        <time>2021-05-30T10:24:57Z</time>
      </trkpt>
      <trkpt lat="44.01088" lon="5.27216">
        <ele>519.25</ele>
        <time>2021-05-30T10:25:16Z</time>
      </trkpt>
      <trkpt lat="44.01087" lon="5.27226">
        <ele>519.25</ele>
        <time>2021-05-30T10:25:45Z</time>
      </trkpt>
      <trkpt lat="44.01084" lon="5.2723">
        <ele>519.25</ele>
        <time>2021-05-30T10:26:12Z</time>
      </trkpt>
      <trkpt lat="44.01087" lon="5.27226">
        <ele>519.25</ele>
        <time>2021-05-30T10:26:39Z</time>
      </trkpt>
      <trkpt lat="44.01091" lon="5.27214">
        <ele>520.69</ele>
        <time>2021-05-30T10:27:07Z</time>
      </trkpt>
      <trkpt lat="44.01094" lon="5.27208">
        <ele>520.69</ele>
        <time>2021-05-30T10:27:33Z</time>
      </trkpt>
      <trkpt lat="44.01087" lon="5.27224">
        <ele>520.69</ele>
        <time>2021-05-30T10:28:00Z</time>
      </trkpt>
      <trkpt lat="44.0109" lon="5.27216">
        <ele>520.69</ele>
        <time>2021-05-30T10:28:33Z</time>
      </trkpt>
      <trkpt lat="44.01086" lon="5.27231">
        <ele>521.65</ele>
        <time>2021-05-30T10:28:57Z</time>
      </trkpt>
      <trkpt lat="44.0109" lon="5.27224">
        <ele>521.65</ele>
        <time>2021-05-30T10:29:20Z</time>
      </trkpt>
      <trkpt lat="44.01092" lon="5.27223">
        <ele>522.13</ele>
        <time>2021-05-30T10:29:41Z</time>
      </trkpt>
      <trkpt lat="44.01094" lon="5.27227">
        <ele>522.61</ele>
        <time>2021-05-30T10:30:05Z</time>
      </trkpt>
      <trkpt lat="44.01087" lon="5.27237">
        <ele>523.09</ele>
        <time>2021-05-30T10:30:26Z</time>
      </trkpt>
      <trkpt lat="44.01086" lon="5.27242">
        <ele>524.06</ele>
        <time>2021-05-30T10:30:40Z</time>
      </trkpt>
      <trkpt lat="44.01086" lon="5.27243">
        <ele>524.06</ele>
        <time>2021-05-30T10:30:41Z</time>
      </trkpt>
      <trkpt lat="44.0108" lon="5.27248">
        <ele>525.5</ele>
        <time>2021-05-30T10:30:55Z</time>
      </trkpt>
      <trkpt lat="44.01074" lon="5.27256">
        <ele>524.54</ele>
        <time>2021-05-30T10:31:07Z</time>
      </trkpt>
      <trkpt lat="44.01071" lon="5.27261">
        <ele>526.46</ele>
        <time>2021-05-30T10:31:13Z</time>
      </trkpt>
      <trkpt lat="44.01064" lon="5.2727">
        <ele>526.94</ele>
        <time>2021-05-30T10:31:28Z</time>
      </trkpt>
      <trkpt lat="44.01058" lon="5.27275">
        <ele>527.42</ele>
        <time>2021-05-30T10:31:42Z</time>
      </trkpt>
      <trkpt lat="44.01054" lon="5.27279">
        <ele>527.42</ele>
        <time>2021-05-30T10:31:52Z</time>
      </trkpt>
      <trkpt lat="44.01052" lon="5.27283">
        <ele>528.86</ele>
        <time>2021-05-30T10:32:01Z</time>
      </trkpt>
      <trkpt lat="44.01052" lon="5.27298">
        <ele>530.3</ele>
        <time>2021-05-30T10:32:18Z</time>
      </trkpt>
      <trkpt lat="44.0105" lon="5.27306">
        <ele>530.79</ele>
        <time>2021-05-30T10:32:32Z</time>
      </trkpt>
      <trkpt lat="44.01053" lon="5.27314">
        <ele>531.75</ele>
        <time>2021-05-30T10:32:50Z</time>
      </trkpt>
      <trkpt lat="44.01049" lon="5.27314">
        <ele>531.27</ele>
        <time>2021-05-30T10:33:09Z</time>
      </trkpt>
      <trkpt lat="44.01052" lon="5.27318">
        <ele>534.63</ele>
        <time>2021-05-30T10:33:25Z</time>
      </trkpt>
      <trkpt lat="44.01053" lon="5.27323">
        <ele>535.11</ele>
        <time>2021-05-30T10:33:43Z</time>
      </trkpt>
      <trkpt lat="44.01055" lon="5.27325">
        <ele>534.15</ele>
        <time>2021-05-30T10:34:04Z</time>
      </trkpt>
      <trkpt lat="44.01057" lon="5.27325">
        <ele>534.63</ele>
        <time>2021-05-30T10:34:40Z</time>
      </trkpt>
      <trkpt lat="44.01057" lon="5.27324">
        <ele>536.07</ele>
        <time>2021-05-30T10:34:52Z</time>
      </trkpt>
      <trkpt lat="44.01056" lon="5.27324">
        <ele>534.63</ele>
        <time>2021-05-30T10:34:55Z</time>
      </trkpt>
      <trkpt lat="44.01056" lon="5.27322">
        <ele>536.07</ele>
        <time>2021-05-30T10:35:17Z</time>
      </trkpt>
      <trkpt lat="44.01055" lon="5.27326">
        <ele>536.55</ele>
        <time>2021-05-30T10:35:48Z</time>
      </trkpt>
      <trkpt lat="44.01055" lon="5.27332">
        <ele>537.03</ele>
        <time>2021-05-30T10:36:17Z</time>
      </trkpt>
      <trkpt lat="44.01056" lon="5.27332">
        <ele>537.51</ele>
        <time>2021-05-30T10:36:54Z</time>
      </trkpt>
      <trkpt lat="44.01048" lon="5.27328">
        <ele>537.99</ele>
        <time>2021-05-30T10:37:18Z</time>
      </trkpt>
      <trkpt lat="44.01048" lon="5.27337">
        <ele>537.51</ele>
        <time>2021-05-30T10:37:29Z</time>
      </trkpt>
      <trkpt lat="44.01046" lon="5.27343">
        <ele>538.96</ele>
        <time>2021-05-30T10:37:42Z</time>
      </trkpt>
      <trkpt lat="44.01046" lon="5.27352">
        <ele>538.96</ele>
        <time>2021-05-30T10:37:56Z</time>
      </trkpt>
      <trkpt lat="44.01049" lon="5.27361">
        <ele>539.44</ele>
        <time>2021-05-30T10:38:14Z</time>
      </trkpt>
      <trkpt lat="44.01052" lon="5.2737">
        <ele>540.4</ele>
        <time>2021-05-30T10:38:30Z</time>
      </trkpt>
      <trkpt lat="44.01054" lon="5.27385">
        <ele>541.36</ele>
        <time>2021-05-30T10:38:47Z</time>
      </trkpt>
      <trkpt lat="44.01054" lon="5.27396">
        <ele>542.32</ele>
        <time>2021-05-30T10:39:04Z</time>
      </trkpt>
      <trkpt lat="44.01059" lon="5.27404">
        <ele>543.76</ele>
        <time>2021-05-30T10:39:17Z</time>
      </trkpt>
      <trkpt lat="44.01062" lon="5.2741">
        <ele>544.24</ele>
        <time>2021-05-30T10:39:28Z</time>
      </trkpt>
      <trkpt lat="44.01063" lon="5.27417">
        <ele>545.2</ele>
        <time>2021-05-30T10:39:42Z</time>
      </trkpt>
      <trkpt lat="44.01062" lon="5.27427">
        <ele>545.69</ele>
        <time>2021-05-30T10:39:57Z</time>
      </trkpt>
      <trkpt lat="44.01064" lon="5.27435">
        <ele>545.69</ele>
        <time>2021-05-30T10:40:16Z</time>
      </trkpt>
      <trkpt lat="44.01062" lon="5.27439">
        <ele>548.09</ele>
        <time>2021-05-30T10:40:20Z</time>
      </trkpt>
      <trkpt lat="44.01058" lon="5.27447">
        <ele>548.57</ele>
        <time>2021-05-30T10:40:36Z</time>
      </trkpt>
      <trkpt lat="44.01054" lon="5.27458">
        <ele>547.61</ele>
        <time>2021-05-30T10:40:48Z</time>
      </trkpt>
      <trkpt lat="44.01053" lon="5.2746">
        <ele>549.05</ele>
        <time>2021-05-30T10:40:50Z</time>
      </trkpt>
      <trkpt lat="44.01052" lon="5.27461">
        <ele>547.61</ele>
        <time>2021-05-30T10:40:52Z</time>
      </trkpt>
      <trkpt lat="44.0105" lon="5.27462">
        <ele>549.05</ele>
        <time>2021-05-30T10:40:54Z</time>
      </trkpt>
      <trkpt lat="44.0104" lon="5.27469">
        <ele>549.05</ele>
        <time>2021-05-30T10:41:09Z</time>
      </trkpt>
      <trkpt lat="44.01032" lon="5.27478">
        <ele>550.01</ele>
        <time>2021-05-30T10:41:23Z</time>
      </trkpt>
      <trkpt lat="44.01028" lon="5.27489">
        <ele>550.49</ele>
        <time>2021-05-30T10:41:35Z</time>
      </trkpt>
      <trkpt lat="44.01026" lon="5.27498">
        <ele>549.05</ele>
        <time>2021-05-30T10:41:47Z</time>
      </trkpt>
      <trkpt lat="44.01026" lon="5.27508">
        <ele>550.97</ele>
        <time>2021-05-30T10:41:59Z</time>
      </trkpt>
      <trkpt lat="44.01031" lon="5.27516">
        <ele>551.45</ele>
        <time>2021-05-30T10:42:12Z</time>
      </trkpt>
      <trkpt lat="44.01032" lon="5.27521">
        <ele>552.41</ele>
        <time>2021-05-30T10:42:31Z</time>
      </trkpt>
      <trkpt lat="44.01038" lon="5.2753">
        <ele>552.41</ele>
        <time>2021-05-30T10:42:47Z</time>
      </trkpt>
      <trkpt lat="44.01044" lon="5.2754">
        <ele>553.38</ele>
        <time>2021-05-30T10:43:02Z</time>
      </trkpt>
      <trkpt lat="44.01046" lon="5.27544">
        <ele>553.38</ele>
        <time>2021-05-30T10:43:20Z</time>
      </trkpt>
      <trkpt lat="44.01047" lon="5.27548">
        <ele>553.38</ele>
        <time>2021-05-30T10:43:31Z</time>
      </trkpt>
      <trkpt lat="44.01051" lon="5.27551">
        <ele>553.86</ele>
        <time>2021-05-30T10:43:50Z</time>
      </trkpt>
      <trkpt lat="44.01049" lon="5.27554">
        <ele>553.86</ele>
        <time>2021-05-30T10:44:02Z</time>
      </trkpt>
      <trkpt lat="44.0105" lon="5.27558">
        <ele>554.34</ele>
        <time>2021-05-30T10:44:08Z</time>
      </trkpt>
      <trkpt lat="44.01053" lon="5.27568">
        <ele>554.34</ele>
        <time>2021-05-30T10:44:19Z</time>
      </trkpt>
      <trkpt lat="44.01056" lon="5.27574">
        <ele>554.34</ele>
        <time>2021-05-30T10:44:31Z</time>
      </trkpt>
      <trkpt lat="44.01058" lon="5.27574">
        <ele>554.34</ele>
        <time>2021-05-30T10:44:44Z</time>
      </trkpt>
      <trkpt lat="44.01055" lon="5.2757">
        <ele>554.34</ele>
        <time>2021-05-30T10:44:54Z</time>
      </trkpt>
      <trkpt lat="44.01054" lon="5.27572">
        <ele>554.34</ele>
        <time>2021-05-30T10:44:56Z</time>
      </trkpt>
      <trkpt lat="44.0105" lon="5.27578">
        <ele>555.78</ele>
        <time>2021-05-30T10:45:07Z</time>
      </trkpt>
      <trkpt lat="44.01051" lon="5.27595">
        <ele>556.26</ele>
        <time>2021-05-30T10:45:22Z</time>
      </trkpt>
      <trkpt lat="44.01052" lon="5.27595">
        <ele>554.34</ele>
        <time>2021-05-30T10:45:24Z</time>
      </trkpt>
      <trkpt lat="44.01056" lon="5.27602">
        <ele>555.3</ele>
        <time>2021-05-30T10:45:34Z</time>
      </trkpt>
      <trkpt lat="44.01054" lon="5.27609">
        <ele>555.3</ele>
        <time>2021-05-30T10:45:47Z</time>
      </trkpt>
      <trkpt lat="44.01055" lon="5.2761">
        <ele>553.38</ele>
        <time>2021-05-30T10:45:51Z</time>
      </trkpt>
      <trkpt lat="44.01055" lon="5.27614">
        <ele>556.26</ele>
        <time>2021-05-30T10:45:58Z</time>
      </trkpt>
      <trkpt lat="44.01055" lon="5.27614">
        <ele>556.26</ele>
        <time>2021-05-30T10:45:59Z</time>
      </trkpt>
      <trkpt lat="44.01055" lon="5.27616">
        <ele>554.82</ele>
        <time>2021-05-30T10:46:02Z</time>
      </trkpt>
      <trkpt lat="44.01052" lon="5.27617">
        <ele>556.74</ele>
        <time>2021-05-30T10:46:16Z</time>
      </trkpt>
      <trkpt lat="44.01051" lon="5.27618">
        <ele>555.3</ele>
        <time>2021-05-30T10:46:18Z</time>
      </trkpt>
      <trkpt lat="44.01048" lon="5.27624">
        <ele>554.82</ele>
        <time>2021-05-30T10:46:31Z</time>
      </trkpt>
      <trkpt lat="44.01045" lon="5.27632">
        <ele>556.26</ele>
        <time>2021-05-30T10:46:42Z</time>
      </trkpt>
      <trkpt lat="44.01043" lon="5.2764">
        <ele>556.26</ele>
        <time>2021-05-30T10:46:55Z</time>
      </trkpt>
      <trkpt lat="44.01043" lon="5.27653">
        <ele>556.26</ele>
        <time>2021-05-30T10:47:09Z</time>
      </trkpt>
      <trkpt lat="44.01044" lon="5.27665">
        <ele>557.22</ele>
        <time>2021-05-30T10:47:22Z</time>
      </trkpt>
      <trkpt lat="44.01048" lon="5.27668">
        <ele>557.7</ele>
        <time>2021-05-30T10:47:35Z</time>
      </trkpt>
      <trkpt lat="44.01049" lon="5.27669">
        <ele>557.7</ele>
        <time>2021-05-30T10:47:42Z</time>
      </trkpt>
      <trkpt lat="44.0105" lon="5.27673">
        <ele>556.74</ele>
        <time>2021-05-30T10:47:51Z</time>
      </trkpt>
      <trkpt lat="44.0105" lon="5.27673">
        <ele>559.62</ele>
        <time>2021-05-30T10:48:01Z</time>
      </trkpt>
      <trkpt lat="44.01052" lon="5.27673">
        <ele>559.14</ele>
        <time>2021-05-30T10:48:07Z</time>
      </trkpt>
      <trkpt lat="44.01054" lon="5.27674">
        <ele>559.14</ele>
        <time>2021-05-30T10:48:26Z</time>
      </trkpt>
      <trkpt lat="44.01061" lon="5.27679">
        <ele>560.59</ele>
        <time>2021-05-30T10:48:37Z</time>
      </trkpt>
      <trkpt lat="44.01067" lon="5.27685">
        <ele>561.07</ele>
        <time>2021-05-30T10:48:49Z</time>
      </trkpt>
      <trkpt lat="44.01072" lon="5.27694">
        <ele>560.11</ele>
        <time>2021-05-30T10:49:01Z</time>
      </trkpt>
      <trkpt lat="44.01076" lon="5.27703">
        <ele>560.11</ele>
        <time>2021-05-30T10:49:14Z</time>
      </trkpt>
      <trkpt lat="44.01081" lon="5.27712">
        <ele>561.07</ele>
        <time>2021-05-30T10:49:30Z</time>
      </trkpt>
      <trkpt lat="44.01081" lon="5.27716">
        <ele>561.07</ele>
        <time>2021-05-30T10:49:58Z</time>
      </trkpt>
      <trkpt lat="44.01083" lon="5.27717">
        <ele>562.51</ele>
        <time>2021-05-30T10:50:12Z</time>
      </trkpt>
      <trkpt lat="44.01084" lon="5.27722">
        <ele>562.51</ele>
        <time>2021-05-30T10:50:23Z</time>
      </trkpt>
      <trkpt lat="44.01085" lon="5.27737">
        <ele>562.03</ele>
        <time>2021-05-30T10:50:37Z</time>
      </trkpt>
      <trkpt lat="44.01083" lon="5.27748">
        <ele>562.03</ele>
        <time>2021-05-30T10:50:50Z</time>
      </trkpt>
      <trkpt lat="44.01083" lon="5.27762">
        <ele>562.03</ele>
        <time>2021-05-30T10:51:06Z</time>
      </trkpt>
      <trkpt lat="44.01083" lon="5.27765">
        <ele>563.47</ele>
        <time>2021-05-30T10:51:08Z</time>
      </trkpt>
      <trkpt lat="44.01084" lon="5.27779">
        <ele>564.91</ele>
        <time>2021-05-30T10:51:23Z</time>
      </trkpt>
      <trkpt lat="44.01083" lon="5.27786">
        <ele>564.91</ele>
        <time>2021-05-30T10:51:47Z</time>
      </trkpt>
      <trkpt lat="44.01085" lon="5.27787">
        <ele>564.91</ele>
        <time>2021-05-30T10:52:01Z</time>
      </trkpt>
      <trkpt lat="44.01088" lon="5.2779">
        <ele>566.35</ele>
        <time>2021-05-30T10:52:13Z</time>
      </trkpt>
      <trkpt lat="44.01085" lon="5.27799">
        <ele>568.28</ele>
        <time>2021-05-30T10:52:26Z</time>
      </trkpt>
      <trkpt lat="44.01084" lon="5.27803">
        <ele>567.8</ele>
        <time>2021-05-30T10:52:41Z</time>
      </trkpt>
      <trkpt lat="44.01082" lon="5.27803">
        <ele>567.8</ele>
        <time>2021-05-30T10:52:46Z</time>
      </trkpt>
      <trkpt lat="44.01066" lon="5.27799">
        <ele>566.35</ele>
        <time>2021-05-30T10:53:02Z</time>
      </trkpt>
      <trkpt lat="44.01054" lon="5.27796">
        <ele>566.35</ele>
        <time>2021-05-30T10:53:17Z</time>
      </trkpt>
      <trkpt lat="44.01049" lon="5.27794">
        <ele>565.87</ele>
        <time>2021-05-30T10:53:21Z</time>
      </trkpt>
      <trkpt lat="44.01036" lon="5.27788">
        <ele>567.32</ele>
        <time>2021-05-30T10:53:33Z</time>
      </trkpt>
      <trkpt lat="44.01016" lon="5.27777">
        <ele>568.28</ele>
        <time>2021-05-30T10:53:51Z</time>
      </trkpt>
      <trkpt lat="44.00998" lon="5.27759">
        <ele>569.72</ele>
        <time>2021-05-30T10:54:09Z</time>
      </trkpt>
      <trkpt lat="44.00985" lon="5.27743">
        <ele>570.2</ele>
        <time>2021-05-30T10:54:24Z</time>
      </trkpt>
      <trkpt lat="44.0097" lon="5.27724">
        <ele>571.64</ele>
        <time>2021-05-30T10:54:41Z</time>
      </trkpt>
      <trkpt lat="44.00953" lon="5.27709">
        <ele>572.12</ele>
        <time>2021-05-30T10:54:57Z</time>
      </trkpt>
      <trkpt lat="44.00934" lon="5.27691">
        <ele>574.04</ele>
        <time>2021-05-30T10:55:16Z</time>
      </trkpt>
      <trkpt lat="44.00926" lon="5.27679">
        <ele>573.08</ele>
        <time>2021-05-30T10:55:28Z</time>
      </trkpt>
      <trkpt lat="44.00907" lon="5.27662">
        <ele>575.49</ele>
        <time>2021-05-30T10:55:46Z</time>
      </trkpt>
      <trkpt lat="44.00889" lon="5.27649">
        <ele>575.97</ele>
        <time>2021-05-30T10:56:03Z</time>
      </trkpt>
      <trkpt lat="44.00874" lon="5.2763">
        <ele>576.45</ele>
        <time>2021-05-30T10:56:20Z</time>
      </trkpt>
      <trkpt lat="44.00857" lon="5.27612">
        <ele>576.93</ele>
        <time>2021-05-30T10:56:38Z</time>
      </trkpt>
      <trkpt lat="44.00853" lon="5.2761">
        <ele>576.93</ele>
        <time>2021-05-30T10:56:43Z</time>
      </trkpt>
      <trkpt lat="44.0084" lon="5.27608">
        <ele>577.41</ele>
        <time>2021-05-30T10:56:59Z</time>
      </trkpt>
      <trkpt lat="44.00839" lon="5.27607">
        <ele>577.89</ele>
        <time>2021-05-30T10:57:14Z</time>
      </trkpt>
      <trkpt lat="44.00839" lon="5.27611">
        <ele>577.89</ele>
        <time>2021-05-30T10:57:29Z</time>
      </trkpt>
      <trkpt lat="44.00839" lon="5.27612">
        <ele>576.45</ele>
        <time>2021-05-30T10:57:39Z</time>
      </trkpt>
      <trkpt lat="44.00838" lon="5.27613">
        <ele>576.45</ele>
        <time>2021-05-30T10:58:12Z</time>
      </trkpt>
      <trkpt lat="44.00838" lon="5.27615">
        <ele>575.97</ele>
        <time>2021-05-30T10:58:47Z</time>
      </trkpt>
      <trkpt lat="44.00837" lon="5.27614">
        <ele>575.97</ele>
        <time>2021-05-30T10:59:22Z</time>
      </trkpt>
      <trkpt lat="44.00834" lon="5.27611">
        <ele>575.49</ele>
        <time>2021-05-30T10:59:50Z</time>
      </trkpt>
      <trkpt lat="44.00837" lon="5.27606">
        <ele>575.49</ele>
        <time>2021-05-30T11:00:23Z</time>
      </trkpt>
      <trkpt lat="44.00841" lon="5.27602">
        <ele>575.01</ele>
        <time>2021-05-30T11:01:04Z</time>
      </trkpt>
      <trkpt lat="44.00837" lon="5.27605">
        <ele>575.01</ele>
        <time>2021-05-30T11:01:43Z</time>
      </trkpt>
      <trkpt lat="44.00835" lon="5.27606">
        <ele>575.01</ele>
        <time>2021-05-30T11:02:20Z</time>
      </trkpt>
      <trkpt lat="44.00836" lon="5.27604">
        <ele>574.53</ele>
        <time>2021-05-30T11:02:55Z</time>
      </trkpt>
      <trkpt lat="44.00836" lon="5.27605">
        <ele>574.53</ele>
        <time>2021-05-30T11:03:32Z</time>
      </trkpt>
      <trkpt lat="44.00841" lon="5.27604">
        <ele>574.04</ele>
        <time>2021-05-30T11:04:19Z</time>
      </trkpt>
      <trkpt lat="44.00839" lon="5.27603">
        <ele>574.04</ele>
        <time>2021-05-30T11:05:06Z</time>
      </trkpt>
      <trkpt lat="44.00835" lon="5.27606">
        <ele>574.04</ele>
        <time>2021-05-30T11:05:48Z</time>
      </trkpt>
      <trkpt lat="44.00835" lon="5.27605">
        <ele>573.56</ele>
        <time>2021-05-30T11:06:32Z</time>
      </trkpt>
      <trkpt lat="44.00836" lon="5.27606">
        <ele>573.56</ele>
        <time>2021-05-30T11:07:07Z</time>
      </trkpt>
      <trkpt lat="44.00837" lon="5.27605">
        <ele>573.08</ele>
        <time>2021-05-30T11:07:44Z</time>
      </trkpt>
      <trkpt lat="44.00839" lon="5.27602">
        <ele>573.08</ele>
        <time>2021-05-30T11:08:21Z</time>
      </trkpt>
      <trkpt lat="44.00834" lon="5.27606">
        <ele>573.08</ele>
        <time>2021-05-30T11:08:59Z</time>
      </trkpt>
      <trkpt lat="44.00835" lon="5.27607">
        <ele>573.08</ele>
        <time>2021-05-30T11:09:35Z</time>
      </trkpt>
      <trkpt lat="44.00837" lon="5.27606">
        <ele>572.6</ele>
        <time>2021-05-30T11:10:22Z</time>
      </trkpt>
      <trkpt lat="44.00837" lon="5.27605">
        <ele>572.6</ele>
        <time>2021-05-30T11:10:59Z</time>
      </trkpt>
      <trkpt lat="44.00836" lon="5.27605">
        <ele>572.6</ele>
        <time>2021-05-30T11:11:45Z</time>
      </trkpt>
      <trkpt lat="44.00837" lon="5.27605">
        <ele>572.12</ele>
        <time>2021-05-30T11:12:36Z</time>
      </trkpt>
      <trkpt lat="44.00836" lon="5.27606">
        <ele>572.12</ele>
        <time>2021-05-30T11:13:19Z</time>
      </trkpt>
      <trkpt lat="44.00837" lon="5.27604">
        <ele>572.12</ele>
        <time>2021-05-30T11:13:50Z</time>
      </trkpt>
      <trkpt lat="44.00835" lon="5.27608">
        <ele>571.64</ele>
        <time>2021-05-30T11:14:29Z</time>
      </trkpt>
      <trkpt lat="44.00834" lon="5.27609">
        <ele>571.64</ele>
        <time>2021-05-30T11:15:08Z</time>
      </trkpt>
      <trkpt lat="44.00832" lon="5.27607">
        <ele>571.64</ele>
        <time>2021-05-30T11:15:46Z</time>
      </trkpt>
      <trkpt lat="44.00832" lon="5.27609">
        <ele>571.64</ele>
        <time>2021-05-30T11:16:25Z</time>
      </trkpt>
      <trkpt lat="44.00836" lon="5.27608">
        <ele>571.16</ele>
        <time>2021-05-30T11:16:57Z</time>
      </trkpt>
      <trkpt lat="44.00834" lon="5.27609">
        <ele>571.16</ele>
        <time>2021-05-30T11:17:28Z</time>
      </trkpt>
      <trkpt lat="44.00834" lon="5.27606">
        <ele>571.16</ele>
        <time>2021-05-30T11:17:55Z</time>
      </trkpt>
      <trkpt lat="44.00836" lon="5.27607">
        <ele>571.16</ele>
        <time>2021-05-30T11:18:27Z</time>
      </trkpt>
      <trkpt lat="44.00836" lon="5.27608">
        <ele>571.16</ele>
        <time>2021-05-30T11:19:05Z</time>
      </trkpt>
      <trkpt lat="44.00836" lon="5.27607">
        <ele>570.68</ele>
        <time>2021-05-30T11:19:50Z</time>
      </trkpt>
      <trkpt lat="44.00835" lon="5.27604">
        <ele>570.68</ele>
        <time>2021-05-30T11:20:23Z</time>
      </trkpt>
      <trkpt lat="44.00835" lon="5.27605">
        <ele>570.68</ele>
        <time>2021-05-30T11:20:49Z</time>
      </trkpt>
      <trkpt lat="44.00837" lon="5.27604">
        <ele>570.2</ele>
        <time>2021-05-30T11:21:25Z</time>
      </trkpt>
      <trkpt lat="44.0084" lon="5.27605">
        <ele>570.2</ele>
        <time>2021-05-30T11:22:06Z</time>
      </trkpt>
      <trkpt lat="44.00837" lon="5.27607">
        <ele>570.2</ele>
        <time>2021-05-30T11:22:38Z</time>
      </trkpt>
      <trkpt lat="44.00835" lon="5.27608">
        <ele>570.2</ele>
        <time>2021-05-30T11:23:21Z</time>
      </trkpt>
      <trkpt lat="44.00838" lon="5.27607">
        <ele>570.2</ele>
        <time>2021-05-30T11:23:59Z</time>
      </trkpt>
      <trkpt lat="44.00839" lon="5.27606">
        <ele>570.2</ele>
        <time>2021-05-30T11:24:33Z</time>
      </trkpt>
      <trkpt lat="44.00836" lon="5.27606">
        <ele>570.2</ele>
        <time>2021-05-30T11:25:09Z</time>
      </trkpt>
      <trkpt lat="44.00837" lon="5.27604">
        <ele>570.2</ele>
        <time>2021-05-30T11:25:42Z</time>
      </trkpt>
      <trkpt lat="44.00841" lon="5.27598">
        <ele>569.72</ele>
        <time>2021-05-30T11:26:14Z</time>
      </trkpt>
      <trkpt lat="44.00838" lon="5.27601">
        <ele>569.72</ele>
        <time>2021-05-30T11:26:50Z</time>
      </trkpt>
      <trkpt lat="44.00838" lon="5.27601">
        <ele>569.72</ele>
        <time>2021-05-30T11:27:21Z</time>
      </trkpt>
      <trkpt lat="44.00839" lon="5.27605">
        <ele>569.72</ele>
        <time>2021-05-30T11:27:51Z</time>
      </trkpt>
      <trkpt lat="44.00837" lon="5.27606">
        <ele>569.72</ele>
        <time>2021-05-30T11:28:25Z</time>
      </trkpt>
      <trkpt lat="44.00834" lon="5.27607">
        <ele>569.72</ele>
        <time>2021-05-30T11:28:55Z</time>
      </trkpt>
      <trkpt lat="44.00835" lon="5.27604">
        <ele>569.72</ele>
        <time>2021-05-30T11:29:30Z</time>
      </trkpt>
      <trkpt lat="44.00836" lon="5.27601">
        <ele>569.72</ele>
        <time>2021-05-30T11:29:59Z</time>
      </trkpt>
      <trkpt lat="44.00838" lon="5.27601">
        <ele>569.72</ele>
        <time>2021-05-30T11:30:31Z</time>
      </trkpt>
      <trkpt lat="44.0084" lon="5.27601">
        <ele>569.72</ele>
        <time>2021-05-30T11:31:06Z</time>
      </trkpt>
      <trkpt lat="44.00837" lon="5.27604">
        <ele>569.24</ele>
        <time>2021-05-30T11:31:37Z</time>
      </trkpt>
      <trkpt lat="44.00835" lon="5.27605">
        <ele>569.24</ele>
        <time>2021-05-30T11:32:02Z</time>
      </trkpt>
      <trkpt lat="44.00836" lon="5.27605">
        <ele>569.24</ele>
        <time>2021-05-30T11:32:39Z</time>
      </trkpt>
      <trkpt lat="44.00834" lon="5.27607">
        <ele>569.24</ele>
        <time>2021-05-30T11:33:09Z</time>
      </trkpt>
      <trkpt lat="44.00834" lon="5.27604">
        <ele>569.24</ele>
        <time>2021-05-30T11:33:39Z</time>
      </trkpt>
      <trkpt lat="44.00833" lon="5.27605">
        <ele>569.24</ele>
        <time>2021-05-30T11:34:14Z</time>
      </trkpt>
      <trkpt lat="44.00832" lon="5.27607">
        <ele>569.24</ele>
        <time>2021-05-30T11:34:45Z</time>
      </trkpt>
      <trkpt lat="44.00836" lon="5.27603">
        <ele>569.24</ele>
        <time>2021-05-30T11:35:22Z</time>
      </trkpt>
      <trkpt lat="44.00838" lon="5.27602">
        <ele>569.24</ele>
        <time>2021-05-30T11:35:49Z</time>
      </trkpt>
      <trkpt lat="44.00837" lon="5.27603">
        <ele>569.24</ele>
        <time>2021-05-30T11:36:23Z</time>
      </trkpt>
      <trkpt lat="44.00838" lon="5.27603">
        <ele>569.24</ele>
        <time>2021-05-30T11:36:54Z</time>
      </trkpt>
      <trkpt lat="44.0084" lon="5.27601">
        <ele>569.24</ele>
        <time>2021-05-30T11:37:28Z</time>
      </trkpt>
      <trkpt lat="44.00838" lon="5.27603">
        <ele>568.76</ele>
        <time>2021-05-30T11:37:59Z</time>
      </trkpt>
      <trkpt lat="44.00838" lon="5.27608">
        <ele>568.76</ele>
        <time>2021-05-30T11:38:35Z</time>
      </trkpt>
      <trkpt lat="44.00839" lon="5.27607">
        <ele>568.76</ele>
        <time>2021-05-30T11:38:56Z</time>
      </trkpt>
      <trkpt lat="44.00837" lon="5.27608">
        <ele>567.32</ele>
        <time>2021-05-30T11:39:26Z</time>
      </trkpt>
      <trkpt lat="44.00837" lon="5.27608">
        <ele>569.24</ele>
        <time>2021-05-30T11:39:28Z</time>
      </trkpt>
      <trkpt lat="44.00836" lon="5.27609">
        <ele>566.35</ele>
        <time>2021-05-30T11:39:35Z</time>
      </trkpt>
      <trkpt lat="44.00836" lon="5.27609">
        <ele>574.53</ele>
        <time>2021-05-30T11:39:37Z</time>
      </trkpt>
      <trkpt lat="44.00836" lon="5.27608">
        <ele>570.68</ele>
        <time>2021-05-30T11:39:38Z</time>
      </trkpt>
      <trkpt lat="44.00835" lon="5.27606">
        <ele>565.87</ele>
        <time>2021-05-30T11:39:51Z</time>
      </trkpt>
      <trkpt lat="44.00835" lon="5.27606">
        <ele>570.2</ele>
        <time>2021-05-30T11:39:52Z</time>
      </trkpt>
      <trkpt lat="44.00835" lon="5.27606">
        <ele>570.2</ele>
        <time>2021-05-30T11:39:53Z</time>
      </trkpt>
      <trkpt lat="44.00835" lon="5.27607">
        <ele>568.76</ele>
        <time>2021-05-30T11:39:55Z</time>
      </trkpt>
      <trkpt lat="44.00834" lon="5.27609">
        <ele>568.28</ele>
        <time>2021-05-30T11:40:05Z</time>
      </trkpt>
      <trkpt lat="44.00835" lon="5.27611">
        <ele>568.28</ele>
        <time>2021-05-30T11:40:38Z</time>
      </trkpt>
      <trkpt lat="44.00835" lon="5.2761">
        <ele>568.28</ele>
        <time>2021-05-30T11:41:03Z</time>
      </trkpt>
      <trkpt lat="44.00836" lon="5.2761">
        <ele>568.28</ele>
        <time>2021-05-30T11:41:27Z</time>
      </trkpt>
      <trkpt lat="44.00835" lon="5.27611">
        <ele>568.28</ele>
        <time>2021-05-30T11:41:55Z</time>
      </trkpt>
      <trkpt lat="44.00836" lon="5.2761">
        <ele>567.8</ele>
        <time>2021-05-30T11:42:24Z</time>
      </trkpt>
      <trkpt lat="44.00834" lon="5.27613">
        <ele>567.8</ele>
        <time>2021-05-30T11:42:55Z</time>
      </trkpt>
      <trkpt lat="44.00833" lon="5.27614">
        <ele>567.8</ele>
        <time>2021-05-30T11:43:21Z</time>
      </trkpt>
      <trkpt lat="44.00838" lon="5.2761">
        <ele>567.8</ele>
        <time>2021-05-30T11:43:46Z</time>
      </trkpt>
      <trkpt lat="44.00837" lon="5.27609">
        <ele>568.28</ele>
        <time>2021-05-30T11:44:12Z</time>
      </trkpt>
      <trkpt lat="44.00835" lon="5.27609">
        <ele>568.76</ele>
        <time>2021-05-30T11:44:41Z</time>
      </trkpt>
      <trkpt lat="44.00834" lon="5.2761">
        <ele>568.76</ele>
        <time>2021-05-30T11:45:07Z</time>
      </trkpt>
      <trkpt lat="44.00835" lon="5.27609">
        <ele>567.8</ele>
        <time>2021-05-30T11:45:14Z</time>
      </trkpt>
      <trkpt lat="44.00836" lon="5.2761">
        <ele>567.32</ele>
        <time>2021-05-30T11:45:37Z</time>
      </trkpt>
      <trkpt lat="44.00837" lon="5.27611">
        <ele>567.32</ele>
        <time>2021-05-30T11:46:18Z</time>
      </trkpt>
      <trkpt lat="44.00837" lon="5.27609">
        <ele>567.32</ele>
        <time>2021-05-30T11:46:53Z</time>
      </trkpt>
      <trkpt lat="44.00836" lon="5.27608">
        <ele>567.32</ele>
        <time>2021-05-30T11:47:27Z</time>
      </trkpt>
      <trkpt lat="44.00838" lon="5.27609">
        <ele>567.32</ele>
        <time>2021-05-30T11:47:59Z</time>
      </trkpt>
      <trkpt lat="44.00837" lon="5.27607">
        <ele>567.32</ele>
        <time>2021-05-30T11:48:33Z</time>
      </trkpt>
      <trkpt lat="44.00839" lon="5.27606">
        <ele>567.32</ele>
        <time>2021-05-30T11:49:06Z</time>
      </trkpt>
      <trkpt lat="44.00837" lon="5.27607">
        <ele>567.32</ele>
        <time>2021-05-30T11:49:44Z</time>
      </trkpt>
      <trkpt lat="44.00837" lon="5.27607">
        <ele>567.32</ele>
        <time>2021-05-30T11:50:25Z</time>
      </trkpt>
      <trkpt lat="44.00835" lon="5.27606">
        <ele>567.32</ele>
        <time>2021-05-30T11:51:02Z</time>
      </trkpt>
      <trkpt lat="44.00836" lon="5.27605">
        <ele>566.83</ele>
        <time>2021-05-30T11:51:43Z</time>
      </trkpt>
      <trkpt lat="44.00834" lon="5.27607">
        <ele>566.83</ele>
        <time>2021-05-30T11:52:20Z</time>
      </trkpt>
      <trkpt lat="44.00835" lon="5.27608">
        <ele>566.83</ele>
        <time>2021-05-30T11:52:50Z</time>
      </trkpt>
      <trkpt lat="44.00835" lon="5.27612">
        <ele>566.83</ele>
        <time>2021-05-30T11:53:28Z</time>
      </trkpt>
      <trkpt lat="44.00838" lon="5.27605">
        <ele>566.83</ele>
        <time>2021-05-30T11:54:13Z</time>
      </trkpt>
      <trkpt lat="44.00836" lon="5.27609">
        <ele>566.83</ele>
        <time>2021-05-30T11:54:50Z</time>
      </trkpt>
      <trkpt lat="44.00834" lon="5.27609">
        <ele>566.35</ele>
        <time>2021-05-30T11:55:24Z</time>
      </trkpt>
      <trkpt lat="44.00833" lon="5.27608">
        <ele>567.8</ele>
        <time>2021-05-30T11:56:08Z</time>
      </trkpt>
      <trkpt lat="44.00833" lon="5.27609">
        <ele>567.32</ele>
        <time>2021-05-30T11:56:45Z</time>
      </trkpt>
      <trkpt lat="44.00835" lon="5.27608">
        <ele>567.32</ele>
        <time>2021-05-30T11:57:27Z</time>
      </trkpt>
      <trkpt lat="44.00834" lon="5.27609">
        <ele>567.32</ele>
        <time>2021-05-30T11:57:57Z</time>
      </trkpt>
      <trkpt lat="44.00833" lon="5.2761">
        <ele>567.32</ele>
        <time>2021-05-30T11:58:29Z</time>
      </trkpt>
      <trkpt lat="44.00835" lon="5.27608">
        <ele>567.32</ele>
        <time>2021-05-30T11:59:14Z</time>
      </trkpt>
      <trkpt lat="44.00837" lon="5.27605">
        <ele>567.32</ele>
        <time>2021-05-30T11:59:57Z</time>
      </trkpt>
      <trkpt lat="44.00839" lon="5.27603">
        <ele>567.32</ele>
        <time>2021-05-30T12:00:40Z</time>
      </trkpt>
      <trkpt lat="44.00838" lon="5.27605">
        <ele>566.83</ele>
        <time>2021-05-30T12:01:21Z</time>
      </trkpt>
      <trkpt lat="44.00838" lon="5.27604">
        <ele>566.83</ele>
        <time>2021-05-30T12:01:58Z</time>
      </trkpt>
      <trkpt lat="44.00836" lon="5.27606">
        <ele>566.83</ele>
        <time>2021-05-30T12:02:33Z</time>
      </trkpt>
      <trkpt lat="44.00838" lon="5.27608">
        <ele>566.83</ele>
        <time>2021-05-30T12:03:09Z</time>
      </trkpt>
      <trkpt lat="44.00835" lon="5.27608">
        <ele>566.83</ele>
        <time>2021-05-30T12:03:46Z</time>
      </trkpt>
      <trkpt lat="44.00837" lon="5.27607">
        <ele>566.35</ele>
        <time>2021-05-30T12:04:21Z</time>
      </trkpt>
      <trkpt lat="44.00836" lon="5.27612">
        <ele>566.35</ele>
        <time>2021-05-30T12:04:48Z</time>
      </trkpt>
      <trkpt lat="44.00836" lon="5.27609">
        <ele>566.35</ele>
        <time>2021-05-30T12:05:27Z</time>
      </trkpt>
      <trkpt lat="44.00835" lon="5.27611">
        <ele>568.28</ele>
        <time>2021-05-30T12:05:47Z</time>
      </trkpt>
      <trkpt lat="44.00835" lon="5.2761">
        <ele>566.35</ele>
        <time>2021-05-30T12:05:49Z</time>
      </trkpt>
      <trkpt lat="44.00835" lon="5.2761">
        <ele>568.28</ele>
        <time>2021-05-30T12:05:51Z</time>
      </trkpt>
      <trkpt lat="44.00835" lon="5.2761">
        <ele>564.91</ele>
        <time>2021-05-30T12:05:58Z</time>
      </trkpt>
      <trkpt lat="44.00835" lon="5.2761">
        <ele>569.24</ele>
        <time>2021-05-30T12:05:59Z</time>
      </trkpt>
      <trkpt lat="44.00835" lon="5.27609">
        <ele>564.91</ele>
        <time>2021-05-30T12:06:14Z</time>
      </trkpt>
      <trkpt lat="44.00835" lon="5.2761">
        <ele>568.76</ele>
        <time>2021-05-30T12:06:16Z</time>
      </trkpt>
      <trkpt lat="44.00835" lon="5.2761">
        <ele>568.76</ele>
        <time>2021-05-30T12:06:17Z</time>
      </trkpt>
      <trkpt lat="44.00835" lon="5.2761">
        <ele>566.35</ele>
        <time>2021-05-30T12:06:19Z</time>
      </trkpt>
      <trkpt lat="44.00834" lon="5.2761">
        <ele>568.28</ele>
        <time>2021-05-30T12:06:21Z</time>
      </trkpt>
      <trkpt lat="44.0084" lon="5.27608">
        <ele>565.87</ele>
        <time>2021-05-30T12:06:37Z</time>
      </trkpt>
      <trkpt lat="44.00841" lon="5.27608">
        <ele>565.87</ele>
        <time>2021-05-30T12:06:38Z</time>
      </trkpt>
      <trkpt lat="44.00842" lon="5.27607">
        <ele>567.32</ele>
        <time>2021-05-30T12:06:40Z</time>
      </trkpt>
      <trkpt lat="44.00847" lon="5.27605">
        <ele>567.32</ele>
        <time>2021-05-30T12:06:46Z</time>
      </trkpt>
      <trkpt lat="44.00849" lon="5.27605">
        <ele>565.87</ele>
        <time>2021-05-30T12:06:48Z</time>
      </trkpt>
      <trkpt lat="44.00859" lon="5.27612">
        <ele>567.32</ele>
        <time>2021-05-30T12:06:59Z</time>
      </trkpt>
      <trkpt lat="44.00862" lon="5.27615">
        <ele>565.87</ele>
        <time>2021-05-30T12:07:03Z</time>
      </trkpt>
      <trkpt lat="44.00869" lon="5.27622">
        <ele>565.87</ele>
        <time>2021-05-30T12:07:10Z</time>
      </trkpt>
      <trkpt lat="44.00884" lon="5.27639">
        <ele>566.35</ele>
        <time>2021-05-30T12:07:27Z</time>
      </trkpt>
      <trkpt lat="44.00886" lon="5.27641">
        <ele>564.43</ele>
        <time>2021-05-30T12:07:30Z</time>
      </trkpt>
      <trkpt lat="44.00898" lon="5.27652">
        <ele>564.43</ele>
        <time>2021-05-30T12:07:44Z</time>
      </trkpt>
      <trkpt lat="44.00914" lon="5.27666">
        <ele>563.95</ele>
        <time>2021-05-30T12:08:02Z</time>
      </trkpt>
      <trkpt lat="44.00924" lon="5.27674">
        <ele>564.91</ele>
        <time>2021-05-30T12:08:12Z</time>
      </trkpt>
      <trkpt lat="44.00926" lon="5.27676">
        <ele>563.95</ele>
        <time>2021-05-30T12:08:14Z</time>
      </trkpt>
      <trkpt lat="44.0094" lon="5.27695">
        <ele>562.03</ele>
        <time>2021-05-30T12:08:32Z</time>
      </trkpt>
      <trkpt lat="44.00947" lon="5.27701">
        <ele>561.07</ele>
        <time>2021-05-30T12:08:39Z</time>
      </trkpt>
      <trkpt lat="44.00961" lon="5.27714">
        <ele>560.11</ele>
        <time>2021-05-30T12:08:54Z</time>
      </trkpt>
      <trkpt lat="44.00977" lon="5.2773">
        <ele>559.62</ele>
        <time>2021-05-30T12:09:11Z</time>
      </trkpt>
      <trkpt lat="44.00994" lon="5.27754">
        <ele>557.7</ele>
        <time>2021-05-30T12:09:32Z</time>
      </trkpt>
      <trkpt lat="44.01013" lon="5.27772">
        <ele>556.26</ele>
        <time>2021-05-30T12:09:52Z</time>
      </trkpt>
      <trkpt lat="44.01016" lon="5.27777">
        <ele>549.05</ele>
        <time>2021-05-30T12:09:58Z</time>
      </trkpt>
      <trkpt lat="44.01016" lon="5.27777">
        <ele>553.86</ele>
        <time>2021-05-30T12:09:59Z</time>
      </trkpt>
      <trkpt lat="44.01016" lon="5.27777">
        <ele>556.26</ele>
        <time>2021-05-30T12:10:01Z</time>
      </trkpt>
      <trkpt lat="44.01017" lon="5.27777">
        <ele>563.47</ele>
        <time>2021-05-30T12:10:03Z</time>
      </trkpt>
      <trkpt lat="44.01018" lon="5.27777">
        <ele>559.14</ele>
        <time>2021-05-30T12:10:04Z</time>
      </trkpt>
      <trkpt lat="44.01024" lon="5.27781">
        <ele>555.3</ele>
        <time>2021-05-30T12:10:10Z</time>
      </trkpt>
      <trkpt lat="44.01043" lon="5.2779">
        <ele>554.34</ele>
        <time>2021-05-30T12:10:25Z</time>
      </trkpt>
      <trkpt lat="44.01063" lon="5.27798">
        <ele>553.86</ele>
        <time>2021-05-30T12:10:42Z</time>
      </trkpt>
      <trkpt lat="44.01083" lon="5.27803">
        <ele>555.3</ele>
        <time>2021-05-30T12:10:59Z</time>
      </trkpt>
      <trkpt lat="44.01092" lon="5.27804">
        <ele>557.22</ele>
        <time>2021-05-30T12:11:09Z</time>
      </trkpt>
      <trkpt lat="44.01097" lon="5.27801">
        <ele>556.26</ele>
        <time>2021-05-30T12:11:18Z</time>
      </trkpt>
      <trkpt lat="44.01098" lon="5.278">
        <ele>557.22</ele>
        <time>2021-05-30T12:11:20Z</time>
      </trkpt>
      <trkpt lat="44.01101" lon="5.27799">
        <ele>557.7</ele>
        <time>2021-05-30T12:11:38Z</time>
      </trkpt>
      <trkpt lat="44.01101" lon="5.278">
        <ele>558.66</ele>
        <time>2021-05-30T12:12:00Z</time>
      </trkpt>
      <trkpt lat="44.01101" lon="5.278">
        <ele>558.66</ele>
        <time>2021-05-30T12:12:01Z</time>
      </trkpt>
      <trkpt lat="44.01108" lon="5.27791">
        <ele>559.62</ele>
        <time>2021-05-30T12:12:16Z</time>
      </trkpt>
      <trkpt lat="44.01108" lon="5.27789">
        <ele>559.62</ele>
        <time>2021-05-30T12:12:21Z</time>
      </trkpt>
      <trkpt lat="44.01111" lon="5.27781">
        <ele>555.78</ele>
        <time>2021-05-30T12:12:29Z</time>
      </trkpt>
      <trkpt lat="44.01111" lon="5.27781">
        <ele>560.59</ele>
        <time>2021-05-30T12:12:30Z</time>
      </trkpt>
      <trkpt lat="44.01111" lon="5.2778">
        <ele>563.47</ele>
        <time>2021-05-30T12:12:31Z</time>
      </trkpt>
      <trkpt lat="44.01112" lon="5.27779">
        <ele>561.07</ele>
        <time>2021-05-30T12:12:32Z</time>
      </trkpt>
      <trkpt lat="44.01114" lon="5.27764">
        <ele>561.07</ele>
        <time>2021-05-30T12:12:44Z</time>
      </trkpt>
      <trkpt lat="44.01115" lon="5.27762">
        <ele>561.07</ele>
        <time>2021-05-30T12:12:45Z</time>
      </trkpt>
      <trkpt lat="44.01116" lon="5.27745">
        <ele>563.95</ele>
        <time>2021-05-30T12:13:01Z</time>
      </trkpt>
      <trkpt lat="44.01116" lon="5.27725">
        <ele>564.43</ele>
        <time>2021-05-30T12:13:16Z</time>
      </trkpt>
      <trkpt lat="44.01116" lon="5.27723">
        <ele>564.43</ele>
        <time>2021-05-30T12:13:17Z</time>
      </trkpt>
      <trkpt lat="44.01115" lon="5.27699">
        <ele>567.32</ele>
        <time>2021-05-30T12:13:33Z</time>
      </trkpt>
      <trkpt lat="44.01112" lon="5.27677">
        <ele>569.24</ele>
        <time>2021-05-30T12:13:47Z</time>
      </trkpt>
      <trkpt lat="44.01113" lon="5.2767">
        <ele>567.32</ele>
        <time>2021-05-30T12:13:51Z</time>
      </trkpt>
      <trkpt lat="44.01114" lon="5.27661">
        <ele>569.24</ele>
        <time>2021-05-30T12:13:57Z</time>
      </trkpt>
      <trkpt lat="44.01116" lon="5.27656">
        <ele>567.8</ele>
        <time>2021-05-30T12:14:00Z</time>
      </trkpt>
      <trkpt lat="44.01114" lon="5.27645">
        <ele>568.28</ele>
        <time>2021-05-30T12:14:08Z</time>
      </trkpt>
      <trkpt lat="44.01113" lon="5.27642">
        <ele>567.32</ele>
        <time>2021-05-30T12:14:10Z</time>
      </trkpt>
      <trkpt lat="44.01112" lon="5.27621">
        <ele>566.35</ele>
        <time>2021-05-30T12:14:23Z</time>
      </trkpt>
      <trkpt lat="44.01111" lon="5.27615">
        <ele>566.35</ele>
        <time>2021-05-30T12:14:27Z</time>
      </trkpt>
      <trkpt lat="44.0111" lon="5.27593">
        <ele>565.39</ele>
        <time>2021-05-30T12:14:44Z</time>
      </trkpt>
      <trkpt lat="44.0111" lon="5.27581">
        <ele>563.47</ele>
        <time>2021-05-30T12:14:53Z</time>
      </trkpt>
      <trkpt lat="44.01106" lon="5.27556">
        <ele>560.59</ele>
        <time>2021-05-30T12:15:10Z</time>
      </trkpt>
      <trkpt lat="44.01103" lon="5.27546">
        <ele>561.55</ele>
        <time>2021-05-30T12:15:17Z</time>
      </trkpt>
      <trkpt lat="44.01102" lon="5.27545">
        <ele>561.55</ele>
        <time>2021-05-30T12:15:18Z</time>
      </trkpt>
      <trkpt lat="44.01102" lon="5.2754">
        <ele>560.11</ele>
        <time>2021-05-30T12:15:21Z</time>
      </trkpt>
      <trkpt lat="44.01103" lon="5.27533">
        <ele>559.14</ele>
        <time>2021-05-30T12:15:26Z</time>
      </trkpt>
      <trkpt lat="44.0111" lon="5.27527">
        <ele>558.66</ele>
        <time>2021-05-30T12:15:33Z</time>
      </trkpt>
      <trkpt lat="44.01127" lon="5.27526">
        <ele>556.74</ele>
        <time>2021-05-30T12:15:50Z</time>
      </trkpt>
      <trkpt lat="44.01147" lon="5.2753">
        <ele>555.3</ele>
        <time>2021-05-30T12:16:09Z</time>
      </trkpt>
      <trkpt lat="44.01167" lon="5.27532">
        <ele>553.38</ele>
        <time>2021-05-30T12:16:26Z</time>
      </trkpt>
      <trkpt lat="44.01187" lon="5.27533">
        <ele>551.93</ele>
        <time>2021-05-30T12:16:44Z</time>
      </trkpt>
      <trkpt lat="44.01209" lon="5.27536">
        <ele>550.97</ele>
        <time>2021-05-30T12:17:02Z</time>
      </trkpt>
      <trkpt lat="44.01236" lon="5.27541">
        <ele>549.53</ele>
        <time>2021-05-30T12:17:26Z</time>
      </trkpt>
      <trkpt lat="44.01243" lon="5.27541">
        <ele>549.53</ele>
        <time>2021-05-30T12:17:32Z</time>
      </trkpt>
      <trkpt lat="44.01248" lon="5.2754">
        <ele>549.53</ele>
        <time>2021-05-30T12:17:36Z</time>
      </trkpt>
      <trkpt lat="44.01257" lon="5.2753">
        <ele>550.49</ele>
        <time>2021-05-30T12:17:48Z</time>
      </trkpt>
      <trkpt lat="44.01258" lon="5.27528">
        <ele>550.97</ele>
        <time>2021-05-30T12:17:50Z</time>
      </trkpt>
      <trkpt lat="44.01268" lon="5.2751">
        <ele>552.41</ele>
        <time>2021-05-30T12:18:06Z</time>
      </trkpt>
      <trkpt lat="44.01269" lon="5.27507">
        <ele>550.97</ele>
        <time>2021-05-30T12:18:09Z</time>
      </trkpt>
      <trkpt lat="44.01279" lon="5.27483">
        <ele>553.38</ele>
        <time>2021-05-30T12:18:27Z</time>
      </trkpt>
      <trkpt lat="44.01283" lon="5.27473">
        <ele>553.38</ele>
        <time>2021-05-30T12:18:35Z</time>
      </trkpt>
      <trkpt lat="44.01293" lon="5.27449">
        <ele>554.34</ele>
        <time>2021-05-30T12:18:54Z</time>
      </trkpt>
      <trkpt lat="44.01303" lon="5.2743">
        <ele>555.3</ele>
        <time>2021-05-30T12:19:09Z</time>
      </trkpt>
      <trkpt lat="44.01307" lon="5.27424">
        <ele>555.3</ele>
        <time>2021-05-30T12:19:14Z</time>
      </trkpt>
      <trkpt lat="44.01308" lon="5.27422">
        <ele>553.86</ele>
        <time>2021-05-30T12:19:16Z</time>
      </trkpt>
      <trkpt lat="44.0131" lon="5.27421">
        <ele>555.3</ele>
        <time>2021-05-30T12:19:20Z</time>
      </trkpt>
      <trkpt lat="44.0131" lon="5.2742">
        <ele>553.86</ele>
        <time>2021-05-30T12:19:24Z</time>
      </trkpt>
      <trkpt lat="44.01313" lon="5.27418">
        <ele>553.86</ele>
        <time>2021-05-30T12:19:48Z</time>
      </trkpt>
      <trkpt lat="44.01315" lon="5.27416">
        <ele>554.34</ele>
        <time>2021-05-30T12:20:20Z</time>
      </trkpt>
      <trkpt lat="44.01315" lon="5.27413">
        <ele>555.3</ele>
        <time>2021-05-30T12:20:26Z</time>
      </trkpt>
      <trkpt lat="44.01315" lon="5.27411">
        <ele>555.3</ele>
        <time>2021-05-30T12:20:28Z</time>
      </trkpt>
      <trkpt lat="44.01312" lon="5.27387">
        <ele>555.78</ele>
        <time>2021-05-30T12:20:44Z</time>
      </trkpt>
      <trkpt lat="44.01311" lon="5.27367">
        <ele>555.78</ele>
        <time>2021-05-30T12:20:57Z</time>
      </trkpt>
      <trkpt lat="44.01312" lon="5.27359">
        <ele>557.22</ele>
        <time>2021-05-30T12:21:01Z</time>
      </trkpt>
      <trkpt lat="44.01312" lon="5.27354">
        <ele>555.3</ele>
        <time>2021-05-30T12:21:04Z</time>
      </trkpt>
      <trkpt lat="44.01313" lon="5.27349">
        <ele>556.74</ele>
        <time>2021-05-30T12:21:07Z</time>
      </trkpt>
      <trkpt lat="44.01313" lon="5.27346">
        <ele>555.78</ele>
        <time>2021-05-30T12:21:09Z</time>
      </trkpt>
      <trkpt lat="44.01317" lon="5.2732">
        <ele>557.7</ele>
        <time>2021-05-30T12:21:26Z</time>
      </trkpt>
      <trkpt lat="44.0132" lon="5.27301">
        <ele>557.7</ele>
        <time>2021-05-30T12:21:38Z</time>
      </trkpt>
      <trkpt lat="44.01328" lon="5.27272">
        <ele>557.7</ele>
        <time>2021-05-30T12:21:56Z</time>
      </trkpt>
      <trkpt lat="44.01337" lon="5.2725">
        <ele>558.18</ele>
        <time>2021-05-30T12:22:12Z</time>
      </trkpt>
      <trkpt lat="44.01341" lon="5.27232">
        <ele>560.59</ele>
        <time>2021-05-30T12:22:25Z</time>
      </trkpt>
      <trkpt lat="44.01341" lon="5.27229">
        <ele>559.14</ele>
        <time>2021-05-30T12:22:27Z</time>
      </trkpt>
      <trkpt lat="44.01341" lon="5.27226">
        <ele>560.59</ele>
        <time>2021-05-30T12:22:29Z</time>
      </trkpt>
      <trkpt lat="44.01341" lon="5.27222">
        <ele>559.62</ele>
        <time>2021-05-30T12:22:31Z</time>
      </trkpt>
      <trkpt lat="44.01342" lon="5.27216">
        <ele>561.07</ele>
        <time>2021-05-30T12:22:35Z</time>
      </trkpt>
      <trkpt lat="44.01344" lon="5.2721">
        <ele>561.07</ele>
        <time>2021-05-30T12:22:54Z</time>
      </trkpt>
      <trkpt lat="44.01346" lon="5.27203">
        <ele>561.07</ele>
        <time>2021-05-30T12:23:11Z</time>
      </trkpt>
      <trkpt lat="44.01352" lon="5.27179">
        <ele>561.07</ele>
        <time>2021-05-30T12:23:30Z</time>
      </trkpt>
      <trkpt lat="44.01353" lon="5.27176">
        <ele>562.51</ele>
        <time>2021-05-30T12:23:32Z</time>
      </trkpt>
      <trkpt lat="44.01358" lon="5.27145">
        <ele>562.03</ele>
        <time>2021-05-30T12:23:52Z</time>
      </trkpt>
      <trkpt lat="44.01362" lon="5.27123">
        <ele>563.95</ele>
        <time>2021-05-30T12:24:06Z</time>
      </trkpt>
      <trkpt lat="44.01364" lon="5.27117">
        <ele>562.51</ele>
        <time>2021-05-30T12:24:10Z</time>
      </trkpt>
      <trkpt lat="44.0137" lon="5.27091">
        <ele>563.95</ele>
        <time>2021-05-30T12:24:27Z</time>
      </trkpt>
      <trkpt lat="44.01375" lon="5.27073">
        <ele>564.91</ele>
        <time>2021-05-30T12:24:39Z</time>
      </trkpt>
      <trkpt lat="44.01378" lon="5.27067">
        <ele>564.91</ele>
        <time>2021-05-30T12:24:58Z</time>
      </trkpt>
      <trkpt lat="44.01379" lon="5.27062">
        <ele>563.95</ele>
        <time>2021-05-30T12:25:04Z</time>
      </trkpt>
      <trkpt lat="44.01384" lon="5.27044">
        <ele>565.39</ele>
        <time>2021-05-30T12:25:17Z</time>
      </trkpt>
      <trkpt lat="44.01388" lon="5.27027">
        <ele>566.35</ele>
        <time>2021-05-30T12:25:29Z</time>
      </trkpt>
      <trkpt lat="44.01394" lon="5.27001">
        <ele>566.35</ele>
        <time>2021-05-30T12:25:47Z</time>
      </trkpt>
      <trkpt lat="44.01398" lon="5.26989">
        <ele>567.32</ele>
        <time>2021-05-30T12:25:57Z</time>
      </trkpt>
      <trkpt lat="44.01399" lon="5.26984">
        <ele>566.35</ele>
        <time>2021-05-30T12:26:00Z</time>
      </trkpt>
      <trkpt lat="44.01401" lon="5.26977">
        <ele>567.8</ele>
        <time>2021-05-30T12:26:05Z</time>
      </trkpt>
      <trkpt lat="44.01409" lon="5.26954">
        <ele>568.28</ele>
        <time>2021-05-30T12:26:22Z</time>
      </trkpt>
      <trkpt lat="44.0141" lon="5.2695">
        <ele>568.76</ele>
        <time>2021-05-30T12:26:25Z</time>
      </trkpt>
      <trkpt lat="44.0142" lon="5.26925">
        <ele>569.24</ele>
        <time>2021-05-30T12:26:43Z</time>
      </trkpt>
      <trkpt lat="44.01428" lon="5.26909">
        <ele>569.72</ele>
        <time>2021-05-30T12:26:57Z</time>
      </trkpt>
      <trkpt lat="44.01436" lon="5.26892">
        <ele>570.68</ele>
        <time>2021-05-30T12:27:10Z</time>
      </trkpt>
      <trkpt lat="44.01442" lon="5.2688">
        <ele>570.68</ele>
        <time>2021-05-30T12:27:21Z</time>
      </trkpt>
      <trkpt lat="44.01447" lon="5.26867">
        <ele>572.12</ele>
        <time>2021-05-30T12:27:31Z</time>
      </trkpt>
      <trkpt lat="44.01456" lon="5.26847">
        <ele>572.12</ele>
        <time>2021-05-30T12:27:47Z</time>
      </trkpt>
      <trkpt lat="44.01465" lon="5.26831">
        <ele>573.08</ele>
        <time>2021-05-30T12:28:00Z</time>
      </trkpt>
      <trkpt lat="44.01469" lon="5.26824">
        <ele>571.64</ele>
        <time>2021-05-30T12:28:05Z</time>
      </trkpt>
      <trkpt lat="44.01473" lon="5.26816">
        <ele>572.12</ele>
        <time>2021-05-30T12:28:11Z</time>
      </trkpt>
      <trkpt lat="44.01483" lon="5.26805">
        <ele>573.08</ele>
        <time>2021-05-30T12:28:23Z</time>
      </trkpt>
      <trkpt lat="44.01485" lon="5.26802">
        <ele>574.53</ele>
        <time>2021-05-30T12:28:26Z</time>
      </trkpt>
      <trkpt lat="44.01497" lon="5.26787">
        <ele>575.01</ele>
        <time>2021-05-30T12:28:41Z</time>
      </trkpt>
      <trkpt lat="44.01506" lon="5.26776">
        <ele>575.49</ele>
        <time>2021-05-30T12:28:50Z</time>
      </trkpt>
      <trkpt lat="44.01523" lon="5.2676">
        <ele>576.93</ele>
        <time>2021-05-30T12:29:09Z</time>
      </trkpt>
      <trkpt lat="44.01536" lon="5.26745">
        <ele>575.97</ele>
        <time>2021-05-30T12:29:25Z</time>
      </trkpt>
      <trkpt lat="44.0154" lon="5.26739">
        <ele>577.89</ele>
        <time>2021-05-30T12:29:30Z</time>
      </trkpt>
      <trkpt lat="44.01544" lon="5.26727">
        <ele>579.33</ele>
        <time>2021-05-30T12:29:40Z</time>
      </trkpt>
      <trkpt lat="44.01545" lon="5.26716">
        <ele>579.33</ele>
        <time>2021-05-30T12:29:51Z</time>
      </trkpt>
      <trkpt lat="44.01546" lon="5.26711">
        <ele>579.81</ele>
        <time>2021-05-30T12:30:13Z</time>
      </trkpt>
      <trkpt lat="44.01544" lon="5.26703">
        <ele>579.81</ele>
        <time>2021-05-30T12:30:32Z</time>
      </trkpt>
      <trkpt lat="44.01544" lon="5.26702">
        <ele>579.81</ele>
        <time>2021-05-30T12:30:33Z</time>
      </trkpt>
      <trkpt lat="44.01544" lon="5.26698">
        <ele>579.81</ele>
        <time>2021-05-30T12:30:36Z</time>
      </trkpt>
      <trkpt lat="44.01536" lon="5.26678">
        <ele>580.77</ele>
        <time>2021-05-30T12:30:52Z</time>
      </trkpt>
      <trkpt lat="44.01534" lon="5.26673">
        <ele>579.81</ele>
        <time>2021-05-30T12:30:56Z</time>
      </trkpt>
      <trkpt lat="44.01533" lon="5.2667">
        <ele>581.25</ele>
        <time>2021-05-30T12:30:59Z</time>
      </trkpt>
      <trkpt lat="44.01526" lon="5.26654">
        <ele>581.25</ele>
        <time>2021-05-30T12:31:09Z</time>
      </trkpt>
      <trkpt lat="44.01516" lon="5.26638">
        <ele>579.81</ele>
        <time>2021-05-30T12:31:23Z</time>
      </trkpt>
      <trkpt lat="44.01512" lon="5.26628">
        <ele>581.73</ele>
        <time>2021-05-30T12:31:31Z</time>
      </trkpt>
      <trkpt lat="44.01511" lon="5.26625">
        <ele>580.29</ele>
        <time>2021-05-30T12:31:34Z</time>
      </trkpt>
      <trkpt lat="44.0151" lon="5.26622">
        <ele>581.73</ele>
        <time>2021-05-30T12:31:36Z</time>
      </trkpt>
      <trkpt lat="44.01505" lon="5.26608">
        <ele>580.77</ele>
        <time>2021-05-30T12:31:46Z</time>
      </trkpt>
      <trkpt lat="44.01493" lon="5.26581">
        <ele>582.7</ele>
        <time>2021-05-30T12:32:03Z</time>
      </trkpt>
      <trkpt lat="44.0149" lon="5.26567">
        <ele>583.66</ele>
        <time>2021-05-30T12:32:12Z</time>
      </trkpt>
      <trkpt lat="44.01492" lon="5.26548">
        <ele>585.58</ele>
        <time>2021-05-30T12:32:28Z</time>
      </trkpt>
      <trkpt lat="44.0149" lon="5.26547">
        <ele>584.14</ele>
        <time>2021-05-30T12:32:30Z</time>
      </trkpt>
      <trkpt lat="44.01479" lon="5.26526">
        <ele>584.14</ele>
        <time>2021-05-30T12:32:47Z</time>
      </trkpt>
      <trkpt lat="44.01467" lon="5.26507">
        <ele>585.1</ele>
        <time>2021-05-30T12:33:03Z</time>
      </trkpt>
      <trkpt lat="44.01458" lon="5.26494">
        <ele>584.62</ele>
        <time>2021-05-30T12:33:14Z</time>
      </trkpt>
      <trkpt lat="44.01443" lon="5.26474">
        <ele>585.1</ele>
        <time>2021-05-30T12:33:31Z</time>
      </trkpt>
      <trkpt lat="44.01431" lon="5.26457">
        <ele>585.1</ele>
        <time>2021-05-30T12:33:46Z</time>
      </trkpt>
      <trkpt lat="44.01422" lon="5.26436">
        <ele>583.66</ele>
        <time>2021-05-30T12:34:00Z</time>
      </trkpt>
      <trkpt lat="44.01418" lon="5.26426">
        <ele>585.1</ele>
        <time>2021-05-30T12:34:08Z</time>
      </trkpt>
      <trkpt lat="44.0141" lon="5.26411">
        <ele>583.66</ele>
        <time>2021-05-30T12:34:20Z</time>
      </trkpt>
      <trkpt lat="44.01397" lon="5.26397">
        <ele>583.18</ele>
        <time>2021-05-30T12:34:34Z</time>
      </trkpt>
      <trkpt lat="44.01382" lon="5.26379">
        <ele>582.7</ele>
        <time>2021-05-30T12:34:50Z</time>
      </trkpt>
      <trkpt lat="44.0137" lon="5.26362">
        <ele>583.18</ele>
        <time>2021-05-30T12:35:06Z</time>
      </trkpt>
      <trkpt lat="44.01363" lon="5.2636">
        <ele>582.22</ele>
        <time>2021-05-30T12:35:13Z</time>
      </trkpt>
      <trkpt lat="44.01342" lon="5.26351">
        <ele>580.77</ele>
        <time>2021-05-30T12:35:31Z</time>
      </trkpt>
      <trkpt lat="44.01338" lon="5.26347">
        <ele>580.77</ele>
        <time>2021-05-30T12:35:36Z</time>
      </trkpt>
      <trkpt lat="44.0133" lon="5.26335">
        <ele>580.29</ele>
        <time>2021-05-30T12:35:44Z</time>
      </trkpt>
      <trkpt lat="44.01311" lon="5.26312">
        <ele>579.81</ele>
        <time>2021-05-30T12:36:03Z</time>
      </trkpt>
      <trkpt lat="44.01298" lon="5.26292">
        <ele>578.85</ele>
        <time>2021-05-30T12:36:19Z</time>
      </trkpt>
      <trkpt lat="44.01295" lon="5.26275">
        <ele>580.29</ele>
        <time>2021-05-30T12:36:29Z</time>
      </trkpt>
      <trkpt lat="44.01294" lon="5.26271">
        <ele>580.77</ele>
        <time>2021-05-30T12:36:32Z</time>
      </trkpt>
      <trkpt lat="44.01285" lon="5.26256">
        <ele>580.77</ele>
        <time>2021-05-30T12:36:43Z</time>
      </trkpt>
      <trkpt lat="44.01274" lon="5.26237">
        <ele>580.77</ele>
        <time>2021-05-30T12:37:00Z</time>
      </trkpt>
      <trkpt lat="44.01273" lon="5.26235">
        <ele>577.41</ele>
        <time>2021-05-30T12:37:05Z</time>
      </trkpt>
      <trkpt lat="44.01273" lon="5.26234">
        <ele>581.25</ele>
        <time>2021-05-30T12:37:06Z</time>
      </trkpt>
      <trkpt lat="44.01273" lon="5.26232">
        <ele>579.33</ele>
        <time>2021-05-30T12:37:09Z</time>
      </trkpt>
      <trkpt lat="44.01271" lon="5.2623">
        <ele>579.33</ele>
        <time>2021-05-30T12:37:36Z</time>
      </trkpt>
      <trkpt lat="44.01265" lon="5.26221">
        <ele>580.77</ele>
        <time>2021-05-30T12:37:51Z</time>
      </trkpt>
      <trkpt lat="44.01251" lon="5.26208">
        <ele>579.81</ele>
        <time>2021-05-30T12:38:07Z</time>
      </trkpt>
      <trkpt lat="44.01236" lon="5.26188">
        <ele>578.85</ele>
        <time>2021-05-30T12:38:25Z</time>
      </trkpt>
      <trkpt lat="44.01231" lon="5.26185">
        <ele>578.85</ele>
        <time>2021-05-30T12:38:31Z</time>
      </trkpt>
      <trkpt lat="44.01224" lon="5.26179">
        <ele>578.37</ele>
        <time>2021-05-30T12:38:38Z</time>
      </trkpt>
      <trkpt lat="44.01203" lon="5.26154">
        <ele>577.89</ele>
        <time>2021-05-30T12:38:57Z</time>
      </trkpt>
      <trkpt lat="44.01191" lon="5.26134">
        <ele>577.41</ele>
        <time>2021-05-30T12:39:12Z</time>
      </trkpt>
      <trkpt lat="44.01177" lon="5.2611">
        <ele>577.41</ele>
        <time>2021-05-30T12:39:30Z</time>
      </trkpt>
      <trkpt lat="44.01162" lon="5.26093">
        <ele>575.97</ele>
        <time>2021-05-30T12:39:47Z</time>
      </trkpt>
      <trkpt lat="44.01151" lon="5.2608">
        <ele>576.93</ele>
        <time>2021-05-30T12:39:58Z</time>
      </trkpt>
      <trkpt lat="44.01142" lon="5.26067">
        <ele>575.01</ele>
        <time>2021-05-30T12:40:08Z</time>
      </trkpt>
      <trkpt lat="44.01126" lon="5.26055">
        <ele>575.01</ele>
        <time>2021-05-30T12:40:24Z</time>
      </trkpt>
      <trkpt lat="44.01122" lon="5.26053">
        <ele>575.49</ele>
        <time>2021-05-30T12:40:28Z</time>
      </trkpt>
      <trkpt lat="44.01114" lon="5.26052">
        <ele>575.49</ele>
        <time>2021-05-30T12:40:33Z</time>
      </trkpt>
      <trkpt lat="44.01109" lon="5.26047">
        <ele>574.53</ele>
        <time>2021-05-30T12:40:38Z</time>
      </trkpt>
      <trkpt lat="44.01098" lon="5.26032">
        <ele>574.04</ele>
        <time>2021-05-30T12:40:50Z</time>
      </trkpt>
      <trkpt lat="44.01078" lon="5.2602">
        <ele>572.12</ele>
        <time>2021-05-30T12:41:08Z</time>
      </trkpt>
      <trkpt lat="44.01068" lon="5.26014">
        <ele>571.64</ele>
        <time>2021-05-30T12:41:17Z</time>
      </trkpt>
      <trkpt lat="44.01048" lon="5.25999">
        <ele>570.68</ele>
        <time>2021-05-30T12:41:35Z</time>
      </trkpt>
      <trkpt lat="44.01038" lon="5.25982">
        <ele>571.64</ele>
        <time>2021-05-30T12:41:48Z</time>
      </trkpt>
      <trkpt lat="44.01028" lon="5.25951">
        <ele>569.72</ele>
        <time>2021-05-30T12:42:06Z</time>
      </trkpt>
      <trkpt lat="44.01027" lon="5.25946">
        <ele>569.72</ele>
        <time>2021-05-30T12:42:10Z</time>
      </trkpt>
      <trkpt lat="44.01011" lon="5.25934">
        <ele>569.24</ele>
        <time>2021-05-30T12:42:27Z</time>
      </trkpt>
      <trkpt lat="44.01009" lon="5.25934">
        <ele>568.76</ele>
        <time>2021-05-30T12:42:29Z</time>
      </trkpt>
      <trkpt lat="44.0099" lon="5.25941">
        <ele>568.76</ele>
        <time>2021-05-30T12:42:48Z</time>
      </trkpt>
      <trkpt lat="44.00988" lon="5.25944">
        <ele>569.72</ele>
        <time>2021-05-30T12:42:52Z</time>
      </trkpt>
      <trkpt lat="44.00987" lon="5.25944">
        <ele>564.43</ele>
        <time>2021-05-30T12:42:53Z</time>
      </trkpt>
      <trkpt lat="44.00987" lon="5.25945">
        <ele>568.28</ele>
        <time>2021-05-30T12:42:54Z</time>
      </trkpt>
      <trkpt lat="44.00986" lon="5.25947">
        <ele>569.24</ele>
        <time>2021-05-30T12:42:56Z</time>
      </trkpt>
      <trkpt lat="44.00986" lon="5.25948">
        <ele>567.8</ele>
        <time>2021-05-30T12:42:58Z</time>
      </trkpt>
      <trkpt lat="44.00984" lon="5.25951">
        <ele>565.87</ele>
        <time>2021-05-30T12:43:03Z</time>
      </trkpt>
      <trkpt lat="44.00984" lon="5.25953">
        <ele>568.76</ele>
        <time>2021-05-30T12:43:06Z</time>
      </trkpt>
      <trkpt lat="44.00984" lon="5.25954">
        <ele>567.32</ele>
        <time>2021-05-30T12:43:11Z</time>
      </trkpt>
      <trkpt lat="44.00983" lon="5.25954">
        <ele>565.39</ele>
        <time>2021-05-30T12:43:16Z</time>
      </trkpt>
      <trkpt lat="44.00983" lon="5.25954">
        <ele>567.8</ele>
        <time>2021-05-30T12:43:19Z</time>
      </trkpt>
      <trkpt lat="44.00984" lon="5.25956">
        <ele>568.76</ele>
        <time>2021-05-30T12:43:24Z</time>
      </trkpt>
      <trkpt lat="44.00983" lon="5.25956">
        <ele>565.39</ele>
        <time>2021-05-30T12:43:25Z</time>
      </trkpt>
      <trkpt lat="44.00983" lon="5.25956">
        <ele>565.39</ele>
        <time>2021-05-30T12:43:26Z</time>
      </trkpt>
      <trkpt lat="44.00981" lon="5.25957">
        <ele>569.24</ele>
        <time>2021-05-30T12:43:34Z</time>
      </trkpt>
      <trkpt lat="44.00981" lon="5.25957">
        <ele>565.87</ele>
        <time>2021-05-30T12:43:36Z</time>
      </trkpt>
      <trkpt lat="44.0098" lon="5.25957">
        <ele>565.87</ele>
        <time>2021-05-30T12:43:37Z</time>
      </trkpt>
      <trkpt lat="44.0098" lon="5.25957">
        <ele>564.91</ele>
        <time>2021-05-30T12:43:48Z</time>
      </trkpt>
      <trkpt lat="44.0098" lon="5.25958">
        <ele>565.87</ele>
        <time>2021-05-30T12:44:19Z</time>
      </trkpt>
      <trkpt lat="44.00981" lon="5.25958">
        <ele>565.87</ele>
        <time>2021-05-30T12:44:30Z</time>
      </trkpt>
      <trkpt lat="44.00983" lon="5.25956">
        <ele>567.32</ele>
        <time>2021-05-30T12:44:59Z</time>
      </trkpt>
      <trkpt lat="44.00983" lon="5.25954">
        <ele>565.87</ele>
        <time>2021-05-30T12:45:07Z</time>
      </trkpt>
      <trkpt lat="44.00982" lon="5.25953">
        <ele>567.32</ele>
        <time>2021-05-30T12:45:09Z</time>
      </trkpt>
      <trkpt lat="44.00982" lon="5.25953">
        <ele>565.87</ele>
        <time>2021-05-30T12:45:11Z</time>
      </trkpt>
      <trkpt lat="44.00982" lon="5.25951">
        <ele>569.72</ele>
        <time>2021-05-30T12:45:18Z</time>
      </trkpt>
      <trkpt lat="44.00982" lon="5.2595">
        <ele>566.83</ele>
        <time>2021-05-30T12:45:19Z</time>
      </trkpt>
      <trkpt lat="44.00982" lon="5.25947">
        <ele>568.28</ele>
        <time>2021-05-30T12:45:22Z</time>
      </trkpt>
      <trkpt lat="44.00982" lon="5.25944">
        <ele>565.87</ele>
        <time>2021-05-30T12:45:29Z</time>
      </trkpt>
      <trkpt lat="44.00982" lon="5.25944">
        <ele>568.76</ele>
        <time>2021-05-30T12:45:31Z</time>
      </trkpt>
      <trkpt lat="44.00982" lon="5.25944">
        <ele>566.35</ele>
        <time>2021-05-30T12:45:35Z</time>
      </trkpt>
      <trkpt lat="44.00981" lon="5.25945">
        <ele>567.8</ele>
        <time>2021-05-30T12:45:37Z</time>
      </trkpt>
      <trkpt lat="44.00978" lon="5.25943">
        <ele>567.32</ele>
        <time>2021-05-30T12:45:54Z</time>
      </trkpt>
      <trkpt lat="44.00971" lon="5.25932">
        <ele>568.76</ele>
        <time>2021-05-30T12:46:05Z</time>
      </trkpt>
      <trkpt lat="44.00968" lon="5.25923">
        <ele>568.28</ele>
        <time>2021-05-30T12:46:14Z</time>
      </trkpt>
      <trkpt lat="44.00967" lon="5.25918">
        <ele>565.87</ele>
        <time>2021-05-30T12:46:27Z</time>
      </trkpt>
      <trkpt lat="44.00968" lon="5.25916">
        <ele>567.32</ele>
        <time>2021-05-30T12:46:51Z</time>
      </trkpt>
      <trkpt lat="44.00966" lon="5.25899">
        <ele>566.83</ele>
        <time>2021-05-30T12:47:03Z</time>
      </trkpt>
      <trkpt lat="44.00963" lon="5.25895">
        <ele>565.39</ele>
        <time>2021-05-30T12:47:06Z</time>
      </trkpt>
      <trkpt lat="44.00956" lon="5.25879">
        <ele>563.47</ele>
        <time>2021-05-30T12:47:18Z</time>
      </trkpt>
      <trkpt lat="44.00949" lon="5.25857">
        <ele>561.07</ele>
        <time>2021-05-30T12:47:33Z</time>
      </trkpt>
      <trkpt lat="44.00955" lon="5.25841">
        <ele>560.11</ele>
        <time>2021-05-30T12:47:47Z</time>
      </trkpt>
      <trkpt lat="44.00969" lon="5.25831">
        <ele>558.66</ele>
        <time>2021-05-30T12:48:04Z</time>
      </trkpt>
      <trkpt lat="44.00983" lon="5.2583">
        <ele>559.14</ele>
        <time>2021-05-30T12:48:17Z</time>
      </trkpt>
      <trkpt lat="44.00989" lon="5.25831">
        <ele>558.66</ele>
        <time>2021-05-30T12:48:23Z</time>
      </trkpt>
      <trkpt lat="44.0101" lon="5.25833">
        <ele>557.22</ele>
        <time>2021-05-30T12:48:42Z</time>
      </trkpt>
      <trkpt lat="44.0102" lon="5.25833">
        <ele>556.26</ele>
        <time>2021-05-30T12:48:54Z</time>
      </trkpt>
      <trkpt lat="44.01034" lon="5.25835">
        <ele>554.82</ele>
        <time>2021-05-30T12:49:12Z</time>
      </trkpt>
      <trkpt lat="44.01038" lon="5.25833">
        <ele>555.3</ele>
        <time>2021-05-30T12:49:17Z</time>
      </trkpt>
      <trkpt lat="44.01039" lon="5.25831">
        <ele>553.86</ele>
        <time>2021-05-30T12:49:19Z</time>
      </trkpt>
      <trkpt lat="44.01047" lon="5.25827">
        <ele>551.93</ele>
        <time>2021-05-30T12:49:29Z</time>
      </trkpt>
      <trkpt lat="44.01055" lon="5.25822">
        <ele>549.53</ele>
        <time>2021-05-30T12:49:41Z</time>
      </trkpt>
      <trkpt lat="44.0107" lon="5.25814">
        <ele>549.05</ele>
        <time>2021-05-30T12:49:56Z</time>
      </trkpt>
      <trkpt lat="44.01081" lon="5.25809">
        <ele>549.05</ele>
        <time>2021-05-30T12:50:08Z</time>
      </trkpt>
      <trkpt lat="44.01086" lon="5.25807">
        <ele>550.49</ele>
        <time>2021-05-30T12:50:12Z</time>
      </trkpt>
      <trkpt lat="44.01104" lon="5.258">
        <ele>550.49</ele>
        <time>2021-05-30T12:50:29Z</time>
      </trkpt>
      <trkpt lat="44.01126" lon="5.25793">
        <ele>551.93</ele>
        <time>2021-05-30T12:50:47Z</time>
      </trkpt>
      <trkpt lat="44.0113" lon="5.25791">
        <ele>550.01</ele>
        <time>2021-05-30T12:50:52Z</time>
      </trkpt>
      <trkpt lat="44.01146" lon="5.25787">
        <ele>549.53</ele>
        <time>2021-05-30T12:51:08Z</time>
      </trkpt>
      <trkpt lat="44.01154" lon="5.25785">
        <ele>550.01</ele>
        <time>2021-05-30T12:51:18Z</time>
      </trkpt>
      <trkpt lat="44.01158" lon="5.25785">
        <ele>548.57</ele>
        <time>2021-05-30T12:51:23Z</time>
      </trkpt>
      <trkpt lat="44.01169" lon="5.25786">
        <ele>549.05</ele>
        <time>2021-05-30T12:51:37Z</time>
      </trkpt>
      <trkpt lat="44.01169" lon="5.25786">
        <ele>549.05</ele>
        <time>2021-05-30T12:51:38Z</time>
      </trkpt>
      <trkpt lat="44.01169" lon="5.25786">
        <ele>547.61</ele>
        <time>2021-05-30T12:51:40Z</time>
      </trkpt>
      <trkpt lat="44.01176" lon="5.25784">
        <ele>546.65</ele>
        <time>2021-05-30T12:51:54Z</time>
      </trkpt>
      <trkpt lat="44.0118" lon="5.25785">
        <ele>547.61</ele>
        <time>2021-05-30T12:51:58Z</time>
      </trkpt>
      <trkpt lat="44.01196" lon="5.25787">
        <ele>544.24</ele>
        <time>2021-05-30T12:52:14Z</time>
      </trkpt>
      <trkpt lat="44.01208" lon="5.25785">
        <ele>541.36</ele>
        <time>2021-05-30T12:52:28Z</time>
      </trkpt>
      <trkpt lat="44.0121" lon="5.25784">
        <ele>539.92</ele>
        <time>2021-05-30T12:52:31Z</time>
      </trkpt>
      <trkpt lat="44.0121" lon="5.25782">
        <ele>541.36</ele>
        <time>2021-05-30T12:52:32Z</time>
      </trkpt>
      <trkpt lat="44.01214" lon="5.25777">
        <ele>537.99</ele>
        <time>2021-05-30T12:52:38Z</time>
      </trkpt>
      <trkpt lat="44.01214" lon="5.25776">
        <ele>538.48</ele>
        <time>2021-05-30T12:52:39Z</time>
      </trkpt>
      <trkpt lat="44.01222" lon="5.25769">
        <ele>535.11</ele>
        <time>2021-05-30T12:52:49Z</time>
      </trkpt>
      <trkpt lat="44.01223" lon="5.25768">
        <ele>535.11</ele>
        <time>2021-05-30T12:52:50Z</time>
      </trkpt>
      <trkpt lat="44.01224" lon="5.25767">
        <ele>536.55</ele>
        <time>2021-05-30T12:52:52Z</time>
      </trkpt>
      <trkpt lat="44.01226" lon="5.25766">
        <ele>535.11</ele>
        <time>2021-05-30T12:52:54Z</time>
      </trkpt>
      <trkpt lat="44.01237" lon="5.25757">
        <ele>532.23</ele>
        <time>2021-05-30T12:53:08Z</time>
      </trkpt>
      <trkpt lat="44.01245" lon="5.25746">
        <ele>528.86</ele>
        <time>2021-05-30T12:53:22Z</time>
      </trkpt>
      <trkpt lat="44.01248" lon="5.25742">
        <ele>528.38</ele>
        <time>2021-05-30T12:53:27Z</time>
      </trkpt>
      <trkpt lat="44.01253" lon="5.25737">
        <ele>526.94</ele>
        <time>2021-05-30T12:53:34Z</time>
      </trkpt>
      <trkpt lat="44.0126" lon="5.25728">
        <ele>525.98</ele>
        <time>2021-05-30T12:53:44Z</time>
      </trkpt>
      <trkpt lat="44.01268" lon="5.25715">
        <ele>524.06</ele>
        <time>2021-05-30T12:53:58Z</time>
      </trkpt>
      <trkpt lat="44.01285" lon="5.25699">
        <ele>521.65</ele>
        <time>2021-05-30T12:54:16Z</time>
      </trkpt>
      <trkpt lat="44.01296" lon="5.25687">
        <ele>520.21</ele>
        <time>2021-05-30T12:54:30Z</time>
      </trkpt>
      <trkpt lat="44.01304" lon="5.25675">
        <ele>519.73</ele>
        <time>2021-05-30T12:54:41Z</time>
      </trkpt>
      <trkpt lat="44.01319" lon="5.25663">
        <ele>518.77</ele>
        <time>2021-05-30T12:54:56Z</time>
      </trkpt>
      <trkpt lat="44.01325" lon="5.25656">
        <ele>519.25</ele>
        <time>2021-05-30T12:55:05Z</time>
      </trkpt>
      <trkpt lat="44.01326" lon="5.25654">
        <ele>517.81</ele>
        <time>2021-05-30T12:55:07Z</time>
      </trkpt>
      <trkpt lat="44.01337" lon="5.25642">
        <ele>515.88</ele>
        <time>2021-05-30T12:55:23Z</time>
      </trkpt>
      <trkpt lat="44.01348" lon="5.2563">
        <ele>515.4</ele>
        <time>2021-05-30T12:55:38Z</time>
      </trkpt>
      <trkpt lat="44.0135" lon="5.25627">
        <ele>513.96</ele>
        <time>2021-05-30T12:55:41Z</time>
      </trkpt>
      <trkpt lat="44.01362" lon="5.25608">
        <ele>512.04</ele>
        <time>2021-05-30T12:55:58Z</time>
      </trkpt>
      <trkpt lat="44.01375" lon="5.2559">
        <ele>510.6</ele>
        <time>2021-05-30T12:56:14Z</time>
      </trkpt>
      <trkpt lat="44.01375" lon="5.25589">
        <ele>511.08</ele>
        <time>2021-05-30T12:56:15Z</time>
      </trkpt>
      <trkpt lat="44.01385" lon="5.25569">
        <ele>509.64</ele>
        <time>2021-05-30T12:56:30Z</time>
      </trkpt>
      <trkpt lat="44.01392" lon="5.25559">
        <ele>510.12</ele>
        <time>2021-05-30T12:56:38Z</time>
      </trkpt>
      <trkpt lat="44.01403" lon="5.2554">
        <ele>509.16</ele>
        <time>2021-05-30T12:56:55Z</time>
      </trkpt>
      <trkpt lat="44.01408" lon="5.25529">
        <ele>510.6</ele>
        <time>2021-05-30T12:57:04Z</time>
      </trkpt>
      <trkpt lat="44.01413" lon="5.25518">
        <ele>510.6</ele>
        <time>2021-05-30T12:57:13Z</time>
      </trkpt>
      <trkpt lat="44.01419" lon="5.25502">
        <ele>511.08</ele>
        <time>2021-05-30T12:57:26Z</time>
      </trkpt>
      <trkpt lat="44.01427" lon="5.25485">
        <ele>511.08</ele>
        <time>2021-05-30T12:57:41Z</time>
      </trkpt>
      <trkpt lat="44.01433" lon="5.25472">
        <ele>509.64</ele>
        <time>2021-05-30T12:57:54Z</time>
      </trkpt>
      <trkpt lat="44.01443" lon="5.25456">
        <ele>509.16</ele>
        <time>2021-05-30T12:58:11Z</time>
      </trkpt>
      <trkpt lat="44.01455" lon="5.25438">
        <ele>509.64</ele>
        <time>2021-05-30T12:58:27Z</time>
      </trkpt>
      <trkpt lat="44.01457" lon="5.25435">
        <ele>508.19</ele>
        <time>2021-05-30T12:58:30Z</time>
      </trkpt>
      <trkpt lat="44.01468" lon="5.2542">
        <ele>507.23</ele>
        <time>2021-05-30T12:58:45Z</time>
      </trkpt>
      <trkpt lat="44.01478" lon="5.25404">
        <ele>506.27</ele>
        <time>2021-05-30T12:59:00Z</time>
      </trkpt>
      <trkpt lat="44.01482" lon="5.25396">
        <ele>505.79</ele>
        <time>2021-05-30T12:59:12Z</time>
      </trkpt>
      <trkpt lat="44.01483" lon="5.25392">
        <ele>508.19</ele>
        <time>2021-05-30T12:59:18Z</time>
      </trkpt>
      <trkpt lat="44.01484" lon="5.25391">
        <ele>504.83</ele>
        <time>2021-05-30T12:59:20Z</time>
      </trkpt>
      <trkpt lat="44.01484" lon="5.2539">
        <ele>504.83</ele>
        <time>2021-05-30T12:59:21Z</time>
      </trkpt>
      <trkpt lat="44.01486" lon="5.25388">
        <ele>509.64</ele>
        <time>2021-05-30T12:59:25Z</time>
      </trkpt>
      <trkpt lat="44.01486" lon="5.25387">
        <ele>509.64</ele>
        <time>2021-05-30T12:59:26Z</time>
      </trkpt>
      <trkpt lat="44.01486" lon="5.25387">
        <ele>505.79</ele>
        <time>2021-05-30T12:59:27Z</time>
      </trkpt>
      <trkpt lat="44.01486" lon="5.25387">
        <ele>505.79</ele>
        <time>2021-05-30T12:59:28Z</time>
      </trkpt>
      <trkpt lat="44.01494" lon="5.25373">
        <ele>504.83</ele>
        <time>2021-05-30T12:59:45Z</time>
      </trkpt>
      <trkpt lat="44.01506" lon="5.25362">
        <ele>503.39</ele>
        <time>2021-05-30T13:00:01Z</time>
      </trkpt>
      <trkpt lat="44.01519" lon="5.25348">
        <ele>501.95</ele>
        <time>2021-05-30T13:00:18Z</time>
      </trkpt>
      <trkpt lat="44.01529" lon="5.25337">
        <ele>500.98</ele>
        <time>2021-05-30T13:00:32Z</time>
      </trkpt>
      <trkpt lat="44.01544" lon="5.25324">
        <ele>499.54</ele>
        <time>2021-05-30T13:00:47Z</time>
      </trkpt>
      <trkpt lat="44.01553" lon="5.25312">
        <ele>499.54</ele>
        <time>2021-05-30T13:01:01Z</time>
      </trkpt>
      <trkpt lat="44.01554" lon="5.2531">
        <ele>498.1</ele>
        <time>2021-05-30T13:01:03Z</time>
      </trkpt>
      <trkpt lat="44.0156" lon="5.25295">
        <ele>497.62</ele>
        <time>2021-05-30T13:01:17Z</time>
      </trkpt>
      <trkpt lat="44.01568" lon="5.2527">
        <ele>496.18</ele>
        <time>2021-05-30T13:01:34Z</time>
      </trkpt>
      <trkpt lat="44.01573" lon="5.25255">
        <ele>495.22</ele>
        <time>2021-05-30T13:01:47Z</time>
      </trkpt>
      <trkpt lat="44.01581" lon="5.25238">
        <ele>494.26</ele>
        <time>2021-05-30T13:02:01Z</time>
      </trkpt>
      <trkpt lat="44.01591" lon="5.25221">
        <ele>492.33</ele>
        <time>2021-05-30T13:02:18Z</time>
      </trkpt>
      <trkpt lat="44.01597" lon="5.25202">
        <ele>489.93</ele>
        <time>2021-05-30T13:02:32Z</time>
      </trkpt>
      <trkpt lat="44.016" lon="5.25194">
        <ele>488.97</ele>
        <time>2021-05-30T13:02:40Z</time>
      </trkpt>
      <trkpt lat="44.01613" lon="5.2518">
        <ele>487.05</ele>
        <time>2021-05-30T13:02:55Z</time>
      </trkpt>
      <trkpt lat="44.01623" lon="5.25172">
        <ele>486.56</ele>
        <time>2021-05-30T13:03:09Z</time>
      </trkpt>
      <trkpt lat="44.01625" lon="5.25171">
        <ele>485.12</ele>
        <time>2021-05-30T13:03:11Z</time>
      </trkpt>
      <trkpt lat="44.01636" lon="5.25164">
        <ele>483.68</ele>
        <time>2021-05-30T13:03:25Z</time>
      </trkpt>
      <trkpt lat="44.01651" lon="5.25152">
        <ele>482.24</ele>
        <time>2021-05-30T13:03:41Z</time>
      </trkpt>
      <trkpt lat="44.01663" lon="5.25142">
        <ele>480.32</ele>
        <time>2021-05-30T13:03:55Z</time>
      </trkpt>
      <trkpt lat="44.01677" lon="5.25132">
        <ele>478.87</ele>
        <time>2021-05-30T13:04:09Z</time>
      </trkpt>
      <trkpt lat="44.01689" lon="5.25125">
        <ele>477.43</ele>
        <time>2021-05-30T13:04:22Z</time>
      </trkpt>
      <trkpt lat="44.01697" lon="5.25117">
        <ele>477.43</ele>
        <time>2021-05-30T13:04:28Z</time>
      </trkpt>
      <trkpt lat="44.01703" lon="5.25109">
        <ele>476.95</ele>
        <time>2021-05-30T13:04:36Z</time>
      </trkpt>
      <trkpt lat="44.01709" lon="5.25097">
        <ele>473.59</ele>
        <time>2021-05-30T13:04:49Z</time>
      </trkpt>
      <trkpt lat="44.01715" lon="5.25084">
        <ele>472.14</ele>
        <time>2021-05-30T13:05:02Z</time>
      </trkpt>
      <trkpt lat="44.01717" lon="5.25078">
        <ele>470.7</ele>
        <time>2021-05-30T13:05:08Z</time>
      </trkpt>
      <trkpt lat="44.01718" lon="5.25077">
        <ele>473.11</ele>
        <time>2021-05-30T13:05:10Z</time>
      </trkpt>
      <trkpt lat="44.0172" lon="5.25075">
        <ele>471.18</ele>
        <time>2021-05-30T13:05:12Z</time>
      </trkpt>
      <trkpt lat="44.01731" lon="5.25059">
        <ele>469.26</ele>
        <time>2021-05-30T13:05:25Z</time>
      </trkpt>
      <trkpt lat="44.01742" lon="5.25043">
        <ele>467.34</ele>
        <time>2021-05-30T13:05:42Z</time>
      </trkpt>
      <trkpt lat="44.01749" lon="5.25034">
        <ele>465.9</ele>
        <time>2021-05-30T13:05:57Z</time>
      </trkpt>
      <trkpt lat="44.01758" lon="5.25022">
        <ele>466.38</ele>
        <time>2021-05-30T13:06:09Z</time>
      </trkpt>
      <trkpt lat="44.01771" lon="5.25009">
        <ele>464.93</ele>
        <time>2021-05-30T13:06:21Z</time>
      </trkpt>
      <trkpt lat="44.01774" lon="5.25009">
        <ele>465.9</ele>
        <time>2021-05-30T13:06:53Z</time>
      </trkpt>
      <trkpt lat="44.01777" lon="5.25008">
        <ele>466.86</ele>
        <time>2021-05-30T13:07:32Z</time>
      </trkpt>
      <trkpt lat="44.01776" lon="5.25003">
        <ele>467.34</ele>
        <time>2021-05-30T13:08:07Z</time>
      </trkpt>
      <trkpt lat="44.01782" lon="5.24998">
        <ele>466.86</ele>
        <time>2021-05-30T13:08:41Z</time>
      </trkpt>
      <trkpt lat="44.01779" lon="5.24995">
        <ele>466.86</ele>
        <time>2021-05-30T13:09:17Z</time>
      </trkpt>
      <trkpt lat="44.01779" lon="5.24994">
        <ele>466.38</ele>
        <time>2021-05-30T13:09:47Z</time>
      </trkpt>
      <trkpt lat="44.01783" lon="5.24993">
        <ele>465.9</ele>
        <time>2021-05-30T13:10:25Z</time>
      </trkpt>
      <trkpt lat="44.01784" lon="5.24995">
        <ele>464.93</ele>
        <time>2021-05-30T13:11:08Z</time>
      </trkpt>
      <trkpt lat="44.01783" lon="5.24995">
        <ele>464.45</ele>
        <time>2021-05-30T13:11:49Z</time>
      </trkpt>
      <trkpt lat="44.01781" lon="5.24995">
        <ele>463.49</ele>
        <time>2021-05-30T13:12:24Z</time>
      </trkpt>
      <trkpt lat="44.01781" lon="5.24995">
        <ele>463.01</ele>
        <time>2021-05-30T13:12:57Z</time>
      </trkpt>
      <trkpt lat="44.01786" lon="5.24998">
        <ele>462.53</ele>
        <time>2021-05-30T13:13:34Z</time>
      </trkpt>
      <trkpt lat="44.01786" lon="5.24997">
        <ele>462.05</ele>
        <time>2021-05-30T13:14:11Z</time>
      </trkpt>
      <trkpt lat="44.01784" lon="5.24992">
        <ele>461.09</ele>
        <time>2021-05-30T13:14:55Z</time>
      </trkpt>
      <trkpt lat="44.01787" lon="5.24997">
        <ele>460.61</ele>
        <time>2021-05-30T13:15:42Z</time>
      </trkpt>
      <trkpt lat="44.01791" lon="5.24998">
        <ele>460.13</ele>
        <time>2021-05-30T13:16:26Z</time>
      </trkpt>
      <trkpt lat="44.01788" lon="5.24999">
        <ele>459.65</ele>
        <time>2021-05-30T13:17:04Z</time>
      </trkpt>
      <trkpt lat="44.01786" lon="5.24997">
        <ele>458.69</ele>
        <time>2021-05-30T13:17:49Z</time>
      </trkpt>
      <trkpt lat="44.01785" lon="5.24999">
        <ele>458.69</ele>
        <time>2021-05-30T13:18:27Z</time>
      </trkpt>
      <trkpt lat="44.01788" lon="5.24995">
        <ele>458.21</ele>
        <time>2021-05-30T13:19:06Z</time>
      </trkpt>
      <trkpt lat="44.01787" lon="5.24995">
        <ele>457.72</ele>
        <time>2021-05-30T13:19:39Z</time>
      </trkpt>
      <trkpt lat="44.01786" lon="5.24997">
        <ele>459.65</ele>
        <time>2021-05-30T13:19:48Z</time>
      </trkpt>
      <trkpt lat="44.01783" lon="5.24994">
        <ele>458.21</ele>
        <time>2021-05-30T13:20:08Z</time>
      </trkpt>
      <trkpt lat="44.01787" lon="5.24993">
        <ele>458.21</ele>
        <time>2021-05-30T13:20:19Z</time>
      </trkpt>
      <trkpt lat="44.01789" lon="5.24992">
        <ele>456.76</ele>
        <time>2021-05-30T13:20:21Z</time>
      </trkpt>
      <trkpt lat="44.01796" lon="5.24979">
        <ele>453.88</ele>
        <time>2021-05-30T13:20:34Z</time>
      </trkpt>
      <trkpt lat="44.01802" lon="5.24963">
        <ele>452.44</ele>
        <time>2021-05-30T13:20:49Z</time>
      </trkpt>
      <trkpt lat="44.01802" lon="5.24961">
        <ele>451.48</ele>
        <time>2021-05-30T13:20:51Z</time>
      </trkpt>
      <trkpt lat="44.01807" lon="5.24942">
        <ele>449.55</ele>
        <time>2021-05-30T13:21:04Z</time>
      </trkpt>
      <trkpt lat="44.01812" lon="5.24923">
        <ele>446.67</ele>
        <time>2021-05-30T13:21:19Z</time>
      </trkpt>
      <trkpt lat="44.01819" lon="5.24905">
        <ele>444.75</ele>
        <time>2021-05-30T13:21:32Z</time>
      </trkpt>
      <trkpt lat="44.01824" lon="5.24895">
        <ele>438.5</ele>
        <time>2021-05-30T13:21:40Z</time>
      </trkpt>
      <trkpt lat="44.01824" lon="5.24894">
        <ele>441.38</ele>
        <time>2021-05-30T13:21:41Z</time>
      </trkpt>
      <trkpt lat="44.01825" lon="5.24893">
        <ele>448.11</ele>
        <time>2021-05-30T13:21:42Z</time>
      </trkpt>
      <trkpt lat="44.01825" lon="5.24891">
        <ele>446.19</ele>
        <time>2021-05-30T13:21:43Z</time>
      </trkpt>
      <trkpt lat="44.01826" lon="5.24888">
        <ele>443.31</ele>
        <time>2021-05-30T13:21:45Z</time>
      </trkpt>
      <trkpt lat="44.0183" lon="5.24883">
        <ele>441.86</ele>
        <time>2021-05-30T13:21:49Z</time>
      </trkpt>
      <trkpt lat="44.01831" lon="5.24878">
        <ele>443.31</ele>
        <time>2021-05-30T13:21:52Z</time>
      </trkpt>
      <trkpt lat="44.01833" lon="5.24871">
        <ele>440.9</ele>
        <time>2021-05-30T13:21:56Z</time>
      </trkpt>
      <trkpt lat="44.01834" lon="5.2487">
        <ele>441.38</ele>
        <time>2021-05-30T13:21:57Z</time>
      </trkpt>
      <trkpt lat="44.01836" lon="5.24867">
        <ele>440.42</ele>
        <time>2021-05-30T13:22:00Z</time>
      </trkpt>
      <trkpt lat="44.01847" lon="5.24841">
        <ele>438.5</ele>
        <time>2021-05-30T13:22:17Z</time>
      </trkpt>
      <trkpt lat="44.01848" lon="5.2484">
        <ele>438.5</ele>
        <time>2021-05-30T13:22:18Z</time>
      </trkpt>
      <trkpt lat="44.01853" lon="5.24826">
        <ele>438.5</ele>
        <time>2021-05-30T13:22:27Z</time>
      </trkpt>
      <trkpt lat="44.01855" lon="5.24819">
        <ele>438.5</ele>
        <time>2021-05-30T13:22:32Z</time>
      </trkpt>
      <trkpt lat="44.01857" lon="5.24814">
        <ele>436.58</ele>
        <time>2021-05-30T13:22:35Z</time>
      </trkpt>
      <trkpt lat="44.01865" lon="5.24793">
        <ele>435.13</ele>
        <time>2021-05-30T13:22:49Z</time>
      </trkpt>
      <trkpt lat="44.01871" lon="5.24778">
        <ele>433.69</ele>
        <time>2021-05-30T13:23:04Z</time>
      </trkpt>
      <trkpt lat="44.01879" lon="5.2476">
        <ele>430.81</ele>
        <time>2021-05-30T13:23:18Z</time>
      </trkpt>
      <trkpt lat="44.01884" lon="5.24747">
        <ele>431.29</ele>
        <time>2021-05-30T13:23:27Z</time>
      </trkpt>
      <trkpt lat="44.01887" lon="5.24739">
        <ele>428.4</ele>
        <time>2021-05-30T13:23:32Z</time>
      </trkpt>
      <trkpt lat="44.01889" lon="5.24735">
        <ele>433.21</ele>
        <time>2021-05-30T13:23:34Z</time>
      </trkpt>
      <trkpt lat="44.0189" lon="5.24734">
        <ele>429.37</ele>
        <time>2021-05-30T13:23:35Z</time>
      </trkpt>
      <trkpt lat="44.01892" lon="5.2473">
        <ele>432.73</ele>
        <time>2021-05-30T13:23:38Z</time>
      </trkpt>
      <trkpt lat="44.01893" lon="5.24725">
        <ele>429.37</ele>
        <time>2021-05-30T13:23:41Z</time>
      </trkpt>
      <trkpt lat="44.01894" lon="5.24722">
        <ele>430.33</ele>
        <time>2021-05-30T13:23:43Z</time>
      </trkpt>
      <trkpt lat="44.01902" lon="5.24711">
        <ele>429.85</ele>
        <time>2021-05-30T13:23:53Z</time>
      </trkpt>
      <trkpt lat="44.01903" lon="5.24699">
        <ele>427.92</ele>
        <time>2021-05-30T13:24:00Z</time>
      </trkpt>
      <trkpt lat="44.01907" lon="5.24687">
        <ele>428.4</ele>
        <time>2021-05-30T13:24:09Z</time>
      </trkpt>
      <trkpt lat="44.01908" lon="5.24686">
        <ele>428.4</ele>
        <time>2021-05-30T13:24:10Z</time>
      </trkpt>
      <trkpt lat="44.0191" lon="5.24684">
        <ele>426.48</ele>
        <time>2021-05-30T13:24:12Z</time>
      </trkpt>
      <trkpt lat="44.01911" lon="5.24682">
        <ele>423.12</ele>
        <time>2021-05-30T13:24:14Z</time>
      </trkpt>
      <trkpt lat="44.01912" lon="5.2468">
        <ele>427.92</ele>
        <time>2021-05-30T13:24:15Z</time>
      </trkpt>
      <trkpt lat="44.01913" lon="5.24677">
        <ele>428.89</ele>
        <time>2021-05-30T13:24:17Z</time>
      </trkpt>
      <trkpt lat="44.01915" lon="5.24672">
        <ele>426.48</ele>
        <time>2021-05-30T13:24:20Z</time>
      </trkpt>
      <trkpt lat="44.01923" lon="5.24648">
        <ele>424.08</ele>
        <time>2021-05-30T13:24:36Z</time>
      </trkpt>
      <trkpt lat="44.01926" lon="5.24643">
        <ele>423.12</ele>
        <time>2021-05-30T13:24:40Z</time>
      </trkpt>
      <trkpt lat="44.01929" lon="5.24637">
        <ele>423.6</ele>
        <time>2021-05-30T13:24:45Z</time>
      </trkpt>
      <trkpt lat="44.01935" lon="5.24622">
        <ele>421.68</ele>
        <time>2021-05-30T13:24:56Z</time>
      </trkpt>
      <trkpt lat="44.01937" lon="5.24617">
        <ele>423.12</ele>
        <time>2021-05-30T13:25:00Z</time>
      </trkpt>
      <trkpt lat="44.0194" lon="5.24612">
        <ele>421.68</ele>
        <time>2021-05-30T13:25:04Z</time>
      </trkpt>
      <trkpt lat="44.01942" lon="5.24607">
        <ele>421.19</ele>
        <time>2021-05-30T13:25:08Z</time>
      </trkpt>
      <trkpt lat="44.0195" lon="5.24595">
        <ele>419.75</ele>
        <time>2021-05-30T13:25:19Z</time>
      </trkpt>
      <trkpt lat="44.01957" lon="5.24582">
        <ele>418.31</ele>
        <time>2021-05-30T13:25:30Z</time>
      </trkpt>
      <trkpt lat="44.01959" lon="5.24579">
        <ele>417.83</ele>
        <time>2021-05-30T13:25:56Z</time>
      </trkpt>
      <trkpt lat="44.01961" lon="5.24579">
        <ele>416.39</ele>
        <time>2021-05-30T13:26:15Z</time>
      </trkpt>
      <trkpt lat="44.01963" lon="5.24582">
        <ele>418.31</ele>
        <time>2021-05-30T13:26:17Z</time>
      </trkpt>
      <trkpt lat="44.01966" lon="5.24585">
        <ele>416.87</ele>
        <time>2021-05-30T13:26:20Z</time>
      </trkpt>
      <trkpt lat="44.01977" lon="5.24605">
        <ele>414.47</ele>
        <time>2021-05-30T13:26:36Z</time>
      </trkpt>
      <trkpt lat="44.01979" lon="5.24612">
        <ele>413.02</ele>
        <time>2021-05-30T13:26:40Z</time>
      </trkpt>
      <trkpt lat="44.01981" lon="5.24621">
        <ele>412.54</ele>
        <time>2021-05-30T13:26:46Z</time>
      </trkpt>
      <trkpt lat="44.01982" lon="5.24628">
        <ele>411.1</ele>
        <time>2021-05-30T13:26:50Z</time>
      </trkpt>
      <trkpt lat="44.01985" lon="5.2465">
        <ele>407.26</ele>
        <time>2021-05-30T13:27:04Z</time>
      </trkpt>
      <trkpt lat="44.01987" lon="5.24664">
        <ele>405.33</ele>
        <time>2021-05-30T13:27:12Z</time>
      </trkpt>
      <trkpt lat="44.01991" lon="5.24681">
        <ele>403.41</ele>
        <time>2021-05-30T13:27:26Z</time>
      </trkpt>
      <trkpt lat="44.01992" lon="5.24704">
        <ele>400.05</ele>
        <time>2021-05-30T13:27:43Z</time>
      </trkpt>
      <trkpt lat="44.01992" lon="5.24714">
        <ele>399.08</ele>
        <time>2021-05-30T13:27:50Z</time>
      </trkpt>
      <trkpt lat="44.01992" lon="5.24719">
        <ele>398.12</ele>
        <time>2021-05-30T13:27:53Z</time>
      </trkpt>
      <trkpt lat="44.01993" lon="5.24745">
        <ele>394.76</ele>
        <time>2021-05-30T13:28:09Z</time>
      </trkpt>
      <trkpt lat="44.01993" lon="5.24746">
        <ele>394.76</ele>
        <time>2021-05-30T13:28:10Z</time>
      </trkpt>
      <trkpt lat="44.01992" lon="5.2477">
        <ele>394.28</ele>
        <time>2021-05-30T13:28:25Z</time>
      </trkpt>
      <trkpt lat="44.01989" lon="5.24796">
        <ele>391.87</ele>
        <time>2021-05-30T13:28:40Z</time>
      </trkpt>
      <trkpt lat="44.01992" lon="5.24814">
        <ele>389.47</ele>
        <time>2021-05-30T13:28:53Z</time>
      </trkpt>
      <trkpt lat="44.01994" lon="5.24814">
        <ele>390.91</ele>
        <time>2021-05-30T13:28:57Z</time>
      </trkpt>
      <trkpt lat="44.01997" lon="5.24814">
        <ele>389.95</ele>
        <time>2021-05-30T13:29:01Z</time>
      </trkpt>
      <trkpt lat="44.02001" lon="5.24811">
        <ele>389.47</ele>
        <time>2021-05-30T13:29:06Z</time>
      </trkpt>
      <trkpt lat="44.02012" lon="5.24786">
        <ele>387.55</ele>
        <time>2021-05-30T13:29:24Z</time>
      </trkpt>
      <trkpt lat="44.02013" lon="5.24781">
        <ele>386.59</ele>
        <time>2021-05-30T13:29:27Z</time>
      </trkpt>
      <trkpt lat="44.02021" lon="5.24754">
        <ele>384.66</ele>
        <time>2021-05-30T13:29:44Z</time>
      </trkpt>
      <trkpt lat="44.02024" lon="5.24744">
        <ele>384.66</ele>
        <time>2021-05-30T13:29:51Z</time>
      </trkpt>
      <trkpt lat="44.02029" lon="5.24728">
        <ele>383.7</ele>
        <time>2021-05-30T13:30:02Z</time>
      </trkpt>
      <trkpt lat="44.02037" lon="5.24702">
        <ele>382.26</ele>
        <time>2021-05-30T13:30:19Z</time>
      </trkpt>
      <trkpt lat="44.02042" lon="5.24687">
        <ele>380.82</ele>
        <time>2021-05-30T13:30:28Z</time>
      </trkpt>
      <trkpt lat="44.02045" lon="5.24668">
        <ele>379.86</ele>
        <time>2021-05-30T13:30:39Z</time>
      </trkpt>
      <trkpt lat="44.02049" lon="5.24641">
        <ele>378.42</ele>
        <time>2021-05-30T13:30:54Z</time>
      </trkpt>
      <trkpt lat="44.02049" lon="5.24638">
        <ele>378.42</ele>
        <time>2021-05-30T13:30:56Z</time>
      </trkpt>
      <trkpt lat="44.0205" lon="5.24617">
        <ele>376.97</ele>
        <time>2021-05-30T13:31:10Z</time>
      </trkpt>
      <trkpt lat="44.02049" lon="5.24602">
        <ele>375.53</ele>
        <time>2021-05-30T13:31:17Z</time>
      </trkpt>
      <trkpt lat="44.02049" lon="5.24597">
        <ele>376.97</ele>
        <time>2021-05-30T13:31:19Z</time>
      </trkpt>
      <trkpt lat="44.02048" lon="5.24591">
        <ele>375.53</ele>
        <time>2021-05-30T13:31:22Z</time>
      </trkpt>
      <trkpt lat="44.02043" lon="5.24572">
        <ele>374.09</ele>
        <time>2021-05-30T13:31:33Z</time>
      </trkpt>
      <trkpt lat="44.02038" lon="5.24556">
        <ele>374.09</ele>
        <time>2021-05-30T13:31:44Z</time>
      </trkpt>
      <trkpt lat="44.02037" lon="5.24551">
        <ele>372.65</ele>
        <time>2021-05-30T13:31:47Z</time>
      </trkpt>
      <trkpt lat="44.02033" lon="5.24528">
        <ele>370.24</ele>
        <time>2021-05-30T13:32:03Z</time>
      </trkpt>
      <trkpt lat="44.02033" lon="5.24506">
        <ele>369.28</ele>
        <time>2021-05-30T13:32:19Z</time>
      </trkpt>
      <trkpt lat="44.02035" lon="5.24486">
        <ele>365.92</ele>
        <time>2021-05-30T13:32:32Z</time>
      </trkpt>
      <trkpt lat="44.02033" lon="5.24463">
        <ele>365.44</ele>
        <time>2021-05-30T13:32:47Z</time>
      </trkpt>
      <trkpt lat="44.02032" lon="5.24443">
        <ele>364.48</ele>
        <time>2021-05-30T13:33:00Z</time>
      </trkpt>
      <trkpt lat="44.02031" lon="5.24432">
        <ele>363.04</ele>
        <time>2021-05-30T13:33:15Z</time>
      </trkpt>
      <trkpt lat="44.02034" lon="5.24419">
        <ele>359.67</ele>
        <time>2021-05-30T13:33:26Z</time>
      </trkpt>
      <trkpt lat="44.02039" lon="5.2441">
        <ele>359.67</ele>
        <time>2021-05-30T13:33:34Z</time>
      </trkpt>
      <trkpt lat="44.02044" lon="5.24402">
        <ele>358.71</ele>
        <time>2021-05-30T13:33:44Z</time>
      </trkpt>
      <trkpt lat="44.02047" lon="5.24392">
        <ele>357.27</ele>
        <time>2021-05-30T13:33:52Z</time>
      </trkpt>
      <trkpt lat="44.02051" lon="5.24374">
        <ele>354.86</ele>
        <time>2021-05-30T13:34:05Z</time>
      </trkpt>
      <trkpt lat="44.02057" lon="5.24356">
        <ele>352.94</ele>
        <time>2021-05-30T13:34:19Z</time>
      </trkpt>
      <trkpt lat="44.02061" lon="5.2434">
        <ele>350.54</ele>
        <time>2021-05-30T13:34:31Z</time>
      </trkpt>
      <trkpt lat="44.02063" lon="5.24322">
        <ele>349.1</ele>
        <time>2021-05-30T13:34:46Z</time>
      </trkpt>
      <trkpt lat="44.02067" lon="5.24305">
        <ele>347.65</ele>
        <time>2021-05-30T13:35:00Z</time>
      </trkpt>
      <trkpt lat="44.02069" lon="5.24292">
        <ele>346.21</ele>
        <time>2021-05-30T13:35:09Z</time>
      </trkpt>
      <trkpt lat="44.0207" lon="5.24287">
        <ele>346.21</ele>
        <time>2021-05-30T13:35:12Z</time>
      </trkpt>
      <trkpt lat="44.02075" lon="5.24269">
        <ele>345.25</ele>
        <time>2021-05-30T13:35:24Z</time>
      </trkpt>
      <trkpt lat="44.02077" lon="5.24265">
        <ele>343.81</ele>
        <time>2021-05-30T13:35:27Z</time>
      </trkpt>
      <trkpt lat="44.02079" lon="5.2426">
        <ele>342.85</ele>
        <time>2021-05-30T13:35:31Z</time>
      </trkpt>
      <trkpt lat="44.02082" lon="5.24253">
        <ele>342.37</ele>
        <time>2021-05-30T13:35:36Z</time>
      </trkpt>
      <trkpt lat="44.02089" lon="5.24233">
        <ele>340.92</ele>
        <time>2021-05-30T13:35:50Z</time>
      </trkpt>
      <trkpt lat="44.02093" lon="5.24219">
        <ele>339.48</ele>
        <time>2021-05-30T13:36:01Z</time>
      </trkpt>
      <trkpt lat="44.02103" lon="5.24197">
        <ele>336.6</ele>
        <time>2021-05-30T13:36:19Z</time>
      </trkpt>
      <trkpt lat="44.02108" lon="5.24192">
        <ele>335.64</ele>
        <time>2021-05-30T13:36:26Z</time>
      </trkpt>
      <trkpt lat="44.02113" lon="5.24187">
        <ele>335.16</ele>
        <time>2021-05-30T13:36:32Z</time>
      </trkpt>
      <trkpt lat="44.02117" lon="5.24186">
        <ele>334.2</ele>
        <time>2021-05-30T13:36:36Z</time>
      </trkpt>
      <trkpt lat="44.02129" lon="5.24178">
        <ele>332.75</ele>
        <time>2021-05-30T13:36:50Z</time>
      </trkpt>
      <trkpt lat="44.02147" lon="5.24168">
        <ele>330.35</ele>
        <time>2021-05-30T13:37:07Z</time>
      </trkpt>
      <trkpt lat="44.02156" lon="5.24159">
        <ele>328.91</ele>
        <time>2021-05-30T13:37:16Z</time>
      </trkpt>
      <trkpt lat="44.02163" lon="5.24152">
        <ele>328.91</ele>
        <time>2021-05-30T13:37:34Z</time>
      </trkpt>
      <trkpt lat="44.02168" lon="5.24146">
        <ele>327.95</ele>
        <time>2021-05-30T13:37:49Z</time>
      </trkpt>
      <trkpt lat="44.02167" lon="5.24145">
        <ele>326.99</ele>
        <time>2021-05-30T13:38:08Z</time>
      </trkpt>
      <trkpt lat="44.02164" lon="5.24142">
        <ele>325.54</ele>
        <time>2021-05-30T13:38:39Z</time>
      </trkpt>
      <trkpt lat="44.02165" lon="5.24142">
        <ele>325.06</ele>
        <time>2021-05-30T13:39:08Z</time>
      </trkpt>
      <trkpt lat="44.02167" lon="5.24141">
        <ele>324.58</ele>
        <time>2021-05-30T13:39:44Z</time>
      </trkpt>
      <trkpt lat="44.02164" lon="5.24142">
        <ele>324.1</ele>
        <time>2021-05-30T13:40:23Z</time>
      </trkpt>
      <trkpt lat="44.02161" lon="5.24142">
        <ele>324.1</ele>
        <time>2021-05-30T13:40:54Z</time>
      </trkpt>
      <trkpt lat="44.02163" lon="5.24141">
        <ele>323.62</ele>
        <time>2021-05-30T13:41:34Z</time>
      </trkpt>
      <trkpt lat="44.02165" lon="5.2414">
        <ele>323.62</ele>
        <time>2021-05-30T13:42:04Z</time>
      </trkpt>
      <trkpt lat="44.02164" lon="5.24141">
        <ele>323.14</ele>
        <time>2021-05-30T13:42:42Z</time>
      </trkpt>
      <trkpt lat="44.02165" lon="5.24142">
        <ele>324.1</ele>
        <time>2021-05-30T13:43:13Z</time>
      </trkpt>
      <trkpt lat="44.02164" lon="5.24145">
        <ele>323.62</ele>
        <time>2021-05-30T13:43:41Z</time>
      </trkpt>
      <trkpt lat="44.02164" lon="5.24145">
        <ele>323.62</ele>
        <time>2021-05-30T13:44:07Z</time>
      </trkpt>
      <trkpt lat="44.02168" lon="5.24144">
        <ele>325.54</ele>
        <time>2021-05-30T13:44:26Z</time>
      </trkpt>
      <trkpt lat="44.02169" lon="5.24144">
        <ele>325.54</ele>
        <time>2021-05-30T13:44:27Z</time>
      </trkpt>
      <trkpt lat="44.0217" lon="5.24144">
        <ele>324.1</ele>
        <time>2021-05-30T13:44:30Z</time>
      </trkpt>
      <trkpt lat="44.0217" lon="5.24144">
        <ele>326.02</ele>
        <time>2021-05-30T13:44:33Z</time>
      </trkpt>
      <trkpt lat="44.0217" lon="5.24144">
        <ele>322.18</ele>
        <time>2021-05-30T13:44:34Z</time>
      </trkpt>
      <trkpt lat="44.0217" lon="5.24144">
        <ele>322.18</ele>
        <time>2021-05-30T13:44:35Z</time>
      </trkpt>
      <trkpt lat="44.02169" lon="5.24145">
        <ele>325.06</ele>
        <time>2021-05-30T13:44:36Z</time>
      </trkpt>
      <trkpt lat="44.02169" lon="5.24142">
        <ele>319.78</ele>
        <time>2021-05-30T13:44:45Z</time>
      </trkpt>
      <trkpt lat="44.02169" lon="5.24143">
        <ele>323.14</ele>
        <time>2021-05-30T13:44:46Z</time>
      </trkpt>
      <trkpt lat="44.02169" lon="5.24142">
        <ele>325.54</ele>
        <time>2021-05-30T13:44:48Z</time>
      </trkpt>
      <trkpt lat="44.02169" lon="5.24141">
        <ele>326.99</ele>
        <time>2021-05-30T13:44:51Z</time>
      </trkpt>
      <trkpt lat="44.02169" lon="5.24141">
        <ele>324.58</ele>
        <time>2021-05-30T13:44:53Z</time>
      </trkpt>
      <trkpt lat="44.02167" lon="5.24138">
        <ele>322.66</ele>
        <time>2021-05-30T13:45:14Z</time>
      </trkpt>
      <trkpt lat="44.02166" lon="5.24138">
        <ele>323.62</ele>
        <time>2021-05-30T13:45:24Z</time>
      </trkpt>
      <trkpt lat="44.02167" lon="5.24138">
        <ele>320.26</ele>
        <time>2021-05-30T13:45:37Z</time>
      </trkpt>
      <trkpt lat="44.02167" lon="5.24138">
        <ele>321.7</ele>
        <time>2021-05-30T13:45:38Z</time>
      </trkpt>
      <trkpt lat="44.02167" lon="5.24138">
        <ele>327.47</ele>
        <time>2021-05-30T13:45:39Z</time>
      </trkpt>
      <trkpt lat="44.02167" lon="5.24137">
        <ele>327.47</ele>
        <time>2021-05-30T13:45:40Z</time>
      </trkpt>
      <trkpt lat="44.02167" lon="5.24137">
        <ele>324.58</ele>
        <time>2021-05-30T13:45:42Z</time>
      </trkpt>
      <trkpt lat="44.02168" lon="5.24137">
        <ele>323.14</ele>
        <time>2021-05-30T13:45:44Z</time>
      </trkpt>
      <trkpt lat="44.0217" lon="5.24138">
        <ele>322.66</ele>
        <time>2021-05-30T13:45:52Z</time>
      </trkpt>
      <trkpt lat="44.0217" lon="5.24132">
        <ele>322.66</ele>
        <time>2021-05-30T13:46:04Z</time>
      </trkpt>
      <trkpt lat="44.02173" lon="5.24119">
        <ele>320.26</ele>
        <time>2021-05-30T13:46:18Z</time>
      </trkpt>
      <trkpt lat="44.02174" lon="5.24114">
        <ele>320.74</ele>
        <time>2021-05-30T13:46:22Z</time>
      </trkpt>
      <trkpt lat="44.02175" lon="5.24109">
        <ele>319.3</ele>
        <time>2021-05-30T13:46:26Z</time>
      </trkpt>
      <trkpt lat="44.02175" lon="5.24095">
        <ele>318.81</ele>
        <time>2021-05-30T13:46:40Z</time>
      </trkpt>
      <trkpt lat="44.0218" lon="5.24082">
        <ele>317.85</ele>
        <time>2021-05-30T13:46:50Z</time>
      </trkpt>
      <trkpt lat="44.02182" lon="5.24079">
        <ele>316.89</ele>
        <time>2021-05-30T13:46:53Z</time>
      </trkpt>
      <trkpt lat="44.02186" lon="5.24064">
        <ele>316.41</ele>
        <time>2021-05-30T13:47:03Z</time>
      </trkpt>
      <trkpt lat="44.02189" lon="5.24048">
        <ele>314.49</ele>
        <time>2021-05-30T13:47:14Z</time>
      </trkpt>
      <trkpt lat="44.0219" lon="5.24033">
        <ele>314.01</ele>
        <time>2021-05-30T13:47:23Z</time>
      </trkpt>
      <trkpt lat="44.02185" lon="5.24007">
        <ele>312.09</ele>
        <time>2021-05-30T13:47:40Z</time>
      </trkpt>
      <trkpt lat="44.02172" lon="5.23988">
        <ele>311.12</ele>
        <time>2021-05-30T13:47:57Z</time>
      </trkpt>
      <trkpt lat="44.02166" lon="5.23979">
        <ele>310.64</ele>
        <time>2021-05-30T13:48:12Z</time>
      </trkpt>
      <trkpt lat="44.02152" lon="5.23959">
        <ele>309.68</ele>
        <time>2021-05-30T13:48:30Z</time>
      </trkpt>
      <trkpt lat="44.02137" lon="5.2394">
        <ele>307.76</ele>
        <time>2021-05-30T13:48:49Z</time>
      </trkpt>
      <trkpt lat="44.02134" lon="5.23937">
        <ele>307.76</ele>
        <time>2021-05-30T13:48:52Z</time>
      </trkpt>
      <trkpt lat="44.02117" lon="5.23917">
        <ele>307.28</ele>
        <time>2021-05-30T13:49:10Z</time>
      </trkpt>
      <trkpt lat="44.02113" lon="5.23912">
        <ele>308.72</ele>
        <time>2021-05-30T13:49:16Z</time>
      </trkpt>
      <trkpt lat="44.02108" lon="5.23901">
        <ele>308.72</ele>
        <time>2021-05-30T13:49:26Z</time>
      </trkpt>
      <trkpt lat="44.02099" lon="5.23895">
        <ele>307.28</ele>
        <time>2021-05-30T13:49:38Z</time>
      </trkpt>
      <trkpt lat="44.02097" lon="5.23894">
        <ele>308.72</ele>
        <time>2021-05-30T13:49:40Z</time>
      </trkpt>
      <trkpt lat="44.02093" lon="5.23891">
        <ele>307.28</ele>
        <time>2021-05-30T13:49:46Z</time>
      </trkpt>
      <trkpt lat="44.02086" lon="5.23888">
        <ele>308.72</ele>
        <time>2021-05-30T13:49:54Z</time>
      </trkpt>
      <trkpt lat="44.02079" lon="5.23873">
        <ele>306.8</ele>
        <time>2021-05-30T13:50:08Z</time>
      </trkpt>
      <trkpt lat="44.02078" lon="5.23872">
        <ele>306.8</ele>
        <time>2021-05-30T13:50:10Z</time>
      </trkpt>
      <trkpt lat="44.02079" lon="5.23869">
        <ele>306.8</ele>
        <time>2021-05-30T13:50:13Z</time>
      </trkpt>
      <trkpt lat="44.02078" lon="5.23854">
        <ele>307.76</ele>
        <time>2021-05-30T13:50:23Z</time>
      </trkpt>
      <trkpt lat="44.02079" lon="5.23846">
        <ele>306.32</ele>
        <time>2021-05-30T13:50:29Z</time>
      </trkpt>
      <trkpt lat="44.02084" lon="5.23832">
        <ele>307.76</ele>
        <time>2021-05-30T13:50:42Z</time>
      </trkpt>
      <trkpt lat="44.02084" lon="5.2383">
        <ele>307.76</ele>
        <time>2021-05-30T13:50:43Z</time>
      </trkpt>
      <trkpt lat="44.02087" lon="5.2382">
        <ele>306.32</ele>
        <time>2021-05-30T13:50:50Z</time>
      </trkpt>
      <trkpt lat="44.02088" lon="5.23802">
        <ele>306.8</ele>
        <time>2021-05-30T13:51:03Z</time>
      </trkpt>
      <trkpt lat="44.02093" lon="5.23786">
        <ele>307.28</ele>
        <time>2021-05-30T13:51:17Z</time>
      </trkpt>
      <trkpt lat="44.02094" lon="5.2378">
        <ele>306.32</ele>
        <time>2021-05-30T13:51:22Z</time>
      </trkpt>
      <trkpt lat="44.02099" lon="5.23764">
        <ele>306.32</ele>
        <time>2021-05-30T13:51:34Z</time>
      </trkpt>
      <trkpt lat="44.02102" lon="5.2376">
        <ele>306.8</ele>
        <time>2021-05-30T13:51:45Z</time>
      </trkpt>
      <trkpt lat="44.02102" lon="5.23757">
        <ele>307.76</ele>
        <time>2021-05-30T13:51:49Z</time>
      </trkpt>
      <trkpt lat="44.02102" lon="5.23744">
        <ele>307.76</ele>
        <time>2021-05-30T13:52:00Z</time>
      </trkpt>
      <trkpt lat="44.02103" lon="5.23726">
        <ele>308.24</ele>
        <time>2021-05-30T13:52:13Z</time>
      </trkpt>
      <trkpt lat="44.02101" lon="5.2371">
        <ele>308.72</ele>
        <time>2021-05-30T13:52:28Z</time>
      </trkpt>
      <trkpt lat="44.02101" lon="5.23702">
        <ele>308.72</ele>
        <time>2021-05-30T13:52:34Z</time>
      </trkpt>
      <trkpt lat="44.021" lon="5.23677">
        <ele>308.24</ele>
        <time>2021-05-30T13:52:49Z</time>
      </trkpt>
      <trkpt lat="44.02099" lon="5.23656">
        <ele>309.2</ele>
        <time>2021-05-30T13:53:03Z</time>
      </trkpt>
      <trkpt lat="44.02099" lon="5.23654">
        <ele>309.2</ele>
        <time>2021-05-30T13:53:05Z</time>
      </trkpt>
      <trkpt lat="44.02098" lon="5.23648">
        <ele>309.68</ele>
        <time>2021-05-30T13:53:11Z</time>
      </trkpt>
      <trkpt lat="44.02092" lon="5.23633">
        <ele>310.16</ele>
        <time>2021-05-30T13:53:27Z</time>
      </trkpt>
      <trkpt lat="44.02091" lon="5.23632">
        <ele>310.16</ele>
        <time>2021-05-30T13:53:28Z</time>
      </trkpt>
      <trkpt lat="44.02085" lon="5.23624">
        <ele>309.2</ele>
        <time>2021-05-30T13:53:38Z</time>
      </trkpt>
      <trkpt lat="44.02084" lon="5.23623">
        <ele>311.12</ele>
        <time>2021-05-30T13:53:40Z</time>
      </trkpt>
      <trkpt lat="44.02078" lon="5.23615">
        <ele>310.64</ele>
        <time>2021-05-30T13:53:48Z</time>
      </trkpt>
      <trkpt lat="44.02065" lon="5.23601">
        <ele>310.64</ele>
        <time>2021-05-30T13:54:01Z</time>
      </trkpt>
      <trkpt lat="44.02054" lon="5.23593">
        <ele>310.16</ele>
        <time>2021-05-30T13:54:13Z</time>
      </trkpt>
      <trkpt lat="44.02052" lon="5.23591">
        <ele>310.16</ele>
        <time>2021-05-30T13:54:16Z</time>
      </trkpt>
      <trkpt lat="44.02041" lon="5.23579">
        <ele>310.64</ele>
        <time>2021-05-30T13:54:29Z</time>
      </trkpt>
      <trkpt lat="44.02028" lon="5.23562">
        <ele>311.6</ele>
        <time>2021-05-30T13:54:47Z</time>
      </trkpt>
      <trkpt lat="44.0202" lon="5.23555">
        <ele>311.6</ele>
        <time>2021-05-30T13:54:55Z</time>
      </trkpt>
      <trkpt lat="44.02004" lon="5.23538">
        <ele>312.09</ele>
        <time>2021-05-30T13:55:06Z</time>
      </trkpt>
      <trkpt lat="44.0199" lon="5.2352">
        <ele>312.09</ele>
        <time>2021-05-30T13:55:19Z</time>
      </trkpt>
      <trkpt lat="44.01988" lon="5.23516">
        <ele>312.09</ele>
        <time>2021-05-30T13:55:22Z</time>
      </trkpt>
      <trkpt lat="44.01984" lon="5.23502">
        <ele>312.09</ele>
        <time>2021-05-30T13:55:34Z</time>
      </trkpt>
      <trkpt lat="44.01982" lon="5.23487">
        <ele>312.57</ele>
        <time>2021-05-30T13:55:47Z</time>
      </trkpt>
      <trkpt lat="44.0198" lon="5.23477">
        <ele>312.57</ele>
        <time>2021-05-30T13:56:00Z</time>
      </trkpt>
      <trkpt lat="44.01979" lon="5.23454">
        <ele>312.09</ele>
        <time>2021-05-30T13:56:12Z</time>
      </trkpt>
      <trkpt lat="44.01972" lon="5.23439">
        <ele>312.57</ele>
        <time>2021-05-30T13:56:24Z</time>
      </trkpt>
      <trkpt lat="44.01971" lon="5.23417">
        <ele>313.05</ele>
        <time>2021-05-30T13:56:35Z</time>
      </trkpt>
      <trkpt lat="44.01969" lon="5.23404">
        <ele>313.05</ele>
        <time>2021-05-30T13:56:42Z</time>
      </trkpt>
      <trkpt lat="44.01968" lon="5.23389">
        <ele>313.53</ele>
        <time>2021-05-30T13:56:50Z</time>
      </trkpt>
      <trkpt lat="44.0196" lon="5.2336">
        <ele>313.05</ele>
        <time>2021-05-30T13:57:04Z</time>
      </trkpt>
      <trkpt lat="44.0196" lon="5.23357">
        <ele>312.09</ele>
        <time>2021-05-30T13:57:06Z</time>
      </trkpt>
      <trkpt lat="44.01962" lon="5.23333">
        <ele>313.53</ele>
        <time>2021-05-30T13:57:23Z</time>
      </trkpt>
      <trkpt lat="44.0197" lon="5.23318">
        <ele>314.01</ele>
        <time>2021-05-30T13:57:37Z</time>
      </trkpt>
      <trkpt lat="44.01973" lon="5.23312">
        <ele>314.97</ele>
        <time>2021-05-30T13:57:42Z</time>
      </trkpt>
      <trkpt lat="44.01977" lon="5.23308">
        <ele>314.01</ele>
        <time>2021-05-30T13:57:46Z</time>
      </trkpt>
      <trkpt lat="44.01983" lon="5.23297">
        <ele>314.01</ele>
        <time>2021-05-30T13:57:57Z</time>
      </trkpt>
      <trkpt lat="44.01984" lon="5.23294">
        <ele>314.01</ele>
        <time>2021-05-30T13:58:00Z</time>
      </trkpt>
      <trkpt lat="44.0199" lon="5.23288">
        <ele>315.45</ele>
        <time>2021-05-30T13:58:08Z</time>
      </trkpt>
      <trkpt lat="44.01993" lon="5.23275">
        <ele>315.93</ele>
        <time>2021-05-30T13:58:19Z</time>
      </trkpt>
      <trkpt lat="44.01999" lon="5.2326">
        <ele>315.93</ele>
        <time>2021-05-30T13:58:32Z</time>
      </trkpt>
      <trkpt lat="44.02005" lon="5.23251">
        <ele>316.41</ele>
        <time>2021-05-30T13:58:41Z</time>
      </trkpt>
      <trkpt lat="44.02012" lon="5.23244">
        <ele>314.97</ele>
        <time>2021-05-30T13:58:50Z</time>
      </trkpt>
      <trkpt lat="44.02006" lon="5.23233">
        <ele>314.97</ele>
        <time>2021-05-30T13:59:05Z</time>
      </trkpt>
      <trkpt lat="44.02003" lon="5.23219">
        <ele>315.45</ele>
        <time>2021-05-30T13:59:20Z</time>
      </trkpt>
      <trkpt lat="44.02007" lon="5.23209">
        <ele>318.81</ele>
        <time>2021-05-30T13:59:34Z</time>
      </trkpt>
      <trkpt lat="44.02007" lon="5.23209">
        <ele>317.37</ele>
        <time>2021-05-30T13:59:35Z</time>
      </trkpt>
      <trkpt lat="44.02007" lon="5.23209">
        <ele>316.41</ele>
        <time>2021-05-30T13:59:37Z</time>
      </trkpt>
      <trkpt lat="44.0201" lon="5.23207">
        <ele>315.93</ele>
        <time>2021-05-30T14:00:00Z</time>
      </trkpt>
      <trkpt lat="44.01992" lon="5.232">
        <ele>314.97</ele>
        <time>2021-05-30T14:00:24Z</time>
      </trkpt>
      <trkpt lat="44.01987" lon="5.23199">
        <ele>314.97</ele>
        <time>2021-05-30T14:01:02Z</time>
      </trkpt>
      <trkpt lat="44.01986" lon="5.23196">
        <ele>314.01</ele>
        <time>2021-05-30T14:01:33Z</time>
      </trkpt>
      <trkpt lat="44.01987" lon="5.23194">
        <ele>314.97</ele>
        <time>2021-05-30T14:01:35Z</time>
      </trkpt>
      <trkpt lat="44.01987" lon="5.23188">
        <ele>314.97</ele>
        <time>2021-05-30T14:01:59Z</time>
      </trkpt>
      <trkpt lat="44.01988" lon="5.23189">
        <ele>311.6</ele>
        <time>2021-05-30T14:02:02Z</time>
      </trkpt>
      <trkpt lat="44.01989" lon="5.23189">
        <ele>317.85</ele>
        <time>2021-05-30T14:02:03Z</time>
      </trkpt>
      <trkpt lat="44.01989" lon="5.2319">
        <ele>314.49</ele>
        <time>2021-05-30T14:02:05Z</time>
      </trkpt>
      <trkpt lat="44.0199" lon="5.23191">
        <ele>314.49</ele>
        <time>2021-05-30T14:02:12Z</time>
      </trkpt>
      <trkpt lat="44.01991" lon="5.23191">
        <ele>315.93</ele>
        <time>2021-05-30T14:02:30Z</time>
      </trkpt>
      <trkpt lat="44.01991" lon="5.23191">
        <ele>313.53</ele>
        <time>2021-05-30T14:02:33Z</time>
      </trkpt>
      <trkpt lat="44.01992" lon="5.23189">
        <ele>314.49</ele>
        <time>2021-05-30T14:03:00Z</time>
      </trkpt>
      <trkpt lat="44.01992" lon="5.2319">
        <ele>313.05</ele>
        <time>2021-05-30T14:03:09Z</time>
      </trkpt>
      <trkpt lat="44.01991" lon="5.23189">
        <ele>314.01</ele>
        <time>2021-05-30T14:03:27Z</time>
      </trkpt>
      <trkpt lat="44.0199" lon="5.23189">
        <ele>312.09</ele>
        <time>2021-05-30T14:03:30Z</time>
      </trkpt>
      <trkpt lat="44.01988" lon="5.23189">
        <ele>312.57</ele>
        <time>2021-05-30T14:03:55Z</time>
      </trkpt>
      <trkpt lat="44.01989" lon="5.23185">
        <ele>312.09</ele>
        <time>2021-05-30T14:04:25Z</time>
      </trkpt>
      <trkpt lat="44.01991" lon="5.23187">
        <ele>311.6</ele>
        <time>2021-05-30T14:04:59Z</time>
      </trkpt>
      <trkpt lat="44.0199" lon="5.23189">
        <ele>310.16</ele>
        <time>2021-05-30T14:05:14Z</time>
      </trkpt>
      <trkpt lat="44.01988" lon="5.23189">
        <ele>311.12</ele>
        <time>2021-05-30T14:05:30Z</time>
      </trkpt>
      <trkpt lat="44.01989" lon="5.23188">
        <ele>310.64</ele>
        <time>2021-05-30T14:05:38Z</time>
      </trkpt>
      <trkpt lat="44.01989" lon="5.23189">
        <ele>312.09</ele>
        <time>2021-05-30T14:05:42Z</time>
      </trkpt>
      <trkpt lat="44.01988" lon="5.23189">
        <ele>310.16</ele>
        <time>2021-05-30T14:05:44Z</time>
      </trkpt>
      <trkpt lat="44.01991" lon="5.23186">
        <ele>308.72</ele>
        <time>2021-05-30T14:06:14Z</time>
      </trkpt>
      <trkpt lat="44.01989" lon="5.2319">
        <ele>305.84</ele>
        <time>2021-05-30T14:06:45Z</time>
      </trkpt>
      <trkpt lat="44.01988" lon="5.23191">
        <ele>310.16</ele>
        <time>2021-05-30T14:06:47Z</time>
      </trkpt>
      <trkpt lat="44.01988" lon="5.23192">
        <ele>310.16</ele>
        <time>2021-05-30T14:06:48Z</time>
      </trkpt>
      <trkpt lat="44.01988" lon="5.23194">
        <ele>308.72</ele>
        <time>2021-05-30T14:06:51Z</time>
      </trkpt>
      <trkpt lat="44.01983" lon="5.23194">
        <ele>307.76</ele>
        <time>2021-05-30T14:07:05Z</time>
      </trkpt>
      <trkpt lat="44.01967" lon="5.23192">
        <ele>306.8</ele>
        <time>2021-05-30T14:07:22Z</time>
      </trkpt>
      <trkpt lat="44.01952" lon="5.23187">
        <ele>306.32</ele>
        <time>2021-05-30T14:07:39Z</time>
      </trkpt>
      <trkpt lat="44.01937" lon="5.23188">
        <ele>306.32</ele>
        <time>2021-05-30T14:07:54Z</time>
      </trkpt>
      <trkpt lat="44.01923" lon="5.23189">
        <ele>306.32</ele>
        <time>2021-05-30T14:08:09Z</time>
      </trkpt>
      <trkpt lat="44.01906" lon="5.23187">
        <ele>305.84</ele>
        <time>2021-05-30T14:08:25Z</time>
      </trkpt>
      <trkpt lat="44.01891" lon="5.23184">
        <ele>306.32</ele>
        <time>2021-05-30T14:08:37Z</time>
      </trkpt>
      <trkpt lat="44.01888" lon="5.23182">
        <ele>306.32</ele>
        <time>2021-05-30T14:08:40Z</time>
      </trkpt>
      <trkpt lat="44.01867" lon="5.23164">
        <ele>305.84</ele>
        <time>2021-05-30T14:08:58Z</time>
      </trkpt>
      <trkpt lat="44.01849" lon="5.23141">
        <ele>306.32</ele>
        <time>2021-05-30T14:09:16Z</time>
      </trkpt>
      <trkpt lat="44.01835" lon="5.23117">
        <ele>304.88</ele>
        <time>2021-05-30T14:09:32Z</time>
      </trkpt>
      <trkpt lat="44.01834" lon="5.23116">
        <ele>304.88</ele>
        <time>2021-05-30T14:09:33Z</time>
      </trkpt>
      <trkpt lat="44.01823" lon="5.23107">
        <ele>304.88</ele>
        <time>2021-05-30T14:09:43Z</time>
      </trkpt>
      <trkpt lat="44.01805" lon="5.23093">
        <ele>306.8</ele>
        <time>2021-05-30T14:10:00Z</time>
      </trkpt>
      <trkpt lat="44.01792" lon="5.23078">
        <ele>307.28</ele>
        <time>2021-05-30T14:10:16Z</time>
      </trkpt>
      <trkpt lat="44.01787" lon="5.23074">
        <ele>303.43</ele>
        <time>2021-05-30T14:10:24Z</time>
      </trkpt>
      <trkpt lat="44.01786" lon="5.23074">
        <ele>306.8</ele>
        <time>2021-05-30T14:10:26Z</time>
      </trkpt>
      <trkpt lat="44.01786" lon="5.23073">
        <ele>306.8</ele>
        <time>2021-05-30T14:10:27Z</time>
      </trkpt>
      <trkpt lat="44.01786" lon="5.23072">
        <ele>310.16</ele>
        <time>2021-05-30T14:10:29Z</time>
      </trkpt>
      <trkpt lat="44.01785" lon="5.23071">
        <ele>310.16</ele>
        <time>2021-05-30T14:10:30Z</time>
      </trkpt>
      <trkpt lat="44.01784" lon="5.2307">
        <ele>306.8</ele>
        <time>2021-05-30T14:10:32Z</time>
      </trkpt>
      <trkpt lat="44.01784" lon="5.2307">
        <ele>306.8</ele>
        <time>2021-05-30T14:10:33Z</time>
      </trkpt>
      <trkpt lat="44.01782" lon="5.23068">
        <ele>305.84</ele>
        <time>2021-05-30T14:10:42Z</time>
      </trkpt>
      <trkpt lat="44.01783" lon="5.23065">
        <ele>306.32</ele>
        <time>2021-05-30T14:10:58Z</time>
      </trkpt>
      <trkpt lat="44.01771" lon="5.23065">
        <ele>307.28</ele>
        <time>2021-05-30T14:11:12Z</time>
      </trkpt>
      <trkpt lat="44.01752" lon="5.2306">
        <ele>308.24</ele>
        <time>2021-05-30T14:11:31Z</time>
      </trkpt>
      <trkpt lat="44.01751" lon="5.23059">
        <ele>308.24</ele>
        <time>2021-05-30T14:11:32Z</time>
      </trkpt>
      <trkpt lat="44.01748" lon="5.23056">
        <ele>308.24</ele>
        <time>2021-05-30T14:11:35Z</time>
      </trkpt>
      <trkpt lat="44.01733" lon="5.23043">
        <ele>309.2</ele>
        <time>2021-05-30T14:11:51Z</time>
      </trkpt>
      <trkpt lat="44.01719" lon="5.23024">
        <ele>310.16</ele>
        <time>2021-05-30T14:12:08Z</time>
      </trkpt>
      <trkpt lat="44.01705" lon="5.23007">
        <ele>310.16</ele>
        <time>2021-05-30T14:12:22Z</time>
      </trkpt>
      <trkpt lat="44.01681" lon="5.2299">
        <ele>311.6</ele>
        <time>2021-05-30T14:12:41Z</time>
      </trkpt>
      <trkpt lat="44.01665" lon="5.22976">
        <ele>313.53</ele>
        <time>2021-05-30T14:12:56Z</time>
      </trkpt>
      <trkpt lat="44.01648" lon="5.22955">
        <ele>314.49</ele>
        <time>2021-05-30T14:13:13Z</time>
      </trkpt>
      <trkpt lat="44.01632" lon="5.22936">
        <ele>315.45</ele>
        <time>2021-05-30T14:13:29Z</time>
      </trkpt>
      <trkpt lat="44.01616" lon="5.22914">
        <ele>315.45</ele>
        <time>2021-05-30T14:13:46Z</time>
      </trkpt>
      <trkpt lat="44.01596" lon="5.2289">
        <ele>315.93</ele>
        <time>2021-05-30T14:14:06Z</time>
      </trkpt>
      <trkpt lat="44.01577" lon="5.22871">
        <ele>316.89</ele>
        <time>2021-05-30T14:14:24Z</time>
      </trkpt>
      <trkpt lat="44.01559" lon="5.22852">
        <ele>317.85</ele>
        <time>2021-05-30T14:14:42Z</time>
      </trkpt>
      <trkpt lat="44.01558" lon="5.22849">
        <ele>317.85</ele>
        <time>2021-05-30T14:14:44Z</time>
      </trkpt>
      <trkpt lat="44.01554" lon="5.22845">
        <ele>318.33</ele>
        <time>2021-05-30T14:14:48Z</time>
      </trkpt>
      <trkpt lat="44.01542" lon="5.2283">
        <ele>319.78</ele>
        <time>2021-05-30T14:15:03Z</time>
      </trkpt>
      <trkpt lat="44.0154" lon="5.22828">
        <ele>318.33</ele>
        <time>2021-05-30T14:15:05Z</time>
      </trkpt>
      <trkpt lat="44.01539" lon="5.22827">
        <ele>318.33</ele>
        <time>2021-05-30T14:15:06Z</time>
      </trkpt>
      <trkpt lat="44.01538" lon="5.22825">
        <ele>319.78</ele>
        <time>2021-05-30T14:15:08Z</time>
      </trkpt>
      <trkpt lat="44.01524" lon="5.22804">
        <ele>320.74</ele>
        <time>2021-05-30T14:15:25Z</time>
      </trkpt>
      <trkpt lat="44.01509" lon="5.22781">
        <ele>322.18</ele>
        <time>2021-05-30T14:15:42Z</time>
      </trkpt>
      <trkpt lat="44.01492" lon="5.22755">
        <ele>324.1</ele>
        <time>2021-05-30T14:16:02Z</time>
      </trkpt>
      <trkpt lat="44.01472" lon="5.2273">
        <ele>325.54</ele>
        <time>2021-05-30T14:16:23Z</time>
      </trkpt>
      <trkpt lat="44.01457" lon="5.22706">
        <ele>326.99</ele>
        <time>2021-05-30T14:16:43Z</time>
      </trkpt>
      <trkpt lat="44.01447" lon="5.22674">
        <ele>328.43</ele>
        <time>2021-05-30T14:17:03Z</time>
      </trkpt>
      <trkpt lat="44.0144" lon="5.22644">
        <ele>329.87</ele>
        <time>2021-05-30T14:17:22Z</time>
      </trkpt>
      <trkpt lat="44.01432" lon="5.22616">
        <ele>331.31</ele>
        <time>2021-05-30T14:17:42Z</time>
      </trkpt>
      <trkpt lat="44.01432" lon="5.22613">
        <ele>330.83</ele>
        <time>2021-05-30T14:17:53Z</time>
      </trkpt>
      <trkpt lat="44.0143" lon="5.22605">
        <ele>330.83</ele>
        <time>2021-05-30T14:18:10Z</time>
      </trkpt>
      <trkpt lat="44.01429" lon="5.226">
        <ele>331.79</ele>
        <time>2021-05-30T14:18:13Z</time>
      </trkpt>
      <trkpt lat="44.01423" lon="5.22573">
        <ele>332.75</ele>
        <time>2021-05-30T14:18:30Z</time>
      </trkpt>
      <trkpt lat="44.01418" lon="5.22542">
        <ele>335.16</ele>
        <time>2021-05-30T14:18:49Z</time>
      </trkpt>
      <trkpt lat="44.01415" lon="5.22512">
        <ele>335.64</ele>
        <time>2021-05-30T14:19:07Z</time>
      </trkpt>
      <trkpt lat="44.01413" lon="5.22475">
        <ele>337.56</ele>
        <time>2021-05-30T14:19:28Z</time>
      </trkpt>
      <trkpt lat="44.01409" lon="5.22449">
        <ele>338.52</ele>
        <time>2021-05-30T14:19:43Z</time>
      </trkpt>
      <trkpt lat="44.01404" lon="5.22446">
        <ele>338.52</ele>
        <time>2021-05-30T14:19:48Z</time>
      </trkpt>
      <trkpt lat="44.01399" lon="5.22445">
        <ele>337.08</ele>
        <time>2021-05-30T14:19:53Z</time>
      </trkpt>
      <trkpt lat="44.01387" lon="5.22462">
        <ele>338.04</ele>
        <time>2021-05-30T14:20:09Z</time>
      </trkpt>
      <trkpt lat="44.01371" lon="5.22489">
        <ele>338.52</ele>
        <time>2021-05-30T14:20:29Z</time>
      </trkpt>
      <trkpt lat="44.01354" lon="5.22504">
        <ele>339</ele>
        <time>2021-05-30T14:20:48Z</time>
      </trkpt>
      <trkpt lat="44.01348" lon="5.22495">
        <ele>339</ele>
        <time>2021-05-30T14:20:59Z</time>
      </trkpt>
      <trkpt lat="44.01346" lon="5.22494">
        <ele>339</ele>
        <time>2021-05-30T14:21:02Z</time>
      </trkpt>
      <trkpt lat="44.01341" lon="5.22494">
        <ele>339</ele>
        <time>2021-05-30T14:21:06Z</time>
      </trkpt>
      <trkpt lat="44.01333" lon="5.22501">
        <ele>338.52</ele>
        <time>2021-05-30T14:21:18Z</time>
      </trkpt>
      <trkpt lat="44.01331" lon="5.22505">
        <ele>338.04</ele>
        <time>2021-05-30T14:21:27Z</time>
      </trkpt>
      <trkpt lat="44.0133" lon="5.22505">
        <ele>338.04</ele>
        <time>2021-05-30T14:21:38Z</time>
      </trkpt>
      <trkpt lat="44.0133" lon="5.22505">
        <ele>338.04</ele>
        <time>2021-05-30T14:21:39Z</time>
      </trkpt>
      <trkpt lat="44.0133" lon="5.22506">
        <ele>343.33</ele>
        <time>2021-05-30T14:21:41Z</time>
      </trkpt>
      <trkpt lat="44.0133" lon="5.22506">
        <ele>340.92</ele>
        <time>2021-05-30T14:21:42Z</time>
      </trkpt>
      <trkpt lat="44.0133" lon="5.22505">
        <ele>337.56</ele>
        <time>2021-05-30T14:21:44Z</time>
      </trkpt>
      <trkpt lat="44.0133" lon="5.22505">
        <ele>337.56</ele>
        <time>2021-05-30T14:21:45Z</time>
      </trkpt>
      <trkpt lat="44.0133" lon="5.22506">
        <ele>340.92</ele>
        <time>2021-05-30T14:21:47Z</time>
      </trkpt>
      <trkpt lat="44.0133" lon="5.22504">
        <ele>338.52</ele>
        <time>2021-05-30T14:21:52Z</time>
      </trkpt>
      <trkpt lat="44.0133" lon="5.22507">
        <ele>337.56</ele>
        <time>2021-05-30T14:22:16Z</time>
      </trkpt>
      <trkpt lat="44.0133" lon="5.22502">
        <ele>339</ele>
        <time>2021-05-30T14:22:39Z</time>
      </trkpt>
      <trkpt lat="44.0133" lon="5.22502">
        <ele>337.08</ele>
        <time>2021-05-30T14:22:42Z</time>
      </trkpt>
      <trkpt lat="44.0133" lon="5.22503">
        <ele>338.52</ele>
        <time>2021-05-30T14:22:50Z</time>
      </trkpt>
    </trkseg>
  </trk>
</gpx>